<?xml version="1.0" encoding="UTF-8" standalone="no" ?>
<gpx xmlns="http://www.topografix.com/GPX/1/1" xmlns:xsi="http://www.w3.org/2001/XMLSchema-instance" xsi:schemaLocation="http://www.topografix.com/GPX/1/1 http://www.topografix.com/GPX/1/1/gpx.xsd" version="1.1" creator="VisuGPX - https://www.visugpx.com">
  <metadata>
    <name>Malmontagne 30-09-21</name>
    <desc><![CDATA[Petite boucle au départ du carrefour de Vienne autour de la Malmontagne.]]></desc>
  </metadata>
  <trk>
    <name><![CDATA[Malmontagne 30-09-21]]></name>
    <trkseg>
      <trkpt lat="48.35821" lon="2.75932">
        <ele>91.199996948242</ele>
        <time>2021-09-30T12:18:19Z</time>
      </trkpt>
      <trkpt lat="48.35826" lon="2.75928">
        <ele>91.599998474121</ele>
        <time>2021-09-30T12:18:24Z</time>
      </trkpt>
      <trkpt lat="48.35831" lon="2.75925">
        <ele>91.400001525879</ele>
        <time>2021-09-30T12:18:29Z</time>
      </trkpt>
      <trkpt lat="48.35836" lon="2.7592">
        <ele>91.400001525879</ele>
        <time>2021-09-30T12:18:34Z</time>
      </trkpt>
      <trkpt lat="48.35841" lon="2.75917">
        <ele>91.599998474121</ele>
        <time>2021-09-30T12:18:39Z</time>
      </trkpt>
      <trkpt lat="48.35846" lon="2.75913">
        <ele>91.400001525879</ele>
        <time>2021-09-30T12:18:44Z</time>
      </trkpt>
      <trkpt lat="48.35851" lon="2.75909">
        <ele>91.400001525879</ele>
        <time>2021-09-30T12:18:49Z</time>
      </trkpt>
      <trkpt lat="48.35855" lon="2.75906">
        <ele>91.400001525879</ele>
        <time>2021-09-30T12:18:54Z</time>
      </trkpt>
      <trkpt lat="48.35861" lon="2.75902">
        <ele>91.400001525879</ele>
        <time>2021-09-30T12:18:59Z</time>
      </trkpt>
      <trkpt lat="48.35867" lon="2.75897">
        <ele>91.400001525879</ele>
        <time>2021-09-30T12:19:04Z</time>
      </trkpt>
      <trkpt lat="48.35873" lon="2.75893">
        <ele>91.199996948242</ele>
        <time>2021-09-30T12:19:09Z</time>
      </trkpt>
      <trkpt lat="48.35878" lon="2.75889">
        <ele>91</ele>
        <time>2021-09-30T12:19:14Z</time>
      </trkpt>
      <trkpt lat="48.35883" lon="2.75885">
        <ele>91.199996948242</ele>
        <time>2021-09-30T12:19:19Z</time>
      </trkpt>
      <trkpt lat="48.35889" lon="2.75877">
        <ele>90.800003051758</ele>
        <time>2021-09-30T12:19:24Z</time>
      </trkpt>
      <trkpt lat="48.35892" lon="2.75871">
        <ele>90.800003051758</ele>
        <time>2021-09-30T12:19:29Z</time>
      </trkpt>
      <trkpt lat="48.35898" lon="2.75867">
        <ele>90.800003051758</ele>
        <time>2021-09-30T12:19:34Z</time>
      </trkpt>
      <trkpt lat="48.35905" lon="2.75862">
        <ele>90.800003051758</ele>
        <time>2021-09-30T12:19:39Z</time>
      </trkpt>
      <trkpt lat="48.35911" lon="2.75857">
        <ele>91</ele>
        <time>2021-09-30T12:19:44Z</time>
      </trkpt>
      <trkpt lat="48.35916" lon="2.75851">
        <ele>91</ele>
        <time>2021-09-30T12:19:49Z</time>
      </trkpt>
      <trkpt lat="48.3592" lon="2.75846">
        <ele>91.199996948242</ele>
        <time>2021-09-30T12:19:54Z</time>
      </trkpt>
      <trkpt lat="48.35925" lon="2.75842">
        <ele>91.400001525879</ele>
        <time>2021-09-30T12:19:59Z</time>
      </trkpt>
      <trkpt lat="48.35928" lon="2.75839">
        <ele>91.599998474121</ele>
        <time>2021-09-30T12:20:04Z</time>
      </trkpt>
      <trkpt lat="48.35932" lon="2.75833">
        <ele>91.800003051758</ele>
        <time>2021-09-30T12:20:09Z</time>
      </trkpt>
      <trkpt lat="48.35937" lon="2.7583">
        <ele>91.800003051758</ele>
        <time>2021-09-30T12:20:14Z</time>
      </trkpt>
      <trkpt lat="48.35942" lon="2.75825">
        <ele>91.800003051758</ele>
        <time>2021-09-30T12:20:19Z</time>
      </trkpt>
      <trkpt lat="48.35947" lon="2.75822">
        <ele>92</ele>
        <time>2021-09-30T12:20:24Z</time>
      </trkpt>
      <trkpt lat="48.3595" lon="2.75818">
        <ele>91.800003051758</ele>
        <time>2021-09-30T12:20:29Z</time>
      </trkpt>
      <trkpt lat="48.35954" lon="2.75815">
        <ele>91.800003051758</ele>
        <time>2021-09-30T12:20:34Z</time>
      </trkpt>
      <trkpt lat="48.35958" lon="2.75811">
        <ele>92</ele>
        <time>2021-09-30T12:20:39Z</time>
      </trkpt>
      <trkpt lat="48.35962" lon="2.75805">
        <ele>92</ele>
        <time>2021-09-30T12:20:44Z</time>
      </trkpt>
      <trkpt lat="48.35967" lon="2.75801">
        <ele>92.199996948242</ele>
        <time>2021-09-30T12:20:49Z</time>
      </trkpt>
      <trkpt lat="48.35971" lon="2.75797">
        <ele>92.199996948242</ele>
        <time>2021-09-30T12:20:54Z</time>
      </trkpt>
      <trkpt lat="48.35974" lon="2.75793">
        <ele>92.199996948242</ele>
        <time>2021-09-30T12:20:59Z</time>
      </trkpt>
      <trkpt lat="48.35978" lon="2.75786">
        <ele>92.400001525879</ele>
        <time>2021-09-30T12:21:04Z</time>
      </trkpt>
      <trkpt lat="48.35983" lon="2.75779">
        <ele>92.400001525879</ele>
        <time>2021-09-30T12:21:09Z</time>
      </trkpt>
      <trkpt lat="48.35988" lon="2.75773">
        <ele>92.599998474121</ele>
        <time>2021-09-30T12:21:14Z</time>
      </trkpt>
      <trkpt lat="48.35993" lon="2.75766">
        <ele>92.599998474121</ele>
        <time>2021-09-30T12:21:19Z</time>
      </trkpt>
      <trkpt lat="48.35998" lon="2.75761">
        <ele>92.599998474121</ele>
        <time>2021-09-30T12:21:24Z</time>
      </trkpt>
      <trkpt lat="48.36002" lon="2.75756">
        <ele>92.599998474121</ele>
        <time>2021-09-30T12:21:29Z</time>
      </trkpt>
      <trkpt lat="48.36005" lon="2.75753">
        <ele>92.599998474121</ele>
        <time>2021-09-30T12:21:34Z</time>
      </trkpt>
      <trkpt lat="48.36011" lon="2.75748">
        <ele>92.800003051758</ele>
        <time>2021-09-30T12:21:39Z</time>
      </trkpt>
      <trkpt lat="48.36021" lon="2.75742">
        <ele>92.800003051758</ele>
        <time>2021-09-30T12:21:44Z</time>
      </trkpt>
      <trkpt lat="48.36027" lon="2.75738">
        <ele>92.800003051758</ele>
        <time>2021-09-30T12:21:49Z</time>
      </trkpt>
      <trkpt lat="48.36033" lon="2.75735">
        <ele>92.800003051758</ele>
        <time>2021-09-30T12:21:54Z</time>
      </trkpt>
      <trkpt lat="48.36039" lon="2.7573">
        <ele>92.599998474121</ele>
        <time>2021-09-30T12:21:59Z</time>
      </trkpt>
      <trkpt lat="48.36044" lon="2.75725">
        <ele>92.400001525879</ele>
        <time>2021-09-30T12:22:04Z</time>
      </trkpt>
      <trkpt lat="48.3605" lon="2.7572">
        <ele>92.400001525879</ele>
        <time>2021-09-30T12:22:09Z</time>
      </trkpt>
      <trkpt lat="48.36055" lon="2.75716">
        <ele>92.599998474121</ele>
        <time>2021-09-30T12:22:14Z</time>
      </trkpt>
      <trkpt lat="48.36059" lon="2.75712">
        <ele>92.599998474121</ele>
        <time>2021-09-30T12:22:19Z</time>
      </trkpt>
      <trkpt lat="48.36063" lon="2.75707">
        <ele>92.800003051758</ele>
        <time>2021-09-30T12:22:24Z</time>
      </trkpt>
      <trkpt lat="48.36067" lon="2.75703">
        <ele>92.800003051758</ele>
        <time>2021-09-30T12:22:29Z</time>
      </trkpt>
      <trkpt lat="48.36071" lon="2.757">
        <ele>93</ele>
        <time>2021-09-30T12:22:34Z</time>
      </trkpt>
      <trkpt lat="48.36076" lon="2.75696">
        <ele>93.400001525879</ele>
        <time>2021-09-30T12:22:39Z</time>
      </trkpt>
      <trkpt lat="48.36081" lon="2.7569">
        <ele>93.400001525879</ele>
        <time>2021-09-30T12:22:44Z</time>
      </trkpt>
      <trkpt lat="48.36086" lon="2.75686">
        <ele>94</ele>
        <time>2021-09-30T12:22:49Z</time>
      </trkpt>
      <trkpt lat="48.3609" lon="2.75679">
        <ele>94.199996948242</ele>
        <time>2021-09-30T12:22:54Z</time>
      </trkpt>
      <trkpt lat="48.36093" lon="2.75673">
        <ele>94.599998474121</ele>
        <time>2021-09-30T12:22:59Z</time>
      </trkpt>
      <trkpt lat="48.36097" lon="2.75668">
        <ele>95.199996948242</ele>
        <time>2021-09-30T12:23:04Z</time>
      </trkpt>
      <trkpt lat="48.36102" lon="2.75663">
        <ele>95.599998474121</ele>
        <time>2021-09-30T12:23:09Z</time>
      </trkpt>
      <trkpt lat="48.36105" lon="2.75661">
        <ele>96.199996948242</ele>
        <time>2021-09-30T12:23:14Z</time>
      </trkpt>
      <trkpt lat="48.36111" lon="2.75656">
        <ele>97</ele>
        <time>2021-09-30T12:23:19Z</time>
      </trkpt>
      <trkpt lat="48.36115" lon="2.75653">
        <ele>97.400001525879</ele>
        <time>2021-09-30T12:23:24Z</time>
      </trkpt>
      <trkpt lat="48.36119" lon="2.7565">
        <ele>98.199996948242</ele>
        <time>2021-09-30T12:23:29Z</time>
      </trkpt>
      <trkpt lat="48.36123" lon="2.75648">
        <ele>99</ele>
        <time>2021-09-30T12:23:34Z</time>
      </trkpt>
      <trkpt lat="48.36127" lon="2.75644">
        <ele>99.800003051758</ele>
        <time>2021-09-30T12:23:39Z</time>
      </trkpt>
      <trkpt lat="48.36131" lon="2.75642">
        <ele>100.59999847412</ele>
        <time>2021-09-30T12:23:44Z</time>
      </trkpt>
      <trkpt lat="48.36134" lon="2.75639">
        <ele>101.19999694824</ele>
        <time>2021-09-30T12:23:49Z</time>
      </trkpt>
      <trkpt lat="48.36136" lon="2.75637">
        <ele>102</ele>
        <time>2021-09-30T12:23:54Z</time>
      </trkpt>
      <trkpt lat="48.36139" lon="2.75636">
        <ele>102.40000152588</ele>
        <time>2021-09-30T12:23:59Z</time>
      </trkpt>
      <trkpt lat="48.36144" lon="2.75637">
        <ele>102.80000305176</ele>
        <time>2021-09-30T12:24:04Z</time>
      </trkpt>
      <trkpt lat="48.36149" lon="2.75632">
        <ele>103.19999694824</ele>
        <time>2021-09-30T12:24:09Z</time>
      </trkpt>
      <trkpt lat="48.36154" lon="2.75624">
        <ele>103.19999694824</ele>
        <time>2021-09-30T12:24:14Z</time>
      </trkpt>
      <trkpt lat="48.3616" lon="2.75617">
        <ele>103</ele>
        <time>2021-09-30T12:24:19Z</time>
      </trkpt>
      <trkpt lat="48.36167" lon="2.7561">
        <ele>102.59999847412</ele>
        <time>2021-09-30T12:24:24Z</time>
      </trkpt>
      <trkpt lat="48.36172" lon="2.75606">
        <ele>102.40000152588</ele>
        <time>2021-09-30T12:24:29Z</time>
      </trkpt>
      <trkpt lat="48.36177" lon="2.75601">
        <ele>102</ele>
        <time>2021-09-30T12:24:34Z</time>
      </trkpt>
      <trkpt lat="48.36181" lon="2.75597">
        <ele>101.80000305176</ele>
        <time>2021-09-30T12:24:39Z</time>
      </trkpt>
      <trkpt lat="48.36185" lon="2.75591">
        <ele>101.59999847412</ele>
        <time>2021-09-30T12:24:44Z</time>
      </trkpt>
      <trkpt lat="48.3619" lon="2.75583">
        <ele>101.19999694824</ele>
        <time>2021-09-30T12:24:49Z</time>
      </trkpt>
      <trkpt lat="48.36196" lon="2.75579">
        <ele>101</ele>
        <time>2021-09-30T12:24:54Z</time>
      </trkpt>
      <trkpt lat="48.36201" lon="2.75575">
        <ele>100.80000305176</ele>
        <time>2021-09-30T12:24:59Z</time>
      </trkpt>
      <trkpt lat="48.36206" lon="2.7557">
        <ele>100.80000305176</ele>
        <time>2021-09-30T12:25:03Z</time>
      </trkpt>
      <trkpt lat="48.36212" lon="2.75565">
        <ele>100.80000305176</ele>
        <time>2021-09-30T12:25:09Z</time>
      </trkpt>
      <trkpt lat="48.36216" lon="2.7556">
        <ele>100.59999847412</ele>
        <time>2021-09-30T12:25:14Z</time>
      </trkpt>
      <trkpt lat="48.36221" lon="2.75554">
        <ele>100.59999847412</ele>
        <time>2021-09-30T12:25:19Z</time>
      </trkpt>
      <trkpt lat="48.36225" lon="2.75549">
        <ele>100.59999847412</ele>
        <time>2021-09-30T12:25:24Z</time>
      </trkpt>
      <trkpt lat="48.36229" lon="2.75546">
        <ele>100.80000305176</ele>
        <time>2021-09-30T12:25:29Z</time>
      </trkpt>
      <trkpt lat="48.36234" lon="2.75543">
        <ele>101</ele>
        <time>2021-09-30T12:25:34Z</time>
      </trkpt>
      <trkpt lat="48.36238" lon="2.75538">
        <ele>101.40000152588</ele>
        <time>2021-09-30T12:25:39Z</time>
      </trkpt>
      <trkpt lat="48.36243" lon="2.75533">
        <ele>101.40000152588</ele>
        <time>2021-09-30T12:25:44Z</time>
      </trkpt>
      <trkpt lat="48.36246" lon="2.7553">
        <ele>101.80000305176</ele>
        <time>2021-09-30T12:25:49Z</time>
      </trkpt>
      <trkpt lat="48.36249" lon="2.75526">
        <ele>102.19999694824</ele>
        <time>2021-09-30T12:25:54Z</time>
      </trkpt>
      <trkpt lat="48.36254" lon="2.75522">
        <ele>102.40000152588</ele>
        <time>2021-09-30T12:25:59Z</time>
      </trkpt>
      <trkpt lat="48.36259" lon="2.75518">
        <ele>102.59999847412</ele>
        <time>2021-09-30T12:26:04Z</time>
      </trkpt>
      <trkpt lat="48.36264" lon="2.75513">
        <ele>102.80000305176</ele>
        <time>2021-09-30T12:26:09Z</time>
      </trkpt>
      <trkpt lat="48.36268" lon="2.75509">
        <ele>103.19999694824</ele>
        <time>2021-09-30T12:26:14Z</time>
      </trkpt>
      <trkpt lat="48.36272" lon="2.75507">
        <ele>103.59999847412</ele>
        <time>2021-09-30T12:26:19Z</time>
      </trkpt>
      <trkpt lat="48.36276" lon="2.75503">
        <ele>104</ele>
        <time>2021-09-30T12:26:24Z</time>
      </trkpt>
      <trkpt lat="48.3628" lon="2.75498">
        <ele>104.59999847412</ele>
        <time>2021-09-30T12:26:29Z</time>
      </trkpt>
      <trkpt lat="48.36284" lon="2.75492">
        <ele>105.59999847412</ele>
        <time>2021-09-30T12:26:34Z</time>
      </trkpt>
      <trkpt lat="48.36288" lon="2.75485">
        <ele>106.19999694824</ele>
        <time>2021-09-30T12:26:39Z</time>
      </trkpt>
      <trkpt lat="48.36292" lon="2.75482">
        <ele>107</ele>
        <time>2021-09-30T12:26:44Z</time>
      </trkpt>
      <trkpt lat="48.36295" lon="2.7548">
        <ele>107.40000152588</ele>
        <time>2021-09-30T12:26:49Z</time>
      </trkpt>
      <trkpt lat="48.36299" lon="2.75478">
        <ele>108.40000152588</ele>
        <time>2021-09-30T12:26:54Z</time>
      </trkpt>
      <trkpt lat="48.36302" lon="2.75474">
        <ele>109.19999694824</ele>
        <time>2021-09-30T12:26:59Z</time>
      </trkpt>
      <trkpt lat="48.36306" lon="2.75471">
        <ele>110</ele>
        <time>2021-09-30T12:27:04Z</time>
      </trkpt>
      <trkpt lat="48.36311" lon="2.75467">
        <ele>110.80000305176</ele>
        <time>2021-09-30T12:27:09Z</time>
      </trkpt>
      <trkpt lat="48.36314" lon="2.75463">
        <ele>111.59999847412</ele>
        <time>2021-09-30T12:27:14Z</time>
      </trkpt>
      <trkpt lat="48.36317" lon="2.75459">
        <ele>112.19999694824</ele>
        <time>2021-09-30T12:27:19Z</time>
      </trkpt>
      <trkpt lat="48.36322" lon="2.75455">
        <ele>112.80000305176</ele>
        <time>2021-09-30T12:27:24Z</time>
      </trkpt>
      <trkpt lat="48.36327" lon="2.75453">
        <ele>113.19999694824</ele>
        <time>2021-09-30T12:27:29Z</time>
      </trkpt>
      <trkpt lat="48.36332" lon="2.75451">
        <ele>113.19999694824</ele>
        <time>2021-09-30T12:27:34Z</time>
      </trkpt>
      <trkpt lat="48.36338" lon="2.75449">
        <ele>113.19999694824</ele>
        <time>2021-09-30T12:27:39Z</time>
      </trkpt>
      <trkpt lat="48.36343" lon="2.75446">
        <ele>113</ele>
        <time>2021-09-30T12:27:44Z</time>
      </trkpt>
      <trkpt lat="48.36348" lon="2.75443">
        <ele>113</ele>
        <time>2021-09-30T12:27:49Z</time>
      </trkpt>
      <trkpt lat="48.36352" lon="2.7544">
        <ele>112.59999847412</ele>
        <time>2021-09-30T12:27:54Z</time>
      </trkpt>
      <trkpt lat="48.36356" lon="2.75437">
        <ele>111.40000152588</ele>
        <time>2021-09-30T12:27:59Z</time>
      </trkpt>
      <trkpt lat="48.3636" lon="2.75435">
        <ele>110.40000152588</ele>
        <time>2021-09-30T12:28:04Z</time>
      </trkpt>
      <trkpt lat="48.36365" lon="2.75431">
        <ele>109.40000152588</ele>
        <time>2021-09-30T12:28:09Z</time>
      </trkpt>
      <trkpt lat="48.36371" lon="2.75427">
        <ele>108.59999847412</ele>
        <time>2021-09-30T12:28:14Z</time>
      </trkpt>
      <trkpt lat="48.36376" lon="2.75423">
        <ele>107.80000305176</ele>
        <time>2021-09-30T12:28:19Z</time>
      </trkpt>
      <trkpt lat="48.36381" lon="2.75419">
        <ele>107</ele>
        <time>2021-09-30T12:28:24Z</time>
      </trkpt>
      <trkpt lat="48.36386" lon="2.75415">
        <ele>106.80000305176</ele>
        <time>2021-09-30T12:28:29Z</time>
      </trkpt>
      <trkpt lat="48.36391" lon="2.75411">
        <ele>106</ele>
        <time>2021-09-30T12:28:34Z</time>
      </trkpt>
      <trkpt lat="48.36398" lon="2.75409">
        <ele>105.80000305176</ele>
        <time>2021-09-30T12:28:39Z</time>
      </trkpt>
      <trkpt lat="48.36402" lon="2.75405">
        <ele>105.59999847412</ele>
        <time>2021-09-30T12:28:44Z</time>
      </trkpt>
      <trkpt lat="48.36406" lon="2.754">
        <ele>105.59999847412</ele>
        <time>2021-09-30T12:28:49Z</time>
      </trkpt>
      <trkpt lat="48.36411" lon="2.75396">
        <ele>105.80000305176</ele>
        <time>2021-09-30T12:28:54Z</time>
      </trkpt>
      <trkpt lat="48.36417" lon="2.75391">
        <ele>106</ele>
        <time>2021-09-30T12:28:59Z</time>
      </trkpt>
      <trkpt lat="48.36421" lon="2.75387">
        <ele>106</ele>
        <time>2021-09-30T12:29:04Z</time>
      </trkpt>
      <trkpt lat="48.36426" lon="2.75382">
        <ele>106</ele>
        <time>2021-09-30T12:29:09Z</time>
      </trkpt>
      <trkpt lat="48.36432" lon="2.75377">
        <ele>106</ele>
        <time>2021-09-30T12:29:14Z</time>
      </trkpt>
      <trkpt lat="48.36437" lon="2.75375">
        <ele>105.59999847412</ele>
        <time>2021-09-30T12:29:19Z</time>
      </trkpt>
      <trkpt lat="48.36442" lon="2.75371">
        <ele>105</ele>
        <time>2021-09-30T12:29:24Z</time>
      </trkpt>
      <trkpt lat="48.36447" lon="2.75368">
        <ele>104.59999847412</ele>
        <time>2021-09-30T12:29:29Z</time>
      </trkpt>
      <trkpt lat="48.36453" lon="2.75364">
        <ele>104.40000152588</ele>
        <time>2021-09-30T12:29:34Z</time>
      </trkpt>
      <trkpt lat="48.36459" lon="2.75359">
        <ele>104.40000152588</ele>
        <time>2021-09-30T12:29:39Z</time>
      </trkpt>
      <trkpt lat="48.36464" lon="2.75356">
        <ele>104.40000152588</ele>
        <time>2021-09-30T12:29:44Z</time>
      </trkpt>
      <trkpt lat="48.3647" lon="2.75351">
        <ele>104.40000152588</ele>
        <time>2021-09-30T12:29:49Z</time>
      </trkpt>
      <trkpt lat="48.36474" lon="2.75347">
        <ele>104.40000152588</ele>
        <time>2021-09-30T12:29:54Z</time>
      </trkpt>
      <trkpt lat="48.3648" lon="2.75344">
        <ele>104.59999847412</ele>
        <time>2021-09-30T12:29:59Z</time>
      </trkpt>
      <trkpt lat="48.36484" lon="2.75341">
        <ele>104.59999847412</ele>
        <time>2021-09-30T12:30:04Z</time>
      </trkpt>
      <trkpt lat="48.3649" lon="2.75338">
        <ele>104.80000305176</ele>
        <time>2021-09-30T12:30:09Z</time>
      </trkpt>
      <trkpt lat="48.36495" lon="2.75333">
        <ele>105.19999694824</ele>
        <time>2021-09-30T12:30:14Z</time>
      </trkpt>
      <trkpt lat="48.365" lon="2.75329">
        <ele>105.40000152588</ele>
        <time>2021-09-30T12:30:19Z</time>
      </trkpt>
      <trkpt lat="48.36504" lon="2.75324">
        <ele>105.59999847412</ele>
        <time>2021-09-30T12:30:24Z</time>
      </trkpt>
      <trkpt lat="48.36505" lon="2.75316">
        <ele>105.80000305176</ele>
        <time>2021-09-30T12:30:29Z</time>
      </trkpt>
      <trkpt lat="48.36507" lon="2.7531">
        <ele>106.19999694824</ele>
        <time>2021-09-30T12:30:34Z</time>
      </trkpt>
      <trkpt lat="48.36508" lon="2.75303">
        <ele>106.40000152588</ele>
        <time>2021-09-30T12:30:39Z</time>
      </trkpt>
      <trkpt lat="48.3651" lon="2.75294">
        <ele>106.59999847412</ele>
        <time>2021-09-30T12:30:44Z</time>
      </trkpt>
      <trkpt lat="48.36511" lon="2.75288">
        <ele>107</ele>
        <time>2021-09-30T12:30:49Z</time>
      </trkpt>
      <trkpt lat="48.36512" lon="2.75281">
        <ele>107.19999694824</ele>
        <time>2021-09-30T12:30:54Z</time>
      </trkpt>
      <trkpt lat="48.36512" lon="2.75274">
        <ele>107.59999847412</ele>
        <time>2021-09-30T12:30:59Z</time>
      </trkpt>
      <trkpt lat="48.36512" lon="2.75268">
        <ele>108</ele>
        <time>2021-09-30T12:31:04Z</time>
      </trkpt>
      <trkpt lat="48.36511" lon="2.75262">
        <ele>108.19999694824</ele>
        <time>2021-09-30T12:31:09Z</time>
      </trkpt>
      <trkpt lat="48.36512" lon="2.75255">
        <ele>108.80000305176</ele>
        <time>2021-09-30T12:31:14Z</time>
      </trkpt>
      <trkpt lat="48.36513" lon="2.75246">
        <ele>109.40000152588</ele>
        <time>2021-09-30T12:31:19Z</time>
      </trkpt>
      <trkpt lat="48.36513" lon="2.75238">
        <ele>109.80000305176</ele>
        <time>2021-09-30T12:31:24Z</time>
      </trkpt>
      <trkpt lat="48.36515" lon="2.75231">
        <ele>110.59999847412</ele>
        <time>2021-09-30T12:31:29Z</time>
      </trkpt>
      <trkpt lat="48.36516" lon="2.75225">
        <ele>111.19999694824</ele>
        <time>2021-09-30T12:31:34Z</time>
      </trkpt>
      <trkpt lat="48.36518" lon="2.75218">
        <ele>112</ele>
        <time>2021-09-30T12:31:39Z</time>
      </trkpt>
      <trkpt lat="48.36521" lon="2.75209">
        <ele>112.40000152588</ele>
        <time>2021-09-30T12:31:44Z</time>
      </trkpt>
      <trkpt lat="48.36523" lon="2.75201">
        <ele>112.80000305176</ele>
        <time>2021-09-30T12:31:49Z</time>
      </trkpt>
      <trkpt lat="48.36523" lon="2.75193">
        <ele>113.19999694824</ele>
        <time>2021-09-30T12:31:54Z</time>
      </trkpt>
      <trkpt lat="48.36524" lon="2.75186">
        <ele>114</ele>
        <time>2021-09-30T12:31:59Z</time>
      </trkpt>
      <trkpt lat="48.36524" lon="2.75178">
        <ele>114.80000305176</ele>
        <time>2021-09-30T12:32:04Z</time>
      </trkpt>
      <trkpt lat="48.36525" lon="2.7517">
        <ele>115.19999694824</ele>
        <time>2021-09-30T12:32:09Z</time>
      </trkpt>
      <trkpt lat="48.36527" lon="2.75163">
        <ele>115.59999847412</ele>
        <time>2021-09-30T12:32:14Z</time>
      </trkpt>
      <trkpt lat="48.36527" lon="2.75156">
        <ele>116</ele>
        <time>2021-09-30T12:32:19Z</time>
      </trkpt>
      <trkpt lat="48.36527" lon="2.7515">
        <ele>116.59999847412</ele>
        <time>2021-09-30T12:32:24Z</time>
      </trkpt>
      <trkpt lat="48.36528" lon="2.75143">
        <ele>117.19999694824</ele>
        <time>2021-09-30T12:32:29Z</time>
      </trkpt>
      <trkpt lat="48.3653" lon="2.75136">
        <ele>117.59999847412</ele>
        <time>2021-09-30T12:32:34Z</time>
      </trkpt>
      <trkpt lat="48.36532" lon="2.75128">
        <ele>118.19999694824</ele>
        <time>2021-09-30T12:32:39Z</time>
      </trkpt>
      <trkpt lat="48.36534" lon="2.75122">
        <ele>118.80000305176</ele>
        <time>2021-09-30T12:32:44Z</time>
      </trkpt>
      <trkpt lat="48.36534" lon="2.75113">
        <ele>119.59999847412</ele>
        <time>2021-09-30T12:32:49Z</time>
      </trkpt>
      <trkpt lat="48.36535" lon="2.75106">
        <ele>119.59999847412</ele>
        <time>2021-09-30T12:32:54Z</time>
      </trkpt>
      <trkpt lat="48.36537" lon="2.751">
        <ele>119.40000152588</ele>
        <time>2021-09-30T12:32:59Z</time>
      </trkpt>
      <trkpt lat="48.36537" lon="2.75093">
        <ele>119.19999694824</ele>
        <time>2021-09-30T12:33:04Z</time>
      </trkpt>
      <trkpt lat="48.36539" lon="2.75085">
        <ele>119</ele>
        <time>2021-09-30T12:33:09Z</time>
      </trkpt>
      <trkpt lat="48.3654" lon="2.75077">
        <ele>118.80000305176</ele>
        <time>2021-09-30T12:33:14Z</time>
      </trkpt>
      <trkpt lat="48.36541" lon="2.75071">
        <ele>118.40000152588</ele>
        <time>2021-09-30T12:33:19Z</time>
      </trkpt>
      <trkpt lat="48.36541" lon="2.75064">
        <ele>118.19999694824</ele>
        <time>2021-09-30T12:33:24Z</time>
      </trkpt>
      <trkpt lat="48.36541" lon="2.75055">
        <ele>118.19999694824</ele>
        <time>2021-09-30T12:33:29Z</time>
      </trkpt>
      <trkpt lat="48.36541" lon="2.75046">
        <ele>117.80000305176</ele>
        <time>2021-09-30T12:33:34Z</time>
      </trkpt>
      <trkpt lat="48.36545" lon="2.75037">
        <ele>117.59999847412</ele>
        <time>2021-09-30T12:33:39Z</time>
      </trkpt>
      <trkpt lat="48.36546" lon="2.75029">
        <ele>117.19999694824</ele>
        <time>2021-09-30T12:33:44Z</time>
      </trkpt>
      <trkpt lat="48.36547" lon="2.75022">
        <ele>116.80000305176</ele>
        <time>2021-09-30T12:33:49Z</time>
      </trkpt>
      <trkpt lat="48.3655" lon="2.75015">
        <ele>116.40000152588</ele>
        <time>2021-09-30T12:33:54Z</time>
      </trkpt>
      <trkpt lat="48.36552" lon="2.75006">
        <ele>116.19999694824</ele>
        <time>2021-09-30T12:33:59Z</time>
      </trkpt>
      <trkpt lat="48.36553" lon="2.74998">
        <ele>115.80000305176</ele>
        <time>2021-09-30T12:34:04Z</time>
      </trkpt>
      <trkpt lat="48.36555" lon="2.74989">
        <ele>115.40000152588</ele>
        <time>2021-09-30T12:34:09Z</time>
      </trkpt>
      <trkpt lat="48.36554" lon="2.74981">
        <ele>115</ele>
        <time>2021-09-30T12:34:14Z</time>
      </trkpt>
      <trkpt lat="48.36554" lon="2.74973">
        <ele>114.59999847412</ele>
        <time>2021-09-30T12:34:19Z</time>
      </trkpt>
      <trkpt lat="48.36556" lon="2.74965">
        <ele>114.40000152588</ele>
        <time>2021-09-30T12:34:24Z</time>
      </trkpt>
      <trkpt lat="48.36557" lon="2.74959">
        <ele>114.19999694824</ele>
        <time>2021-09-30T12:34:29Z</time>
      </trkpt>
      <trkpt lat="48.36558" lon="2.74952">
        <ele>114.19999694824</ele>
        <time>2021-09-30T12:34:34Z</time>
      </trkpt>
      <trkpt lat="48.3656" lon="2.74944">
        <ele>114</ele>
        <time>2021-09-30T12:34:39Z</time>
      </trkpt>
      <trkpt lat="48.36561" lon="2.74932">
        <ele>113.59999847412</ele>
        <time>2021-09-30T12:34:44Z</time>
      </trkpt>
      <trkpt lat="48.36562" lon="2.74923">
        <ele>113.40000152588</ele>
        <time>2021-09-30T12:34:49Z</time>
      </trkpt>
      <trkpt lat="48.36565" lon="2.74915">
        <ele>113.19999694824</ele>
        <time>2021-09-30T12:34:54Z</time>
      </trkpt>
      <trkpt lat="48.36567" lon="2.74907">
        <ele>113</ele>
        <time>2021-09-30T12:34:59Z</time>
      </trkpt>
      <trkpt lat="48.36568" lon="2.74901">
        <ele>112.80000305176</ele>
        <time>2021-09-30T12:35:04Z</time>
      </trkpt>
      <trkpt lat="48.3657" lon="2.74892">
        <ele>112.40000152588</ele>
        <time>2021-09-30T12:35:09Z</time>
      </trkpt>
      <trkpt lat="48.36572" lon="2.74884">
        <ele>111.80000305176</ele>
        <time>2021-09-30T12:35:14Z</time>
      </trkpt>
      <trkpt lat="48.36573" lon="2.74875">
        <ele>111.80000305176</ele>
        <time>2021-09-30T12:35:19Z</time>
      </trkpt>
      <trkpt lat="48.36573" lon="2.74865">
        <ele>111.40000152588</ele>
        <time>2021-09-30T12:35:24Z</time>
      </trkpt>
      <trkpt lat="48.36574" lon="2.74859">
        <ele>111.40000152588</ele>
        <time>2021-09-30T12:35:29Z</time>
      </trkpt>
      <trkpt lat="48.36575" lon="2.7485">
        <ele>111</ele>
        <time>2021-09-30T12:35:34Z</time>
      </trkpt>
      <trkpt lat="48.36577" lon="2.7484">
        <ele>110.59999847412</ele>
        <time>2021-09-30T12:35:39Z</time>
      </trkpt>
      <trkpt lat="48.36577" lon="2.74829">
        <ele>110.40000152588</ele>
        <time>2021-09-30T12:35:44Z</time>
      </trkpt>
      <trkpt lat="48.36578" lon="2.74822">
        <ele>110</ele>
        <time>2021-09-30T12:35:49Z</time>
      </trkpt>
      <trkpt lat="48.36577" lon="2.74815">
        <ele>109.80000305176</ele>
        <time>2021-09-30T12:35:54Z</time>
      </trkpt>
      <trkpt lat="48.36578" lon="2.74807">
        <ele>110</ele>
        <time>2021-09-30T12:35:59Z</time>
      </trkpt>
      <trkpt lat="48.36579" lon="2.74799">
        <ele>109.59999847412</ele>
        <time>2021-09-30T12:36:04Z</time>
      </trkpt>
      <trkpt lat="48.36581" lon="2.74789">
        <ele>109.40000152588</ele>
        <time>2021-09-30T12:36:09Z</time>
      </trkpt>
      <trkpt lat="48.36584" lon="2.7478">
        <ele>109.40000152588</ele>
        <time>2021-09-30T12:36:14Z</time>
      </trkpt>
      <trkpt lat="48.36587" lon="2.74773">
        <ele>109.40000152588</ele>
        <time>2021-09-30T12:36:19Z</time>
      </trkpt>
      <trkpt lat="48.36589" lon="2.74764">
        <ele>109.40000152588</ele>
        <time>2021-09-30T12:36:24Z</time>
      </trkpt>
      <trkpt lat="48.3659" lon="2.74757">
        <ele>109.19999694824</ele>
        <time>2021-09-30T12:36:29Z</time>
      </trkpt>
      <trkpt lat="48.36591" lon="2.7475">
        <ele>109.19999694824</ele>
        <time>2021-09-30T12:36:34Z</time>
      </trkpt>
      <trkpt lat="48.36593" lon="2.74742">
        <ele>109</ele>
        <time>2021-09-30T12:36:39Z</time>
      </trkpt>
      <trkpt lat="48.36593" lon="2.74732">
        <ele>108.80000305176</ele>
        <time>2021-09-30T12:36:44Z</time>
      </trkpt>
      <trkpt lat="48.36595" lon="2.74723">
        <ele>108.80000305176</ele>
        <time>2021-09-30T12:36:49Z</time>
      </trkpt>
      <trkpt lat="48.36597" lon="2.74714">
        <ele>108.80000305176</ele>
        <time>2021-09-30T12:36:54Z</time>
      </trkpt>
      <trkpt lat="48.36599" lon="2.74705">
        <ele>108.59999847412</ele>
        <time>2021-09-30T12:36:59Z</time>
      </trkpt>
      <trkpt lat="48.366" lon="2.74697">
        <ele>108.40000152588</ele>
        <time>2021-09-30T12:37:04Z</time>
      </trkpt>
      <trkpt lat="48.36602" lon="2.74689">
        <ele>108.19999694824</ele>
        <time>2021-09-30T12:37:09Z</time>
      </trkpt>
      <trkpt lat="48.36602" lon="2.74681">
        <ele>108.19999694824</ele>
        <time>2021-09-30T12:37:14Z</time>
      </trkpt>
      <trkpt lat="48.36602" lon="2.74672">
        <ele>108.19999694824</ele>
        <time>2021-09-30T12:37:19Z</time>
      </trkpt>
      <trkpt lat="48.36604" lon="2.74664">
        <ele>108.19999694824</ele>
        <time>2021-09-30T12:37:24Z</time>
      </trkpt>
      <trkpt lat="48.36605" lon="2.74655">
        <ele>108.19999694824</ele>
        <time>2021-09-30T12:37:29Z</time>
      </trkpt>
      <trkpt lat="48.36606" lon="2.74646">
        <ele>108</ele>
        <time>2021-09-30T12:37:34Z</time>
      </trkpt>
      <trkpt lat="48.36607" lon="2.74638">
        <ele>108</ele>
        <time>2021-09-30T12:37:39Z</time>
      </trkpt>
      <trkpt lat="48.36607" lon="2.7463">
        <ele>108</ele>
        <time>2021-09-30T12:37:44Z</time>
      </trkpt>
      <trkpt lat="48.36607" lon="2.74621">
        <ele>108</ele>
        <time>2021-09-30T12:37:49Z</time>
      </trkpt>
      <trkpt lat="48.3661" lon="2.74615">
        <ele>108</ele>
        <time>2021-09-30T12:37:54Z</time>
      </trkpt>
      <trkpt lat="48.36611" lon="2.74609">
        <ele>108</ele>
        <time>2021-09-30T12:37:59Z</time>
      </trkpt>
      <trkpt lat="48.36613" lon="2.74601">
        <ele>108</ele>
        <time>2021-09-30T12:38:04Z</time>
      </trkpt>
      <trkpt lat="48.36615" lon="2.74594">
        <ele>107.80000305176</ele>
        <time>2021-09-30T12:38:09Z</time>
      </trkpt>
      <trkpt lat="48.36618" lon="2.74586">
        <ele>107.59999847412</ele>
        <time>2021-09-30T12:38:14Z</time>
      </trkpt>
      <trkpt lat="48.3662" lon="2.74576">
        <ele>107.80000305176</ele>
        <time>2021-09-30T12:38:19Z</time>
      </trkpt>
      <trkpt lat="48.36623" lon="2.74568">
        <ele>107.80000305176</ele>
        <time>2021-09-30T12:38:24Z</time>
      </trkpt>
      <trkpt lat="48.36625" lon="2.74559">
        <ele>107.80000305176</ele>
        <time>2021-09-30T12:38:29Z</time>
      </trkpt>
      <trkpt lat="48.36625" lon="2.74551">
        <ele>107.80000305176</ele>
        <time>2021-09-30T12:38:34Z</time>
      </trkpt>
      <trkpt lat="48.36627" lon="2.74544">
        <ele>107.59999847412</ele>
        <time>2021-09-30T12:38:39Z</time>
      </trkpt>
      <trkpt lat="48.36628" lon="2.74538">
        <ele>107.59999847412</ele>
        <time>2021-09-30T12:38:44Z</time>
      </trkpt>
      <trkpt lat="48.36629" lon="2.74529">
        <ele>108</ele>
        <time>2021-09-30T12:38:49Z</time>
      </trkpt>
      <trkpt lat="48.36631" lon="2.74521">
        <ele>108</ele>
        <time>2021-09-30T12:38:54Z</time>
      </trkpt>
      <trkpt lat="48.36633" lon="2.74513">
        <ele>108</ele>
        <time>2021-09-30T12:38:59Z</time>
      </trkpt>
      <trkpt lat="48.36634" lon="2.74501">
        <ele>108</ele>
        <time>2021-09-30T12:39:05Z</time>
      </trkpt>
      <trkpt lat="48.36636" lon="2.74492">
        <ele>108.19999694824</ele>
        <time>2021-09-30T12:39:10Z</time>
      </trkpt>
      <trkpt lat="48.36636" lon="2.74482">
        <ele>108.19999694824</ele>
        <time>2021-09-30T12:39:15Z</time>
      </trkpt>
      <trkpt lat="48.36636" lon="2.74472">
        <ele>107.59999847412</ele>
        <time>2021-09-30T12:39:20Z</time>
      </trkpt>
      <trkpt lat="48.36636" lon="2.74463">
        <ele>107.40000152588</ele>
        <time>2021-09-30T12:39:25Z</time>
      </trkpt>
      <trkpt lat="48.36637" lon="2.74454">
        <ele>107.40000152588</ele>
        <time>2021-09-30T12:39:30Z</time>
      </trkpt>
      <trkpt lat="48.36636" lon="2.74445">
        <ele>107.59999847412</ele>
        <time>2021-09-30T12:39:35Z</time>
      </trkpt>
      <trkpt lat="48.36636" lon="2.74437">
        <ele>107.80000305176</ele>
        <time>2021-09-30T12:39:40Z</time>
      </trkpt>
      <trkpt lat="48.36637" lon="2.74429">
        <ele>107.59999847412</ele>
        <time>2021-09-30T12:39:44Z</time>
      </trkpt>
      <trkpt lat="48.36639" lon="2.74417">
        <ele>107.80000305176</ele>
        <time>2021-09-30T12:39:50Z</time>
      </trkpt>
      <trkpt lat="48.36641" lon="2.7441">
        <ele>107.80000305176</ele>
        <time>2021-09-30T12:39:55Z</time>
      </trkpt>
      <trkpt lat="48.36642" lon="2.744">
        <ele>107.59999847412</ele>
        <time>2021-09-30T12:40:00Z</time>
      </trkpt>
      <trkpt lat="48.36644" lon="2.74393">
        <ele>107.59999847412</ele>
        <time>2021-09-30T12:40:05Z</time>
      </trkpt>
      <trkpt lat="48.36646" lon="2.74385">
        <ele>107.59999847412</ele>
        <time>2021-09-30T12:40:10Z</time>
      </trkpt>
      <trkpt lat="48.36649" lon="2.74375">
        <ele>107.59999847412</ele>
        <time>2021-09-30T12:40:15Z</time>
      </trkpt>
      <trkpt lat="48.3665" lon="2.74367">
        <ele>107.59999847412</ele>
        <time>2021-09-30T12:40:20Z</time>
      </trkpt>
      <trkpt lat="48.36651" lon="2.74356">
        <ele>107.40000152588</ele>
        <time>2021-09-30T12:40:25Z</time>
      </trkpt>
      <trkpt lat="48.36653" lon="2.74348">
        <ele>107.59999847412</ele>
        <time>2021-09-30T12:40:30Z</time>
      </trkpt>
      <trkpt lat="48.36655" lon="2.74341">
        <ele>107.59999847412</ele>
        <time>2021-09-30T12:40:35Z</time>
      </trkpt>
      <trkpt lat="48.36657" lon="2.74335">
        <ele>107.80000305176</ele>
        <time>2021-09-30T12:40:40Z</time>
      </trkpt>
      <trkpt lat="48.36657" lon="2.74324">
        <ele>107.59999847412</ele>
        <time>2021-09-30T12:40:45Z</time>
      </trkpt>
      <trkpt lat="48.36659" lon="2.74317">
        <ele>107.80000305176</ele>
        <time>2021-09-30T12:40:50Z</time>
      </trkpt>
      <trkpt lat="48.36661" lon="2.74309">
        <ele>107.80000305176</ele>
        <time>2021-09-30T12:40:55Z</time>
      </trkpt>
      <trkpt lat="48.3666" lon="2.743">
        <ele>108.19999694824</ele>
        <time>2021-09-30T12:41:00Z</time>
      </trkpt>
      <trkpt lat="48.36661" lon="2.74291">
        <ele>108.59999847412</ele>
        <time>2021-09-30T12:41:05Z</time>
      </trkpt>
      <trkpt lat="48.36662" lon="2.74284">
        <ele>108.80000305176</ele>
        <time>2021-09-30T12:41:10Z</time>
      </trkpt>
      <trkpt lat="48.36663" lon="2.74276">
        <ele>108.80000305176</ele>
        <time>2021-09-30T12:41:15Z</time>
      </trkpt>
      <trkpt lat="48.36665" lon="2.74268">
        <ele>108.80000305176</ele>
        <time>2021-09-30T12:41:20Z</time>
      </trkpt>
      <trkpt lat="48.36666" lon="2.7426">
        <ele>108.80000305176</ele>
        <time>2021-09-30T12:41:25Z</time>
      </trkpt>
      <trkpt lat="48.36667" lon="2.74251">
        <ele>108.80000305176</ele>
        <time>2021-09-30T12:41:30Z</time>
      </trkpt>
      <trkpt lat="48.36668" lon="2.74242">
        <ele>108.80000305176</ele>
        <time>2021-09-30T12:41:35Z</time>
      </trkpt>
      <trkpt lat="48.3667" lon="2.74234">
        <ele>109</ele>
        <time>2021-09-30T12:41:40Z</time>
      </trkpt>
      <trkpt lat="48.36672" lon="2.74225">
        <ele>109</ele>
        <time>2021-09-30T12:41:45Z</time>
      </trkpt>
      <trkpt lat="48.36674" lon="2.74217">
        <ele>109.19999694824</ele>
        <time>2021-09-30T12:41:50Z</time>
      </trkpt>
      <trkpt lat="48.36675" lon="2.74211">
        <ele>109</ele>
        <time>2021-09-30T12:41:55Z</time>
      </trkpt>
      <trkpt lat="48.36677" lon="2.74203">
        <ele>109</ele>
        <time>2021-09-30T12:42:00Z</time>
      </trkpt>
      <trkpt lat="48.3668" lon="2.74195">
        <ele>109.19999694824</ele>
        <time>2021-09-30T12:42:05Z</time>
      </trkpt>
      <trkpt lat="48.36683" lon="2.74189">
        <ele>109.19999694824</ele>
        <time>2021-09-30T12:42:10Z</time>
      </trkpt>
      <trkpt lat="48.36684" lon="2.74182">
        <ele>109.40000152588</ele>
        <time>2021-09-30T12:42:15Z</time>
      </trkpt>
      <trkpt lat="48.36685" lon="2.74173">
        <ele>109.59999847412</ele>
        <time>2021-09-30T12:42:20Z</time>
      </trkpt>
      <trkpt lat="48.36685" lon="2.74168">
        <ele>109.59999847412</ele>
        <time>2021-09-30T12:42:25Z</time>
      </trkpt>
      <trkpt lat="48.36685" lon="2.74159">
        <ele>109.80000305176</ele>
        <time>2021-09-30T12:42:30Z</time>
      </trkpt>
      <trkpt lat="48.36687" lon="2.74152">
        <ele>109.80000305176</ele>
        <time>2021-09-30T12:42:35Z</time>
      </trkpt>
      <trkpt lat="48.36689" lon="2.74144">
        <ele>110</ele>
        <time>2021-09-30T12:42:40Z</time>
      </trkpt>
      <trkpt lat="48.36689" lon="2.74134">
        <ele>110</ele>
        <time>2021-09-30T12:42:45Z</time>
      </trkpt>
      <trkpt lat="48.36688" lon="2.74123">
        <ele>109.59999847412</ele>
        <time>2021-09-30T12:42:50Z</time>
      </trkpt>
      <trkpt lat="48.3669" lon="2.74113">
        <ele>109.19999694824</ele>
        <time>2021-09-30T12:42:55Z</time>
      </trkpt>
      <trkpt lat="48.36691" lon="2.74104">
        <ele>109.19999694824</ele>
        <time>2021-09-30T12:43:00Z</time>
      </trkpt>
      <trkpt lat="48.36692" lon="2.74094">
        <ele>109</ele>
        <time>2021-09-30T12:43:05Z</time>
      </trkpt>
      <trkpt lat="48.36692" lon="2.74087">
        <ele>109</ele>
        <time>2021-09-30T12:43:10Z</time>
      </trkpt>
      <trkpt lat="48.36693" lon="2.74079">
        <ele>108.80000305176</ele>
        <time>2021-09-30T12:43:15Z</time>
      </trkpt>
      <trkpt lat="48.36695" lon="2.7407">
        <ele>109</ele>
        <time>2021-09-30T12:43:20Z</time>
      </trkpt>
      <trkpt lat="48.36696" lon="2.74058">
        <ele>109</ele>
        <time>2021-09-30T12:43:25Z</time>
      </trkpt>
      <trkpt lat="48.36698" lon="2.74051">
        <ele>109.19999694824</ele>
        <time>2021-09-30T12:43:30Z</time>
      </trkpt>
      <trkpt lat="48.36699" lon="2.74043">
        <ele>109.40000152588</ele>
        <time>2021-09-30T12:43:35Z</time>
      </trkpt>
      <trkpt lat="48.36701" lon="2.74035">
        <ele>109.59999847412</ele>
        <time>2021-09-30T12:43:40Z</time>
      </trkpt>
      <trkpt lat="48.36702" lon="2.74026">
        <ele>109.80000305176</ele>
        <time>2021-09-30T12:43:45Z</time>
      </trkpt>
      <trkpt lat="48.36703" lon="2.74018">
        <ele>110</ele>
        <time>2021-09-30T12:43:50Z</time>
      </trkpt>
      <trkpt lat="48.36703" lon="2.74009">
        <ele>110.19999694824</ele>
        <time>2021-09-30T12:43:55Z</time>
      </trkpt>
      <trkpt lat="48.36704" lon="2.74001">
        <ele>110.19999694824</ele>
        <time>2021-09-30T12:44:00Z</time>
      </trkpt>
      <trkpt lat="48.36704" lon="2.73992">
        <ele>110.19999694824</ele>
        <time>2021-09-30T12:44:05Z</time>
      </trkpt>
      <trkpt lat="48.36703" lon="2.73984">
        <ele>110.19999694824</ele>
        <time>2021-09-30T12:44:10Z</time>
      </trkpt>
      <trkpt lat="48.36705" lon="2.73976">
        <ele>110</ele>
        <time>2021-09-30T12:44:15Z</time>
      </trkpt>
      <trkpt lat="48.36709" lon="2.73967">
        <ele>110</ele>
        <time>2021-09-30T12:44:20Z</time>
      </trkpt>
      <trkpt lat="48.36713" lon="2.73959">
        <ele>110</ele>
        <time>2021-09-30T12:44:25Z</time>
      </trkpt>
      <trkpt lat="48.36715" lon="2.73952">
        <ele>109.80000305176</ele>
        <time>2021-09-30T12:44:30Z</time>
      </trkpt>
      <trkpt lat="48.36715" lon="2.73945">
        <ele>109.80000305176</ele>
        <time>2021-09-30T12:44:35Z</time>
      </trkpt>
      <trkpt lat="48.36717" lon="2.73938">
        <ele>110</ele>
        <time>2021-09-30T12:44:40Z</time>
      </trkpt>
      <trkpt lat="48.36718" lon="2.7393">
        <ele>110.19999694824</ele>
        <time>2021-09-30T12:44:45Z</time>
      </trkpt>
      <trkpt lat="48.36721" lon="2.73918">
        <ele>110.19999694824</ele>
        <time>2021-09-30T12:44:50Z</time>
      </trkpt>
      <trkpt lat="48.36724" lon="2.7391">
        <ele>110.40000152588</ele>
        <time>2021-09-30T12:44:55Z</time>
      </trkpt>
      <trkpt lat="48.36724" lon="2.73903">
        <ele>110.59999847412</ele>
        <time>2021-09-30T12:45:00Z</time>
      </trkpt>
      <trkpt lat="48.36723" lon="2.73893">
        <ele>111</ele>
        <time>2021-09-30T12:45:05Z</time>
      </trkpt>
      <trkpt lat="48.36724" lon="2.73884">
        <ele>111.40000152588</ele>
        <time>2021-09-30T12:45:10Z</time>
      </trkpt>
      <trkpt lat="48.36726" lon="2.73878">
        <ele>111.59999847412</ele>
        <time>2021-09-30T12:45:15Z</time>
      </trkpt>
      <trkpt lat="48.36731" lon="2.73871">
        <ele>111.80000305176</ele>
        <time>2021-09-30T12:45:20Z</time>
      </trkpt>
      <trkpt lat="48.36733" lon="2.73864">
        <ele>112</ele>
        <time>2021-09-30T12:45:25Z</time>
      </trkpt>
      <trkpt lat="48.36732" lon="2.73853">
        <ele>112.19999694824</ele>
        <time>2021-09-30T12:45:30Z</time>
      </trkpt>
      <trkpt lat="48.36732" lon="2.73844">
        <ele>112.19999694824</ele>
        <time>2021-09-30T12:45:35Z</time>
      </trkpt>
      <trkpt lat="48.36731" lon="2.73836">
        <ele>112.19999694824</ele>
        <time>2021-09-30T12:45:40Z</time>
      </trkpt>
      <trkpt lat="48.36732" lon="2.73829">
        <ele>112.19999694824</ele>
        <time>2021-09-30T12:45:45Z</time>
      </trkpt>
      <trkpt lat="48.36734" lon="2.73821">
        <ele>112.40000152588</ele>
        <time>2021-09-30T12:45:50Z</time>
      </trkpt>
      <trkpt lat="48.36736" lon="2.73811">
        <ele>112.59999847412</ele>
        <time>2021-09-30T12:45:55Z</time>
      </trkpt>
      <trkpt lat="48.36736" lon="2.73803">
        <ele>112.40000152588</ele>
        <time>2021-09-30T12:46:00Z</time>
      </trkpt>
      <trkpt lat="48.36738" lon="2.73795">
        <ele>112.19999694824</ele>
        <time>2021-09-30T12:46:05Z</time>
      </trkpt>
      <trkpt lat="48.36739" lon="2.73788">
        <ele>112</ele>
        <time>2021-09-30T12:46:10Z</time>
      </trkpt>
      <trkpt lat="48.36738" lon="2.73781">
        <ele>111.80000305176</ele>
        <time>2021-09-30T12:46:15Z</time>
      </trkpt>
      <trkpt lat="48.3674" lon="2.73772">
        <ele>112</ele>
        <time>2021-09-30T12:46:20Z</time>
      </trkpt>
      <trkpt lat="48.36742" lon="2.73763">
        <ele>112</ele>
        <time>2021-09-30T12:46:25Z</time>
      </trkpt>
      <trkpt lat="48.36741" lon="2.73756">
        <ele>112.19999694824</ele>
        <time>2021-09-30T12:46:30Z</time>
      </trkpt>
      <trkpt lat="48.36742" lon="2.73752">
        <ele>112.40000152588</ele>
        <time>2021-09-30T12:46:35Z</time>
      </trkpt>
      <trkpt lat="48.36744" lon="2.73744">
        <ele>112.19999694824</ele>
        <time>2021-09-30T12:46:40Z</time>
      </trkpt>
      <trkpt lat="48.36746" lon="2.73737">
        <ele>111.59999847412</ele>
        <time>2021-09-30T12:46:45Z</time>
      </trkpt>
      <trkpt lat="48.36747" lon="2.73727">
        <ele>110.80000305176</ele>
        <time>2021-09-30T12:46:50Z</time>
      </trkpt>
      <trkpt lat="48.3675" lon="2.73718">
        <ele>110.40000152588</ele>
        <time>2021-09-30T12:46:55Z</time>
      </trkpt>
      <trkpt lat="48.36752" lon="2.73708">
        <ele>109.80000305176</ele>
        <time>2021-09-30T12:47:00Z</time>
      </trkpt>
      <trkpt lat="48.36751" lon="2.73701">
        <ele>109.40000152588</ele>
        <time>2021-09-30T12:47:05Z</time>
      </trkpt>
      <trkpt lat="48.36752" lon="2.73693">
        <ele>109.40000152588</ele>
        <time>2021-09-30T12:47:10Z</time>
      </trkpt>
      <trkpt lat="48.3675" lon="2.73686">
        <ele>109</ele>
        <time>2021-09-30T12:47:15Z</time>
      </trkpt>
      <trkpt lat="48.36751" lon="2.73678">
        <ele>108.80000305176</ele>
        <time>2021-09-30T12:47:20Z</time>
      </trkpt>
      <trkpt lat="48.36752" lon="2.73667">
        <ele>108.59999847412</ele>
        <time>2021-09-30T12:47:25Z</time>
      </trkpt>
      <trkpt lat="48.36753" lon="2.73656">
        <ele>108.40000152588</ele>
        <time>2021-09-30T12:47:30Z</time>
      </trkpt>
      <trkpt lat="48.36752" lon="2.73647">
        <ele>108.19999694824</ele>
        <time>2021-09-30T12:47:35Z</time>
      </trkpt>
      <trkpt lat="48.36749" lon="2.73637">
        <ele>108</ele>
        <time>2021-09-30T12:47:40Z</time>
      </trkpt>
      <trkpt lat="48.36751" lon="2.73627">
        <ele>107.59999847412</ele>
        <time>2021-09-30T12:47:45Z</time>
      </trkpt>
      <trkpt lat="48.36751" lon="2.73619">
        <ele>107.19999694824</ele>
        <time>2021-09-30T12:47:50Z</time>
      </trkpt>
      <trkpt lat="48.36754" lon="2.73611">
        <ele>107</ele>
        <time>2021-09-30T12:47:55Z</time>
      </trkpt>
      <trkpt lat="48.36757" lon="2.73604">
        <ele>106.59999847412</ele>
        <time>2021-09-30T12:48:00Z</time>
      </trkpt>
      <trkpt lat="48.3676" lon="2.73596">
        <ele>106.40000152588</ele>
        <time>2021-09-30T12:48:05Z</time>
      </trkpt>
      <trkpt lat="48.36762" lon="2.73587">
        <ele>106.19999694824</ele>
        <time>2021-09-30T12:48:10Z</time>
      </trkpt>
      <trkpt lat="48.36762" lon="2.7358">
        <ele>106</ele>
        <time>2021-09-30T12:48:15Z</time>
      </trkpt>
      <trkpt lat="48.36763" lon="2.73573">
        <ele>106</ele>
        <time>2021-09-30T12:48:20Z</time>
      </trkpt>
      <trkpt lat="48.36763" lon="2.73566">
        <ele>105.59999847412</ele>
        <time>2021-09-30T12:48:25Z</time>
      </trkpt>
      <trkpt lat="48.36765" lon="2.73557">
        <ele>105.59999847412</ele>
        <time>2021-09-30T12:48:30Z</time>
      </trkpt>
      <trkpt lat="48.36764" lon="2.73547">
        <ele>105.19999694824</ele>
        <time>2021-09-30T12:48:35Z</time>
      </trkpt>
      <trkpt lat="48.36764" lon="2.73541">
        <ele>105.19999694824</ele>
        <time>2021-09-30T12:48:40Z</time>
      </trkpt>
      <trkpt lat="48.36765" lon="2.73534">
        <ele>105</ele>
        <time>2021-09-30T12:48:45Z</time>
      </trkpt>
      <trkpt lat="48.36764" lon="2.73527">
        <ele>104.80000305176</ele>
        <time>2021-09-30T12:48:50Z</time>
      </trkpt>
      <trkpt lat="48.36763" lon="2.73526">
        <ele>104.59999847412</ele>
        <time>2021-09-30T12:48:55Z</time>
      </trkpt>
      <trkpt lat="48.36764" lon="2.73526">
        <ele>104.59999847412</ele>
        <time>2021-09-30T12:49:00Z</time>
      </trkpt>
      <trkpt lat="48.36764" lon="2.73526">
        <ele>104.59999847412</ele>
        <time>2021-09-30T12:49:05Z</time>
      </trkpt>
      <trkpt lat="48.36765" lon="2.73526">
        <ele>104.59999847412</ele>
        <time>2021-09-30T12:49:10Z</time>
      </trkpt>
      <trkpt lat="48.36766" lon="2.73526">
        <ele>104.59999847412</ele>
        <time>2021-09-30T12:49:15Z</time>
      </trkpt>
      <trkpt lat="48.36766" lon="2.73525">
        <ele>104.59999847412</ele>
        <time>2021-09-30T12:49:20Z</time>
      </trkpt>
      <trkpt lat="48.36767" lon="2.73526">
        <ele>104.59999847412</ele>
        <time>2021-09-30T12:49:25Z</time>
      </trkpt>
      <trkpt lat="48.36768" lon="2.73527">
        <ele>104.59999847412</ele>
        <time>2021-09-30T12:49:30Z</time>
      </trkpt>
      <trkpt lat="48.36769" lon="2.73527">
        <ele>104.59999847412</ele>
        <time>2021-09-30T12:49:35Z</time>
      </trkpt>
      <trkpt lat="48.3677" lon="2.73523">
        <ele>104.59999847412</ele>
        <time>2021-09-30T12:49:40Z</time>
      </trkpt>
      <trkpt lat="48.36771" lon="2.73519">
        <ele>104.59999847412</ele>
        <time>2021-09-30T12:49:45Z</time>
      </trkpt>
      <trkpt lat="48.36775" lon="2.73523">
        <ele>104.40000152588</ele>
        <time>2021-09-30T12:49:50Z</time>
      </trkpt>
      <trkpt lat="48.36776" lon="2.73523">
        <ele>104.40000152588</ele>
        <time>2021-09-30T12:49:55Z</time>
      </trkpt>
      <trkpt lat="48.36777" lon="2.73522">
        <ele>104.40000152588</ele>
        <time>2021-09-30T12:50:00Z</time>
      </trkpt>
      <trkpt lat="48.36778" lon="2.73523">
        <ele>104.40000152588</ele>
        <time>2021-09-30T12:50:05Z</time>
      </trkpt>
      <trkpt lat="48.36778" lon="2.73523">
        <ele>104.40000152588</ele>
        <time>2021-09-30T12:50:10Z</time>
      </trkpt>
      <trkpt lat="48.36777" lon="2.73522">
        <ele>104.40000152588</ele>
        <time>2021-09-30T12:50:15Z</time>
      </trkpt>
      <trkpt lat="48.36776" lon="2.7352">
        <ele>104.40000152588</ele>
        <time>2021-09-30T12:50:20Z</time>
      </trkpt>
      <trkpt lat="48.36774" lon="2.7352">
        <ele>104.40000152588</ele>
        <time>2021-09-30T12:50:25Z</time>
      </trkpt>
      <trkpt lat="48.36774" lon="2.73522">
        <ele>104.40000152588</ele>
        <time>2021-09-30T12:50:30Z</time>
      </trkpt>
      <trkpt lat="48.36774" lon="2.73525">
        <ele>104.40000152588</ele>
        <time>2021-09-30T12:50:35Z</time>
      </trkpt>
      <trkpt lat="48.36773" lon="2.73526">
        <ele>104.40000152588</ele>
        <time>2021-09-30T12:50:40Z</time>
      </trkpt>
      <trkpt lat="48.36772" lon="2.73526">
        <ele>104.40000152588</ele>
        <time>2021-09-30T12:50:45Z</time>
      </trkpt>
      <trkpt lat="48.36771" lon="2.73525">
        <ele>104.40000152588</ele>
        <time>2021-09-30T12:50:50Z</time>
      </trkpt>
      <trkpt lat="48.36771" lon="2.73525">
        <ele>104.40000152588</ele>
        <time>2021-09-30T12:50:55Z</time>
      </trkpt>
      <trkpt lat="48.36771" lon="2.73525">
        <ele>104.40000152588</ele>
        <time>2021-09-30T12:51:00Z</time>
      </trkpt>
      <trkpt lat="48.36772" lon="2.73525">
        <ele>104.40000152588</ele>
        <time>2021-09-30T12:51:05Z</time>
      </trkpt>
      <trkpt lat="48.3677" lon="2.73527">
        <ele>104.40000152588</ele>
        <time>2021-09-30T12:51:10Z</time>
      </trkpt>
      <trkpt lat="48.36771" lon="2.73527">
        <ele>104.40000152588</ele>
        <time>2021-09-30T12:51:15Z</time>
      </trkpt>
      <trkpt lat="48.36772" lon="2.73527">
        <ele>104.40000152588</ele>
        <time>2021-09-30T12:51:20Z</time>
      </trkpt>
      <trkpt lat="48.36774" lon="2.73528">
        <ele>104.40000152588</ele>
        <time>2021-09-30T12:51:25Z</time>
      </trkpt>
      <trkpt lat="48.36775" lon="2.73527">
        <ele>104.40000152588</ele>
        <time>2021-09-30T12:51:30Z</time>
      </trkpt>
      <trkpt lat="48.36776" lon="2.73525">
        <ele>104.40000152588</ele>
        <time>2021-09-30T12:51:35Z</time>
      </trkpt>
      <trkpt lat="48.36776" lon="2.73524">
        <ele>104.40000152588</ele>
        <time>2021-09-30T12:51:40Z</time>
      </trkpt>
      <trkpt lat="48.36776" lon="2.73524">
        <ele>104.40000152588</ele>
        <time>2021-09-30T12:51:45Z</time>
      </trkpt>
      <trkpt lat="48.36774" lon="2.73524">
        <ele>104.40000152588</ele>
        <time>2021-09-30T12:51:50Z</time>
      </trkpt>
      <trkpt lat="48.36772" lon="2.73524">
        <ele>104.40000152588</ele>
        <time>2021-09-30T12:51:55Z</time>
      </trkpt>
      <trkpt lat="48.3677" lon="2.73527">
        <ele>104.40000152588</ele>
        <time>2021-09-30T12:52:00Z</time>
      </trkpt>
      <trkpt lat="48.36769" lon="2.73525">
        <ele>104.40000152588</ele>
        <time>2021-09-30T12:52:05Z</time>
      </trkpt>
      <trkpt lat="48.36768" lon="2.73524">
        <ele>104.40000152588</ele>
        <time>2021-09-30T12:52:10Z</time>
      </trkpt>
      <trkpt lat="48.36767" lon="2.73525">
        <ele>104.40000152588</ele>
        <time>2021-09-30T12:52:15Z</time>
      </trkpt>
      <trkpt lat="48.36767" lon="2.73527">
        <ele>104.40000152588</ele>
        <time>2021-09-30T12:52:20Z</time>
      </trkpt>
      <trkpt lat="48.36769" lon="2.73531">
        <ele>104.40000152588</ele>
        <time>2021-09-30T12:52:25Z</time>
      </trkpt>
      <trkpt lat="48.3677" lon="2.73532">
        <ele>104.59999847412</ele>
        <time>2021-09-30T12:52:30Z</time>
      </trkpt>
      <trkpt lat="48.3677" lon="2.73531">
        <ele>104.59999847412</ele>
        <time>2021-09-30T12:52:35Z</time>
      </trkpt>
      <trkpt lat="48.3677" lon="2.7353">
        <ele>105</ele>
        <time>2021-09-30T12:52:40Z</time>
      </trkpt>
      <trkpt lat="48.36771" lon="2.7353">
        <ele>105</ele>
        <time>2021-09-30T12:52:45Z</time>
      </trkpt>
      <trkpt lat="48.3677" lon="2.73528">
        <ele>105.19999694824</ele>
        <time>2021-09-30T12:52:50Z</time>
      </trkpt>
      <trkpt lat="48.3677" lon="2.7353">
        <ele>105.19999694824</ele>
        <time>2021-09-30T12:52:55Z</time>
      </trkpt>
      <trkpt lat="48.36771" lon="2.73529">
        <ele>105.40000152588</ele>
        <time>2021-09-30T12:53:00Z</time>
      </trkpt>
      <trkpt lat="48.36777" lon="2.73533">
        <ele>105.40000152588</ele>
        <time>2021-09-30T12:53:05Z</time>
      </trkpt>
      <trkpt lat="48.36778" lon="2.73535">
        <ele>105.40000152588</ele>
        <time>2021-09-30T12:53:10Z</time>
      </trkpt>
      <trkpt lat="48.36778" lon="2.73535">
        <ele>105.40000152588</ele>
        <time>2021-09-30T12:53:15Z</time>
      </trkpt>
      <trkpt lat="48.36775" lon="2.73536">
        <ele>105.40000152588</ele>
        <time>2021-09-30T12:53:20Z</time>
      </trkpt>
      <trkpt lat="48.36774" lon="2.73536">
        <ele>105.59999847412</ele>
        <time>2021-09-30T12:53:25Z</time>
      </trkpt>
      <trkpt lat="48.36773" lon="2.73537">
        <ele>105.80000305176</ele>
        <time>2021-09-30T12:53:30Z</time>
      </trkpt>
      <trkpt lat="48.36773" lon="2.73538">
        <ele>105.80000305176</ele>
        <time>2021-09-30T12:53:35Z</time>
      </trkpt>
      <trkpt lat="48.36772" lon="2.73535">
        <ele>105.80000305176</ele>
        <time>2021-09-30T12:53:40Z</time>
      </trkpt>
      <trkpt lat="48.3677" lon="2.73533">
        <ele>105.80000305176</ele>
        <time>2021-09-30T12:53:45Z</time>
      </trkpt>
      <trkpt lat="48.36768" lon="2.7353">
        <ele>105.80000305176</ele>
        <time>2021-09-30T12:53:50Z</time>
      </trkpt>
      <trkpt lat="48.36767" lon="2.7353">
        <ele>105.80000305176</ele>
        <time>2021-09-30T12:53:55Z</time>
      </trkpt>
      <trkpt lat="48.36766" lon="2.73529">
        <ele>105.80000305176</ele>
        <time>2021-09-30T12:54:00Z</time>
      </trkpt>
      <trkpt lat="48.36765" lon="2.73528">
        <ele>106</ele>
        <time>2021-09-30T12:54:05Z</time>
      </trkpt>
      <trkpt lat="48.36764" lon="2.73527">
        <ele>106</ele>
        <time>2021-09-30T12:54:10Z</time>
      </trkpt>
      <trkpt lat="48.36762" lon="2.73524">
        <ele>105.59999847412</ele>
        <time>2021-09-30T12:54:15Z</time>
      </trkpt>
      <trkpt lat="48.36757" lon="2.73522">
        <ele>105.59999847412</ele>
        <time>2021-09-30T12:54:20Z</time>
      </trkpt>
      <trkpt lat="48.36753" lon="2.73524">
        <ele>105.40000152588</ele>
        <time>2021-09-30T12:54:25Z</time>
      </trkpt>
      <trkpt lat="48.36749" lon="2.73527">
        <ele>105.19999694824</ele>
        <time>2021-09-30T12:54:30Z</time>
      </trkpt>
      <trkpt lat="48.36744" lon="2.73528">
        <ele>105.19999694824</ele>
        <time>2021-09-30T12:54:35Z</time>
      </trkpt>
      <trkpt lat="48.36739" lon="2.7353">
        <ele>105</ele>
        <time>2021-09-30T12:54:40Z</time>
      </trkpt>
      <trkpt lat="48.36732" lon="2.73533">
        <ele>105.19999694824</ele>
        <time>2021-09-30T12:54:45Z</time>
      </trkpt>
      <trkpt lat="48.36726" lon="2.73535">
        <ele>105.19999694824</ele>
        <time>2021-09-30T12:54:50Z</time>
      </trkpt>
      <trkpt lat="48.36722" lon="2.73538">
        <ele>105.59999847412</ele>
        <time>2021-09-30T12:54:55Z</time>
      </trkpt>
      <trkpt lat="48.36715" lon="2.7354">
        <ele>105.80000305176</ele>
        <time>2021-09-30T12:55:00Z</time>
      </trkpt>
      <trkpt lat="48.3671" lon="2.73543">
        <ele>105.80000305176</ele>
        <time>2021-09-30T12:55:05Z</time>
      </trkpt>
      <trkpt lat="48.36703" lon="2.73543">
        <ele>105.80000305176</ele>
        <time>2021-09-30T12:55:10Z</time>
      </trkpt>
      <trkpt lat="48.36699" lon="2.73545">
        <ele>105.80000305176</ele>
        <time>2021-09-30T12:55:15Z</time>
      </trkpt>
      <trkpt lat="48.36694" lon="2.73547">
        <ele>105.80000305176</ele>
        <time>2021-09-30T12:55:20Z</time>
      </trkpt>
      <trkpt lat="48.3669" lon="2.73549">
        <ele>105.80000305176</ele>
        <time>2021-09-30T12:55:25Z</time>
      </trkpt>
      <trkpt lat="48.36685" lon="2.7355">
        <ele>105.80000305176</ele>
        <time>2021-09-30T12:55:30Z</time>
      </trkpt>
      <trkpt lat="48.3668" lon="2.73553">
        <ele>105.59999847412</ele>
        <time>2021-09-30T12:55:35Z</time>
      </trkpt>
      <trkpt lat="48.36677" lon="2.73557">
        <ele>105.59999847412</ele>
        <time>2021-09-30T12:55:40Z</time>
      </trkpt>
      <trkpt lat="48.36672" lon="2.73561">
        <ele>105.59999847412</ele>
        <time>2021-09-30T12:55:45Z</time>
      </trkpt>
      <trkpt lat="48.36666" lon="2.73565">
        <ele>105.80000305176</ele>
        <time>2021-09-30T12:55:50Z</time>
      </trkpt>
      <trkpt lat="48.36658" lon="2.73566">
        <ele>106</ele>
        <time>2021-09-30T12:55:55Z</time>
      </trkpt>
      <trkpt lat="48.36651" lon="2.73568">
        <ele>106.40000152588</ele>
        <time>2021-09-30T12:56:00Z</time>
      </trkpt>
      <trkpt lat="48.36647" lon="2.73571">
        <ele>106.59999847412</ele>
        <time>2021-09-30T12:56:05Z</time>
      </trkpt>
      <trkpt lat="48.36643" lon="2.73572">
        <ele>106.80000305176</ele>
        <time>2021-09-30T12:56:10Z</time>
      </trkpt>
      <trkpt lat="48.36639" lon="2.73573">
        <ele>106.80000305176</ele>
        <time>2021-09-30T12:56:15Z</time>
      </trkpt>
      <trkpt lat="48.36634" lon="2.73574">
        <ele>106.59999847412</ele>
        <time>2021-09-30T12:56:20Z</time>
      </trkpt>
      <trkpt lat="48.36629" lon="2.73579">
        <ele>106.40000152588</ele>
        <time>2021-09-30T12:56:25Z</time>
      </trkpt>
      <trkpt lat="48.36625" lon="2.73584">
        <ele>106</ele>
        <time>2021-09-30T12:56:30Z</time>
      </trkpt>
      <trkpt lat="48.36617" lon="2.73586">
        <ele>105.59999847412</ele>
        <time>2021-09-30T12:56:35Z</time>
      </trkpt>
      <trkpt lat="48.36611" lon="2.73589">
        <ele>105.40000152588</ele>
        <time>2021-09-30T12:56:40Z</time>
      </trkpt>
      <trkpt lat="48.36606" lon="2.73594">
        <ele>105.19999694824</ele>
        <time>2021-09-30T12:56:45Z</time>
      </trkpt>
      <trkpt lat="48.36598" lon="2.73594">
        <ele>105.19999694824</ele>
        <time>2021-09-30T12:56:50Z</time>
      </trkpt>
      <trkpt lat="48.36592" lon="2.73596">
        <ele>105</ele>
        <time>2021-09-30T12:56:55Z</time>
      </trkpt>
      <trkpt lat="48.36589" lon="2.73602">
        <ele>104.80000305176</ele>
        <time>2021-09-30T12:57:00Z</time>
      </trkpt>
      <trkpt lat="48.36583" lon="2.73605">
        <ele>104.80000305176</ele>
        <time>2021-09-30T12:57:05Z</time>
      </trkpt>
      <trkpt lat="48.36576" lon="2.73606">
        <ele>104.59999847412</ele>
        <time>2021-09-30T12:57:10Z</time>
      </trkpt>
      <trkpt lat="48.36568" lon="2.73607">
        <ele>104.40000152588</ele>
        <time>2021-09-30T12:57:15Z</time>
      </trkpt>
      <trkpt lat="48.36564" lon="2.7361">
        <ele>104.19999694824</ele>
        <time>2021-09-30T12:57:20Z</time>
      </trkpt>
      <trkpt lat="48.36559" lon="2.73615">
        <ele>104.19999694824</ele>
        <time>2021-09-30T12:57:25Z</time>
      </trkpt>
      <trkpt lat="48.36555" lon="2.73618">
        <ele>104</ele>
        <time>2021-09-30T12:57:30Z</time>
      </trkpt>
      <trkpt lat="48.3655" lon="2.73621">
        <ele>104</ele>
        <time>2021-09-30T12:57:35Z</time>
      </trkpt>
      <trkpt lat="48.36546" lon="2.73624">
        <ele>104</ele>
        <time>2021-09-30T12:57:40Z</time>
      </trkpt>
      <trkpt lat="48.3654" lon="2.73625">
        <ele>104</ele>
        <time>2021-09-30T12:57:45Z</time>
      </trkpt>
      <trkpt lat="48.36535" lon="2.73627">
        <ele>103.80000305176</ele>
        <time>2021-09-30T12:57:50Z</time>
      </trkpt>
      <trkpt lat="48.3653" lon="2.73628">
        <ele>103.80000305176</ele>
        <time>2021-09-30T12:57:55Z</time>
      </trkpt>
      <trkpt lat="48.36526" lon="2.73632">
        <ele>103.80000305176</ele>
        <time>2021-09-30T12:58:00Z</time>
      </trkpt>
      <trkpt lat="48.36523" lon="2.73633">
        <ele>103.80000305176</ele>
        <time>2021-09-30T12:58:05Z</time>
      </trkpt>
      <trkpt lat="48.36514" lon="2.73637">
        <ele>103.80000305176</ele>
        <time>2021-09-30T12:58:10Z</time>
      </trkpt>
      <trkpt lat="48.36508" lon="2.73639">
        <ele>104</ele>
        <time>2021-09-30T12:58:15Z</time>
      </trkpt>
      <trkpt lat="48.36502" lon="2.73641">
        <ele>104.19999694824</ele>
        <time>2021-09-30T12:58:20Z</time>
      </trkpt>
      <trkpt lat="48.36497" lon="2.73645">
        <ele>104.19999694824</ele>
        <time>2021-09-30T12:58:25Z</time>
      </trkpt>
      <trkpt lat="48.36492" lon="2.73647">
        <ele>104.19999694824</ele>
        <time>2021-09-30T12:58:30Z</time>
      </trkpt>
      <trkpt lat="48.36488" lon="2.73651">
        <ele>104.19999694824</ele>
        <time>2021-09-30T12:58:35Z</time>
      </trkpt>
      <trkpt lat="48.36483" lon="2.73652">
        <ele>104.19999694824</ele>
        <time>2021-09-30T12:58:40Z</time>
      </trkpt>
      <trkpt lat="48.36477" lon="2.73653">
        <ele>104.19999694824</ele>
        <time>2021-09-30T12:58:45Z</time>
      </trkpt>
      <trkpt lat="48.3647" lon="2.73653">
        <ele>104.40000152588</ele>
        <time>2021-09-30T12:58:50Z</time>
      </trkpt>
      <trkpt lat="48.36465" lon="2.73656">
        <ele>104.59999847412</ele>
        <time>2021-09-30T12:58:55Z</time>
      </trkpt>
      <trkpt lat="48.36459" lon="2.7366">
        <ele>104.80000305176</ele>
        <time>2021-09-30T12:59:00Z</time>
      </trkpt>
      <trkpt lat="48.36455" lon="2.73662">
        <ele>104.80000305176</ele>
        <time>2021-09-30T12:59:05Z</time>
      </trkpt>
      <trkpt lat="48.36451" lon="2.73664">
        <ele>104.80000305176</ele>
        <time>2021-09-30T12:59:10Z</time>
      </trkpt>
      <trkpt lat="48.36445" lon="2.73665">
        <ele>105</ele>
        <time>2021-09-30T12:59:15Z</time>
      </trkpt>
      <trkpt lat="48.36443" lon="2.73667">
        <ele>105.19999694824</ele>
        <time>2021-09-30T12:59:20Z</time>
      </trkpt>
      <trkpt lat="48.36436" lon="2.7367">
        <ele>105.19999694824</ele>
        <time>2021-09-30T12:59:25Z</time>
      </trkpt>
      <trkpt lat="48.36431" lon="2.7367">
        <ele>105.19999694824</ele>
        <time>2021-09-30T12:59:30Z</time>
      </trkpt>
      <trkpt lat="48.36425" lon="2.73672">
        <ele>105.19999694824</ele>
        <time>2021-09-30T12:59:35Z</time>
      </trkpt>
      <trkpt lat="48.36419" lon="2.73677">
        <ele>105</ele>
        <time>2021-09-30T12:59:40Z</time>
      </trkpt>
      <trkpt lat="48.36412" lon="2.73679">
        <ele>104.80000305176</ele>
        <time>2021-09-30T12:59:45Z</time>
      </trkpt>
      <trkpt lat="48.36406" lon="2.73682">
        <ele>104.59999847412</ele>
        <time>2021-09-30T12:59:50Z</time>
      </trkpt>
      <trkpt lat="48.36402" lon="2.73684">
        <ele>104.59999847412</ele>
        <time>2021-09-30T12:59:55Z</time>
      </trkpt>
      <trkpt lat="48.36398" lon="2.73687">
        <ele>104.59999847412</ele>
        <time>2021-09-30T13:00:00Z</time>
      </trkpt>
      <trkpt lat="48.36393" lon="2.7369">
        <ele>104.59999847412</ele>
        <time>2021-09-30T13:00:05Z</time>
      </trkpt>
      <trkpt lat="48.36389" lon="2.73693">
        <ele>104.40000152588</ele>
        <time>2021-09-30T13:00:10Z</time>
      </trkpt>
      <trkpt lat="48.36384" lon="2.73694">
        <ele>104.19999694824</ele>
        <time>2021-09-30T13:00:15Z</time>
      </trkpt>
      <trkpt lat="48.36377" lon="2.73698">
        <ele>104</ele>
        <time>2021-09-30T13:00:20Z</time>
      </trkpt>
      <trkpt lat="48.36372" lon="2.73701">
        <ele>103.59999847412</ele>
        <time>2021-09-30T13:00:25Z</time>
      </trkpt>
      <trkpt lat="48.36366" lon="2.73703">
        <ele>103.59999847412</ele>
        <time>2021-09-30T13:00:30Z</time>
      </trkpt>
      <trkpt lat="48.36361" lon="2.73704">
        <ele>103.40000152588</ele>
        <time>2021-09-30T13:00:35Z</time>
      </trkpt>
      <trkpt lat="48.36356" lon="2.73707">
        <ele>103.40000152588</ele>
        <time>2021-09-30T13:00:40Z</time>
      </trkpt>
      <trkpt lat="48.36351" lon="2.73708">
        <ele>103.19999694824</ele>
        <time>2021-09-30T13:00:45Z</time>
      </trkpt>
      <trkpt lat="48.36347" lon="2.73712">
        <ele>103.19999694824</ele>
        <time>2021-09-30T13:00:50Z</time>
      </trkpt>
      <trkpt lat="48.36342" lon="2.73715">
        <ele>103</ele>
        <time>2021-09-30T13:00:55Z</time>
      </trkpt>
      <trkpt lat="48.36335" lon="2.73717">
        <ele>102.40000152588</ele>
        <time>2021-09-30T13:01:00Z</time>
      </trkpt>
      <trkpt lat="48.3633" lon="2.73719">
        <ele>102.40000152588</ele>
        <time>2021-09-30T13:01:05Z</time>
      </trkpt>
      <trkpt lat="48.36325" lon="2.73717">
        <ele>102.40000152588</ele>
        <time>2021-09-30T13:01:10Z</time>
      </trkpt>
      <trkpt lat="48.3632" lon="2.73713">
        <ele>102.19999694824</ele>
        <time>2021-09-30T13:01:15Z</time>
      </trkpt>
      <trkpt lat="48.36315" lon="2.73708">
        <ele>101.59999847412</ele>
        <time>2021-09-30T13:01:20Z</time>
      </trkpt>
      <trkpt lat="48.36313" lon="2.73706">
        <ele>101.40000152588</ele>
        <time>2021-09-30T13:01:25Z</time>
      </trkpt>
      <trkpt lat="48.36309" lon="2.737">
        <ele>101.19999694824</ele>
        <time>2021-09-30T13:01:30Z</time>
      </trkpt>
      <trkpt lat="48.36305" lon="2.73696">
        <ele>101.19999694824</ele>
        <time>2021-09-30T13:01:35Z</time>
      </trkpt>
      <trkpt lat="48.36302" lon="2.73693">
        <ele>101</ele>
        <time>2021-09-30T13:01:40Z</time>
      </trkpt>
      <trkpt lat="48.36298" lon="2.73688">
        <ele>101</ele>
        <time>2021-09-30T13:01:45Z</time>
      </trkpt>
      <trkpt lat="48.36294" lon="2.73683">
        <ele>101.19999694824</ele>
        <time>2021-09-30T13:01:50Z</time>
      </trkpt>
      <trkpt lat="48.36289" lon="2.7368">
        <ele>101.19999694824</ele>
        <time>2021-09-30T13:01:55Z</time>
      </trkpt>
      <trkpt lat="48.36284" lon="2.73674">
        <ele>101.19999694824</ele>
        <time>2021-09-30T13:02:00Z</time>
      </trkpt>
      <trkpt lat="48.36277" lon="2.73666">
        <ele>101.19999694824</ele>
        <time>2021-09-30T13:02:05Z</time>
      </trkpt>
      <trkpt lat="48.36271" lon="2.73661">
        <ele>101.19999694824</ele>
        <time>2021-09-30T13:02:10Z</time>
      </trkpt>
      <trkpt lat="48.36267" lon="2.73656">
        <ele>101.19999694824</ele>
        <time>2021-09-30T13:02:15Z</time>
      </trkpt>
      <trkpt lat="48.36262" lon="2.7365">
        <ele>101</ele>
        <time>2021-09-30T13:02:20Z</time>
      </trkpt>
      <trkpt lat="48.36255" lon="2.73644">
        <ele>100.80000305176</ele>
        <time>2021-09-30T13:02:25Z</time>
      </trkpt>
      <trkpt lat="48.36249" lon="2.73639">
        <ele>100.80000305176</ele>
        <time>2021-09-30T13:02:30Z</time>
      </trkpt>
      <trkpt lat="48.36243" lon="2.73637">
        <ele>100.80000305176</ele>
        <time>2021-09-30T13:02:35Z</time>
      </trkpt>
      <trkpt lat="48.36239" lon="2.73632">
        <ele>100.59999847412</ele>
        <time>2021-09-30T13:02:40Z</time>
      </trkpt>
      <trkpt lat="48.36234" lon="2.73628">
        <ele>100.59999847412</ele>
        <time>2021-09-30T13:02:45Z</time>
      </trkpt>
      <trkpt lat="48.36232" lon="2.73626">
        <ele>100.80000305176</ele>
        <time>2021-09-30T13:02:50Z</time>
      </trkpt>
      <trkpt lat="48.36227" lon="2.73622">
        <ele>100.80000305176</ele>
        <time>2021-09-30T13:02:55Z</time>
      </trkpt>
      <trkpt lat="48.36225" lon="2.73618">
        <ele>100.80000305176</ele>
        <time>2021-09-30T13:03:00Z</time>
      </trkpt>
      <trkpt lat="48.36223" lon="2.73612">
        <ele>100.80000305176</ele>
        <time>2021-09-30T13:03:05Z</time>
      </trkpt>
      <trkpt lat="48.36219" lon="2.73607">
        <ele>100.59999847412</ele>
        <time>2021-09-30T13:03:10Z</time>
      </trkpt>
      <trkpt lat="48.36217" lon="2.73603">
        <ele>100.59999847412</ele>
        <time>2021-09-30T13:03:15Z</time>
      </trkpt>
      <trkpt lat="48.36211" lon="2.73597">
        <ele>100.59999847412</ele>
        <time>2021-09-30T13:03:20Z</time>
      </trkpt>
      <trkpt lat="48.36204" lon="2.73593">
        <ele>100.40000152588</ele>
        <time>2021-09-30T13:03:25Z</time>
      </trkpt>
      <trkpt lat="48.36198" lon="2.73587">
        <ele>100.19999694824</ele>
        <time>2021-09-30T13:03:30Z</time>
      </trkpt>
      <trkpt lat="48.36192" lon="2.73582">
        <ele>100</ele>
        <time>2021-09-30T13:03:35Z</time>
      </trkpt>
      <trkpt lat="48.36188" lon="2.73578">
        <ele>99.800003051758</ele>
        <time>2021-09-30T13:03:40Z</time>
      </trkpt>
      <trkpt lat="48.36182" lon="2.73575">
        <ele>99.800003051758</ele>
        <time>2021-09-30T13:03:45Z</time>
      </trkpt>
      <trkpt lat="48.36178" lon="2.7357">
        <ele>99.800003051758</ele>
        <time>2021-09-30T13:03:50Z</time>
      </trkpt>
      <trkpt lat="48.36174" lon="2.73565">
        <ele>99.800003051758</ele>
        <time>2021-09-30T13:03:55Z</time>
      </trkpt>
      <trkpt lat="48.3617" lon="2.73561">
        <ele>99.800003051758</ele>
        <time>2021-09-30T13:04:00Z</time>
      </trkpt>
      <trkpt lat="48.36164" lon="2.73557">
        <ele>99.800003051758</ele>
        <time>2021-09-30T13:04:05Z</time>
      </trkpt>
      <trkpt lat="48.3616" lon="2.73553">
        <ele>99.800003051758</ele>
        <time>2021-09-30T13:04:10Z</time>
      </trkpt>
      <trkpt lat="48.36156" lon="2.73545">
        <ele>99.599998474121</ele>
        <time>2021-09-30T13:04:15Z</time>
      </trkpt>
      <trkpt lat="48.36152" lon="2.7354">
        <ele>99.400001525879</ele>
        <time>2021-09-30T13:04:20Z</time>
      </trkpt>
      <trkpt lat="48.36148" lon="2.73534">
        <ele>99.400001525879</ele>
        <time>2021-09-30T13:04:25Z</time>
      </trkpt>
      <trkpt lat="48.36145" lon="2.73527">
        <ele>99.400001525879</ele>
        <time>2021-09-30T13:04:30Z</time>
      </trkpt>
      <trkpt lat="48.3614" lon="2.73522">
        <ele>99.400001525879</ele>
        <time>2021-09-30T13:04:35Z</time>
      </trkpt>
      <trkpt lat="48.36136" lon="2.73518">
        <ele>99.400001525879</ele>
        <time>2021-09-30T13:04:40Z</time>
      </trkpt>
      <trkpt lat="48.3613" lon="2.73514">
        <ele>99.199996948242</ele>
        <time>2021-09-30T13:04:45Z</time>
      </trkpt>
      <trkpt lat="48.36125" lon="2.73509">
        <ele>99.199996948242</ele>
        <time>2021-09-30T13:04:50Z</time>
      </trkpt>
      <trkpt lat="48.36119" lon="2.73504">
        <ele>99.199996948242</ele>
        <time>2021-09-30T13:04:55Z</time>
      </trkpt>
      <trkpt lat="48.36114" lon="2.73498">
        <ele>99.199996948242</ele>
        <time>2021-09-30T13:05:00Z</time>
      </trkpt>
      <trkpt lat="48.3611" lon="2.73494">
        <ele>99.199996948242</ele>
        <time>2021-09-30T13:05:05Z</time>
      </trkpt>
      <trkpt lat="48.36107" lon="2.73489">
        <ele>99</ele>
        <time>2021-09-30T13:05:10Z</time>
      </trkpt>
      <trkpt lat="48.36102" lon="2.73483">
        <ele>99</ele>
        <time>2021-09-30T13:05:15Z</time>
      </trkpt>
      <trkpt lat="48.36099" lon="2.73478">
        <ele>99</ele>
        <time>2021-09-30T13:05:20Z</time>
      </trkpt>
      <trkpt lat="48.36095" lon="2.73471">
        <ele>99</ele>
        <time>2021-09-30T13:05:25Z</time>
      </trkpt>
      <trkpt lat="48.3609" lon="2.73464">
        <ele>99</ele>
        <time>2021-09-30T13:05:30Z</time>
      </trkpt>
      <trkpt lat="48.36087" lon="2.73455">
        <ele>99</ele>
        <time>2021-09-30T13:05:35Z</time>
      </trkpt>
      <trkpt lat="48.36086" lon="2.73449">
        <ele>99</ele>
        <time>2021-09-30T13:05:40Z</time>
      </trkpt>
      <trkpt lat="48.36088" lon="2.73442">
        <ele>99</ele>
        <time>2021-09-30T13:05:45Z</time>
      </trkpt>
      <trkpt lat="48.36091" lon="2.73437">
        <ele>99.199996948242</ele>
        <time>2021-09-30T13:05:50Z</time>
      </trkpt>
      <trkpt lat="48.36094" lon="2.7343">
        <ele>99.199996948242</ele>
        <time>2021-09-30T13:05:55Z</time>
      </trkpt>
      <trkpt lat="48.36095" lon="2.7342">
        <ele>99.199996948242</ele>
        <time>2021-09-30T13:06:00Z</time>
      </trkpt>
      <trkpt lat="48.36096" lon="2.73412">
        <ele>99.199996948242</ele>
        <time>2021-09-30T13:06:05Z</time>
      </trkpt>
      <trkpt lat="48.36097" lon="2.73406">
        <ele>99.199996948242</ele>
        <time>2021-09-30T13:06:10Z</time>
      </trkpt>
      <trkpt lat="48.36097" lon="2.73398">
        <ele>99.400001525879</ele>
        <time>2021-09-30T13:06:15Z</time>
      </trkpt>
      <trkpt lat="48.36099" lon="2.73392">
        <ele>99.400001525879</ele>
        <time>2021-09-30T13:06:20Z</time>
      </trkpt>
      <trkpt lat="48.36099" lon="2.73385">
        <ele>99.400001525879</ele>
        <time>2021-09-30T13:06:25Z</time>
      </trkpt>
      <trkpt lat="48.36101" lon="2.73378">
        <ele>99.400001525879</ele>
        <time>2021-09-30T13:06:30Z</time>
      </trkpt>
      <trkpt lat="48.36103" lon="2.73371">
        <ele>99.400001525879</ele>
        <time>2021-09-30T13:06:35Z</time>
      </trkpt>
      <trkpt lat="48.36104" lon="2.73361">
        <ele>99.400001525879</ele>
        <time>2021-09-30T13:06:40Z</time>
      </trkpt>
      <trkpt lat="48.36104" lon="2.73353">
        <ele>99.400001525879</ele>
        <time>2021-09-30T13:06:45Z</time>
      </trkpt>
      <trkpt lat="48.36105" lon="2.73346">
        <ele>99.400001525879</ele>
        <time>2021-09-30T13:06:50Z</time>
      </trkpt>
      <trkpt lat="48.36106" lon="2.73337">
        <ele>99.400001525879</ele>
        <time>2021-09-30T13:06:55Z</time>
      </trkpt>
      <trkpt lat="48.36107" lon="2.73329">
        <ele>99.400001525879</ele>
        <time>2021-09-30T13:07:00Z</time>
      </trkpt>
      <trkpt lat="48.36107" lon="2.73323">
        <ele>99.400001525879</ele>
        <time>2021-09-30T13:07:05Z</time>
      </trkpt>
      <trkpt lat="48.36107" lon="2.73314">
        <ele>99.599998474121</ele>
        <time>2021-09-30T13:07:10Z</time>
      </trkpt>
      <trkpt lat="48.36108" lon="2.73305">
        <ele>99.599998474121</ele>
        <time>2021-09-30T13:07:15Z</time>
      </trkpt>
      <trkpt lat="48.36109" lon="2.73295">
        <ele>99.599998474121</ele>
        <time>2021-09-30T13:07:20Z</time>
      </trkpt>
      <trkpt lat="48.36108" lon="2.73288">
        <ele>99.400001525879</ele>
        <time>2021-09-30T13:07:25Z</time>
      </trkpt>
      <trkpt lat="48.36108" lon="2.7328">
        <ele>99.400001525879</ele>
        <time>2021-09-30T13:07:30Z</time>
      </trkpt>
      <trkpt lat="48.36108" lon="2.73272">
        <ele>99.400001525879</ele>
        <time>2021-09-30T13:07:35Z</time>
      </trkpt>
      <trkpt lat="48.36106" lon="2.73264">
        <ele>99.800003051758</ele>
        <time>2021-09-30T13:07:40Z</time>
      </trkpt>
      <trkpt lat="48.36108" lon="2.73255">
        <ele>100</ele>
        <time>2021-09-30T13:07:45Z</time>
      </trkpt>
      <trkpt lat="48.36109" lon="2.73248">
        <ele>100</ele>
        <time>2021-09-30T13:07:50Z</time>
      </trkpt>
      <trkpt lat="48.36111" lon="2.73238">
        <ele>100</ele>
        <time>2021-09-30T13:07:55Z</time>
      </trkpt>
      <trkpt lat="48.36113" lon="2.73231">
        <ele>99.800003051758</ele>
        <time>2021-09-30T13:08:00Z</time>
      </trkpt>
      <trkpt lat="48.36114" lon="2.73223">
        <ele>99.599998474121</ele>
        <time>2021-09-30T13:08:05Z</time>
      </trkpt>
      <trkpt lat="48.36113" lon="2.73215">
        <ele>99.599998474121</ele>
        <time>2021-09-30T13:08:10Z</time>
      </trkpt>
      <trkpt lat="48.36113" lon="2.73209">
        <ele>99.599998474121</ele>
        <time>2021-09-30T13:08:15Z</time>
      </trkpt>
      <trkpt lat="48.36111" lon="2.73201">
        <ele>99.400001525879</ele>
        <time>2021-09-30T13:08:20Z</time>
      </trkpt>
      <trkpt lat="48.36112" lon="2.73192">
        <ele>99.199996948242</ele>
        <time>2021-09-30T13:08:25Z</time>
      </trkpt>
      <trkpt lat="48.36114" lon="2.73183">
        <ele>99</ele>
        <time>2021-09-30T13:08:30Z</time>
      </trkpt>
      <trkpt lat="48.36117" lon="2.73176">
        <ele>98.800003051758</ele>
        <time>2021-09-30T13:08:35Z</time>
      </trkpt>
      <trkpt lat="48.36117" lon="2.73169">
        <ele>98.400001525879</ele>
        <time>2021-09-30T13:08:40Z</time>
      </trkpt>
      <trkpt lat="48.36117" lon="2.7316">
        <ele>98.199996948242</ele>
        <time>2021-09-30T13:08:45Z</time>
      </trkpt>
      <trkpt lat="48.36119" lon="2.73152">
        <ele>98</ele>
        <time>2021-09-30T13:08:50Z</time>
      </trkpt>
      <trkpt lat="48.36123" lon="2.73143">
        <ele>97.800003051758</ele>
        <time>2021-09-30T13:08:55Z</time>
      </trkpt>
      <trkpt lat="48.36124" lon="2.73134">
        <ele>97.599998474121</ele>
        <time>2021-09-30T13:09:00Z</time>
      </trkpt>
      <trkpt lat="48.36124" lon="2.73122">
        <ele>97.400001525879</ele>
        <time>2021-09-30T13:09:05Z</time>
      </trkpt>
      <trkpt lat="48.36126" lon="2.73113">
        <ele>97.400001525879</ele>
        <time>2021-09-30T13:09:10Z</time>
      </trkpt>
      <trkpt lat="48.36129" lon="2.73106">
        <ele>97.400001525879</ele>
        <time>2021-09-30T13:09:15Z</time>
      </trkpt>
      <trkpt lat="48.36127" lon="2.731">
        <ele>97.400001525879</ele>
        <time>2021-09-30T13:09:20Z</time>
      </trkpt>
      <trkpt lat="48.36128" lon="2.73095">
        <ele>97.400001525879</ele>
        <time>2021-09-30T13:09:25Z</time>
      </trkpt>
      <trkpt lat="48.36129" lon="2.73086">
        <ele>97.199996948242</ele>
        <time>2021-09-30T13:09:30Z</time>
      </trkpt>
      <trkpt lat="48.3613" lon="2.73076">
        <ele>97</ele>
        <time>2021-09-30T13:09:35Z</time>
      </trkpt>
      <trkpt lat="48.36131" lon="2.73068">
        <ele>97</ele>
        <time>2021-09-30T13:09:40Z</time>
      </trkpt>
      <trkpt lat="48.36132" lon="2.73058">
        <ele>96.800003051758</ele>
        <time>2021-09-30T13:09:45Z</time>
      </trkpt>
      <trkpt lat="48.36133" lon="2.7305">
        <ele>96.800003051758</ele>
        <time>2021-09-30T13:09:50Z</time>
      </trkpt>
      <trkpt lat="48.36132" lon="2.73041">
        <ele>96.800003051758</ele>
        <time>2021-09-30T13:09:55Z</time>
      </trkpt>
      <trkpt lat="48.36133" lon="2.73033">
        <ele>96.800003051758</ele>
        <time>2021-09-30T13:10:00Z</time>
      </trkpt>
      <trkpt lat="48.36135" lon="2.73027">
        <ele>96.800003051758</ele>
        <time>2021-09-30T13:10:05Z</time>
      </trkpt>
      <trkpt lat="48.36137" lon="2.73019">
        <ele>96.800003051758</ele>
        <time>2021-09-30T13:10:10Z</time>
      </trkpt>
      <trkpt lat="48.36137" lon="2.7301">
        <ele>96.599998474121</ele>
        <time>2021-09-30T13:10:15Z</time>
      </trkpt>
      <trkpt lat="48.36137" lon="2.73002">
        <ele>96.599998474121</ele>
        <time>2021-09-30T13:10:20Z</time>
      </trkpt>
      <trkpt lat="48.36134" lon="2.72998">
        <ele>96.599998474121</ele>
        <time>2021-09-30T13:10:25Z</time>
      </trkpt>
      <trkpt lat="48.36133" lon="2.72992">
        <ele>96.800003051758</ele>
        <time>2021-09-30T13:10:30Z</time>
      </trkpt>
      <trkpt lat="48.36134" lon="2.72981">
        <ele>96.800003051758</ele>
        <time>2021-09-30T13:10:35Z</time>
      </trkpt>
      <trkpt lat="48.36137" lon="2.72972">
        <ele>97</ele>
        <time>2021-09-30T13:10:40Z</time>
      </trkpt>
      <trkpt lat="48.36138" lon="2.72963">
        <ele>97</ele>
        <time>2021-09-30T13:10:45Z</time>
      </trkpt>
      <trkpt lat="48.36139" lon="2.72955">
        <ele>97</ele>
        <time>2021-09-30T13:10:50Z</time>
      </trkpt>
      <trkpt lat="48.3614" lon="2.72945">
        <ele>97</ele>
        <time>2021-09-30T13:10:55Z</time>
      </trkpt>
      <trkpt lat="48.36143" lon="2.72938">
        <ele>97</ele>
        <time>2021-09-30T13:11:00Z</time>
      </trkpt>
      <trkpt lat="48.36144" lon="2.72931">
        <ele>97</ele>
        <time>2021-09-30T13:11:05Z</time>
      </trkpt>
      <trkpt lat="48.36146" lon="2.72923">
        <ele>96.800003051758</ele>
        <time>2021-09-30T13:11:10Z</time>
      </trkpt>
      <trkpt lat="48.36148" lon="2.72916">
        <ele>97</ele>
        <time>2021-09-30T13:11:15Z</time>
      </trkpt>
      <trkpt lat="48.36152" lon="2.7291">
        <ele>97</ele>
        <time>2021-09-30T13:11:20Z</time>
      </trkpt>
      <trkpt lat="48.36153" lon="2.72901">
        <ele>97</ele>
        <time>2021-09-30T13:11:25Z</time>
      </trkpt>
      <trkpt lat="48.36153" lon="2.72892">
        <ele>97</ele>
        <time>2021-09-30T13:11:30Z</time>
      </trkpt>
      <trkpt lat="48.36153" lon="2.72884">
        <ele>97</ele>
        <time>2021-09-30T13:11:35Z</time>
      </trkpt>
      <trkpt lat="48.36152" lon="2.72877">
        <ele>97</ele>
        <time>2021-09-30T13:11:40Z</time>
      </trkpt>
      <trkpt lat="48.36151" lon="2.72869">
        <ele>97.199996948242</ele>
        <time>2021-09-30T13:11:45Z</time>
      </trkpt>
      <trkpt lat="48.36151" lon="2.72862">
        <ele>97.199996948242</ele>
        <time>2021-09-30T13:11:50Z</time>
      </trkpt>
      <trkpt lat="48.36152" lon="2.72855">
        <ele>97.400001525879</ele>
        <time>2021-09-30T13:11:55Z</time>
      </trkpt>
      <trkpt lat="48.36156" lon="2.72846">
        <ele>97.400001525879</ele>
        <time>2021-09-30T13:12:00Z</time>
      </trkpt>
      <trkpt lat="48.36158" lon="2.72838">
        <ele>97.400001525879</ele>
        <time>2021-09-30T13:12:05Z</time>
      </trkpt>
      <trkpt lat="48.36158" lon="2.72829">
        <ele>97.599998474121</ele>
        <time>2021-09-30T13:12:10Z</time>
      </trkpt>
      <trkpt lat="48.36157" lon="2.72816">
        <ele>97.599998474121</ele>
        <time>2021-09-30T13:12:15Z</time>
      </trkpt>
      <trkpt lat="48.36158" lon="2.72807">
        <ele>97.599998474121</ele>
        <time>2021-09-30T13:12:20Z</time>
      </trkpt>
      <trkpt lat="48.3616" lon="2.72801">
        <ele>97.800003051758</ele>
        <time>2021-09-30T13:12:25Z</time>
      </trkpt>
      <trkpt lat="48.36164" lon="2.72793">
        <ele>97.800003051758</ele>
        <time>2021-09-30T13:12:30Z</time>
      </trkpt>
      <trkpt lat="48.36164" lon="2.72785">
        <ele>98</ele>
        <time>2021-09-30T13:12:35Z</time>
      </trkpt>
      <trkpt lat="48.36164" lon="2.72779">
        <ele>98</ele>
        <time>2021-09-30T13:12:40Z</time>
      </trkpt>
      <trkpt lat="48.36165" lon="2.72771">
        <ele>98.199996948242</ele>
        <time>2021-09-30T13:12:45Z</time>
      </trkpt>
      <trkpt lat="48.36165" lon="2.72766">
        <ele>98.199996948242</ele>
        <time>2021-09-30T13:12:50Z</time>
      </trkpt>
      <trkpt lat="48.36165" lon="2.72757">
        <ele>98.199996948242</ele>
        <time>2021-09-30T13:12:55Z</time>
      </trkpt>
      <trkpt lat="48.36165" lon="2.72749">
        <ele>98.199996948242</ele>
        <time>2021-09-30T13:13:00Z</time>
      </trkpt>
      <trkpt lat="48.36166" lon="2.72743">
        <ele>98.199996948242</ele>
        <time>2021-09-30T13:13:05Z</time>
      </trkpt>
      <trkpt lat="48.36166" lon="2.72735">
        <ele>98.199996948242</ele>
        <time>2021-09-30T13:13:10Z</time>
      </trkpt>
      <trkpt lat="48.36166" lon="2.72726">
        <ele>98</ele>
        <time>2021-09-30T13:13:15Z</time>
      </trkpt>
      <trkpt lat="48.36166" lon="2.72718">
        <ele>97.800003051758</ele>
        <time>2021-09-30T13:13:20Z</time>
      </trkpt>
      <trkpt lat="48.36167" lon="2.72711">
        <ele>97.800003051758</ele>
        <time>2021-09-30T13:13:25Z</time>
      </trkpt>
      <trkpt lat="48.36168" lon="2.72702">
        <ele>97.800003051758</ele>
        <time>2021-09-30T13:13:30Z</time>
      </trkpt>
      <trkpt lat="48.36169" lon="2.72694">
        <ele>97.599998474121</ele>
        <time>2021-09-30T13:13:35Z</time>
      </trkpt>
      <trkpt lat="48.36171" lon="2.72684">
        <ele>97.800003051758</ele>
        <time>2021-09-30T13:13:40Z</time>
      </trkpt>
      <trkpt lat="48.36173" lon="2.72674">
        <ele>97.800003051758</ele>
        <time>2021-09-30T13:13:45Z</time>
      </trkpt>
      <trkpt lat="48.36173" lon="2.72666">
        <ele>98</ele>
        <time>2021-09-30T13:13:50Z</time>
      </trkpt>
      <trkpt lat="48.3617" lon="2.7266">
        <ele>98.199996948242</ele>
        <time>2021-09-30T13:13:55Z</time>
      </trkpt>
      <trkpt lat="48.36165" lon="2.72657">
        <ele>98.199996948242</ele>
        <time>2021-09-30T13:14:00Z</time>
      </trkpt>
      <trkpt lat="48.36161" lon="2.72655">
        <ele>98.199996948242</ele>
        <time>2021-09-30T13:14:05Z</time>
      </trkpt>
      <trkpt lat="48.36159" lon="2.72654">
        <ele>98</ele>
        <time>2021-09-30T13:14:10Z</time>
      </trkpt>
      <trkpt lat="48.36154" lon="2.72653">
        <ele>98</ele>
        <time>2021-09-30T13:14:15Z</time>
      </trkpt>
      <trkpt lat="48.36147" lon="2.72655">
        <ele>98</ele>
        <time>2021-09-30T13:14:20Z</time>
      </trkpt>
      <trkpt lat="48.36142" lon="2.72654">
        <ele>98</ele>
        <time>2021-09-30T13:14:25Z</time>
      </trkpt>
      <trkpt lat="48.36137" lon="2.72653">
        <ele>98.199996948242</ele>
        <time>2021-09-30T13:14:30Z</time>
      </trkpt>
      <trkpt lat="48.36132" lon="2.72652">
        <ele>98.199996948242</ele>
        <time>2021-09-30T13:14:35Z</time>
      </trkpt>
      <trkpt lat="48.36127" lon="2.72653">
        <ele>98.199996948242</ele>
        <time>2021-09-30T13:14:40Z</time>
      </trkpt>
      <trkpt lat="48.3612" lon="2.72652">
        <ele>98.199996948242</ele>
        <time>2021-09-30T13:14:45Z</time>
      </trkpt>
      <trkpt lat="48.36114" lon="2.72651">
        <ele>98.199996948242</ele>
        <time>2021-09-30T13:14:50Z</time>
      </trkpt>
      <trkpt lat="48.36107" lon="2.7265">
        <ele>98.199996948242</ele>
        <time>2021-09-30T13:14:55Z</time>
      </trkpt>
      <trkpt lat="48.36102" lon="2.7265">
        <ele>98.199996948242</ele>
        <time>2021-09-30T13:15:00Z</time>
      </trkpt>
      <trkpt lat="48.36096" lon="2.7265">
        <ele>98.199996948242</ele>
        <time>2021-09-30T13:15:05Z</time>
      </trkpt>
      <trkpt lat="48.3609" lon="2.72649">
        <ele>98.199996948242</ele>
        <time>2021-09-30T13:15:10Z</time>
      </trkpt>
      <trkpt lat="48.36087" lon="2.7265">
        <ele>98.199996948242</ele>
        <time>2021-09-30T13:15:15Z</time>
      </trkpt>
      <trkpt lat="48.3608" lon="2.72649">
        <ele>98.199996948242</ele>
        <time>2021-09-30T13:15:20Z</time>
      </trkpt>
      <trkpt lat="48.36074" lon="2.72646">
        <ele>98.199996948242</ele>
        <time>2021-09-30T13:15:25Z</time>
      </trkpt>
      <trkpt lat="48.36068" lon="2.72645">
        <ele>98.199996948242</ele>
        <time>2021-09-30T13:15:30Z</time>
      </trkpt>
      <trkpt lat="48.36062" lon="2.72646">
        <ele>98.199996948242</ele>
        <time>2021-09-30T13:15:35Z</time>
      </trkpt>
      <trkpt lat="48.36056" lon="2.72646">
        <ele>98.199996948242</ele>
        <time>2021-09-30T13:15:40Z</time>
      </trkpt>
      <trkpt lat="48.36052" lon="2.72647">
        <ele>98.400001525879</ele>
        <time>2021-09-30T13:15:45Z</time>
      </trkpt>
      <trkpt lat="48.36047" lon="2.72648">
        <ele>98.400001525879</ele>
        <time>2021-09-30T13:15:50Z</time>
      </trkpt>
      <trkpt lat="48.36041" lon="2.7265">
        <ele>98.400001525879</ele>
        <time>2021-09-30T13:15:55Z</time>
      </trkpt>
      <trkpt lat="48.36036" lon="2.72647">
        <ele>98.400001525879</ele>
        <time>2021-09-30T13:16:00Z</time>
      </trkpt>
      <trkpt lat="48.3603" lon="2.72647">
        <ele>98.400001525879</ele>
        <time>2021-09-30T13:16:05Z</time>
      </trkpt>
      <trkpt lat="48.36025" lon="2.72646">
        <ele>98.400001525879</ele>
        <time>2021-09-30T13:16:10Z</time>
      </trkpt>
      <trkpt lat="48.36022" lon="2.72645">
        <ele>98.400001525879</ele>
        <time>2021-09-30T13:16:15Z</time>
      </trkpt>
      <trkpt lat="48.36016" lon="2.72643">
        <ele>98.400001525879</ele>
        <time>2021-09-30T13:16:20Z</time>
      </trkpt>
      <trkpt lat="48.36011" lon="2.72643">
        <ele>98.400001525879</ele>
        <time>2021-09-30T13:16:25Z</time>
      </trkpt>
      <trkpt lat="48.36006" lon="2.72644">
        <ele>98.400001525879</ele>
        <time>2021-09-30T13:16:30Z</time>
      </trkpt>
      <trkpt lat="48.35999" lon="2.72642">
        <ele>98.599998474121</ele>
        <time>2021-09-30T13:16:35Z</time>
      </trkpt>
      <trkpt lat="48.35994" lon="2.72642">
        <ele>98.599998474121</ele>
        <time>2021-09-30T13:16:40Z</time>
      </trkpt>
      <trkpt lat="48.35988" lon="2.72642">
        <ele>98.599998474121</ele>
        <time>2021-09-30T13:16:45Z</time>
      </trkpt>
      <trkpt lat="48.35984" lon="2.72642">
        <ele>98.800003051758</ele>
        <time>2021-09-30T13:16:50Z</time>
      </trkpt>
      <trkpt lat="48.35979" lon="2.72639">
        <ele>98.800003051758</ele>
        <time>2021-09-30T13:16:55Z</time>
      </trkpt>
      <trkpt lat="48.35974" lon="2.72638">
        <ele>98.800003051758</ele>
        <time>2021-09-30T13:17:00Z</time>
      </trkpt>
      <trkpt lat="48.35969" lon="2.72636">
        <ele>98.800003051758</ele>
        <time>2021-09-30T13:17:05Z</time>
      </trkpt>
      <trkpt lat="48.35964" lon="2.72634">
        <ele>99</ele>
        <time>2021-09-30T13:17:10Z</time>
      </trkpt>
      <trkpt lat="48.35959" lon="2.72633">
        <ele>99</ele>
        <time>2021-09-30T13:17:15Z</time>
      </trkpt>
      <trkpt lat="48.35955" lon="2.72631">
        <ele>98.800003051758</ele>
        <time>2021-09-30T13:17:20Z</time>
      </trkpt>
      <trkpt lat="48.3595" lon="2.72631">
        <ele>98.800003051758</ele>
        <time>2021-09-30T13:17:25Z</time>
      </trkpt>
      <trkpt lat="48.35944" lon="2.72631">
        <ele>99</ele>
        <time>2021-09-30T13:17:30Z</time>
      </trkpt>
      <trkpt lat="48.35938" lon="2.72632">
        <ele>98.800003051758</ele>
        <time>2021-09-30T13:17:35Z</time>
      </trkpt>
      <trkpt lat="48.35933" lon="2.72631">
        <ele>99</ele>
        <time>2021-09-30T13:17:40Z</time>
      </trkpt>
      <trkpt lat="48.35928" lon="2.7263">
        <ele>99</ele>
        <time>2021-09-30T13:17:45Z</time>
      </trkpt>
      <trkpt lat="48.35923" lon="2.72629">
        <ele>99.199996948242</ele>
        <time>2021-09-30T13:17:50Z</time>
      </trkpt>
      <trkpt lat="48.35917" lon="2.72629">
        <ele>99.400001525879</ele>
        <time>2021-09-30T13:17:55Z</time>
      </trkpt>
      <trkpt lat="48.35911" lon="2.72629">
        <ele>99.400001525879</ele>
        <time>2021-09-30T13:18:00Z</time>
      </trkpt>
      <trkpt lat="48.35904" lon="2.72627">
        <ele>99.400001525879</ele>
        <time>2021-09-30T13:18:05Z</time>
      </trkpt>
      <trkpt lat="48.35896" lon="2.72626">
        <ele>99.599998474121</ele>
        <time>2021-09-30T13:18:10Z</time>
      </trkpt>
      <trkpt lat="48.35891" lon="2.72625">
        <ele>99.599998474121</ele>
        <time>2021-09-30T13:18:15Z</time>
      </trkpt>
      <trkpt lat="48.35887" lon="2.72625">
        <ele>99.800003051758</ele>
        <time>2021-09-30T13:18:20Z</time>
      </trkpt>
      <trkpt lat="48.35882" lon="2.72626">
        <ele>99.800003051758</ele>
        <time>2021-09-30T13:18:25Z</time>
      </trkpt>
      <trkpt lat="48.35876" lon="2.72627">
        <ele>100.19999694824</ele>
        <time>2021-09-30T13:18:30Z</time>
      </trkpt>
      <trkpt lat="48.35871" lon="2.72627">
        <ele>100.80000305176</ele>
        <time>2021-09-30T13:18:35Z</time>
      </trkpt>
      <trkpt lat="48.35866" lon="2.72626">
        <ele>101</ele>
        <time>2021-09-30T13:18:40Z</time>
      </trkpt>
      <trkpt lat="48.35859" lon="2.72626">
        <ele>101</ele>
        <time>2021-09-30T13:18:45Z</time>
      </trkpt>
      <trkpt lat="48.35853" lon="2.72626">
        <ele>101.19999694824</ele>
        <time>2021-09-30T13:18:50Z</time>
      </trkpt>
      <trkpt lat="48.35847" lon="2.72626">
        <ele>101.40000152588</ele>
        <time>2021-09-30T13:18:55Z</time>
      </trkpt>
      <trkpt lat="48.35841" lon="2.72624">
        <ele>101.40000152588</ele>
        <time>2021-09-30T13:19:00Z</time>
      </trkpt>
      <trkpt lat="48.35835" lon="2.72623">
        <ele>101.59999847412</ele>
        <time>2021-09-30T13:19:05Z</time>
      </trkpt>
      <trkpt lat="48.35832" lon="2.72624">
        <ele>101.80000305176</ele>
        <time>2021-09-30T13:19:10Z</time>
      </trkpt>
      <trkpt lat="48.35829" lon="2.72624">
        <ele>102.19999694824</ele>
        <time>2021-09-30T13:19:15Z</time>
      </trkpt>
      <trkpt lat="48.35825" lon="2.72624">
        <ele>102.40000152588</ele>
        <time>2021-09-30T13:19:20Z</time>
      </trkpt>
      <trkpt lat="48.35819" lon="2.72622">
        <ele>102.59999847412</ele>
        <time>2021-09-30T13:19:25Z</time>
      </trkpt>
      <trkpt lat="48.35813" lon="2.72619">
        <ele>102.80000305176</ele>
        <time>2021-09-30T13:19:30Z</time>
      </trkpt>
      <trkpt lat="48.3581" lon="2.72616">
        <ele>103</ele>
        <time>2021-09-30T13:19:35Z</time>
      </trkpt>
      <trkpt lat="48.35806" lon="2.72611">
        <ele>103</ele>
        <time>2021-09-30T13:19:40Z</time>
      </trkpt>
      <trkpt lat="48.35802" lon="2.72608">
        <ele>103.19999694824</ele>
        <time>2021-09-30T13:19:45Z</time>
      </trkpt>
      <trkpt lat="48.35798" lon="2.72605">
        <ele>103.40000152588</ele>
        <time>2021-09-30T13:19:50Z</time>
      </trkpt>
      <trkpt lat="48.35792" lon="2.72601">
        <ele>103.40000152588</ele>
        <time>2021-09-30T13:19:55Z</time>
      </trkpt>
      <trkpt lat="48.35787" lon="2.72598">
        <ele>103.59999847412</ele>
        <time>2021-09-30T13:20:00Z</time>
      </trkpt>
      <trkpt lat="48.35781" lon="2.72593">
        <ele>103.80000305176</ele>
        <time>2021-09-30T13:20:05Z</time>
      </trkpt>
      <trkpt lat="48.35777" lon="2.7259">
        <ele>104</ele>
        <time>2021-09-30T13:20:10Z</time>
      </trkpt>
      <trkpt lat="48.35772" lon="2.72586">
        <ele>104.19999694824</ele>
        <time>2021-09-30T13:20:15Z</time>
      </trkpt>
      <trkpt lat="48.35768" lon="2.72581">
        <ele>104.40000152588</ele>
        <time>2021-09-30T13:20:20Z</time>
      </trkpt>
      <trkpt lat="48.35763" lon="2.7258">
        <ele>104.40000152588</ele>
        <time>2021-09-30T13:20:25Z</time>
      </trkpt>
      <trkpt lat="48.35758" lon="2.72579">
        <ele>104.59999847412</ele>
        <time>2021-09-30T13:20:30Z</time>
      </trkpt>
      <trkpt lat="48.35752" lon="2.72577">
        <ele>104.80000305176</ele>
        <time>2021-09-30T13:20:35Z</time>
      </trkpt>
      <trkpt lat="48.35748" lon="2.72573">
        <ele>105</ele>
        <time>2021-09-30T13:20:40Z</time>
      </trkpt>
      <trkpt lat="48.35743" lon="2.72569">
        <ele>105</ele>
        <time>2021-09-30T13:20:45Z</time>
      </trkpt>
      <trkpt lat="48.35737" lon="2.72566">
        <ele>105.40000152588</ele>
        <time>2021-09-30T13:20:50Z</time>
      </trkpt>
      <trkpt lat="48.35732" lon="2.72565">
        <ele>105.40000152588</ele>
        <time>2021-09-30T13:20:55Z</time>
      </trkpt>
      <trkpt lat="48.35729" lon="2.72565">
        <ele>105.59999847412</ele>
        <time>2021-09-30T13:21:00Z</time>
      </trkpt>
      <trkpt lat="48.35724" lon="2.72567">
        <ele>105.59999847412</ele>
        <time>2021-09-30T13:21:05Z</time>
      </trkpt>
      <trkpt lat="48.35718" lon="2.72567">
        <ele>105.80000305176</ele>
        <time>2021-09-30T13:21:10Z</time>
      </trkpt>
      <trkpt lat="48.35713" lon="2.72569">
        <ele>106.19999694824</ele>
        <time>2021-09-30T13:21:15Z</time>
      </trkpt>
      <trkpt lat="48.35709" lon="2.72571">
        <ele>106.40000152588</ele>
        <time>2021-09-30T13:21:20Z</time>
      </trkpt>
      <trkpt lat="48.35704" lon="2.72572">
        <ele>106.40000152588</ele>
        <time>2021-09-30T13:21:25Z</time>
      </trkpt>
      <trkpt lat="48.35698" lon="2.7257">
        <ele>106.59999847412</ele>
        <time>2021-09-30T13:21:30Z</time>
      </trkpt>
      <trkpt lat="48.35694" lon="2.7257">
        <ele>106.80000305176</ele>
        <time>2021-09-30T13:21:35Z</time>
      </trkpt>
      <trkpt lat="48.35689" lon="2.72567">
        <ele>107</ele>
        <time>2021-09-30T13:21:40Z</time>
      </trkpt>
      <trkpt lat="48.35683" lon="2.72562">
        <ele>107.40000152588</ele>
        <time>2021-09-30T13:21:45Z</time>
      </trkpt>
      <trkpt lat="48.35678" lon="2.72559">
        <ele>107.59999847412</ele>
        <time>2021-09-30T13:21:50Z</time>
      </trkpt>
      <trkpt lat="48.35673" lon="2.72555">
        <ele>107.80000305176</ele>
        <time>2021-09-30T13:21:55Z</time>
      </trkpt>
      <trkpt lat="48.35669" lon="2.7255">
        <ele>108</ele>
        <time>2021-09-30T13:22:00Z</time>
      </trkpt>
      <trkpt lat="48.35665" lon="2.72544">
        <ele>108.40000152588</ele>
        <time>2021-09-30T13:22:05Z</time>
      </trkpt>
      <trkpt lat="48.35663" lon="2.72539">
        <ele>108.59999847412</ele>
        <time>2021-09-30T13:22:10Z</time>
      </trkpt>
      <trkpt lat="48.35662" lon="2.72533">
        <ele>109</ele>
        <time>2021-09-30T13:22:15Z</time>
      </trkpt>
      <trkpt lat="48.35659" lon="2.72527">
        <ele>109.19999694824</ele>
        <time>2021-09-30T13:22:20Z</time>
      </trkpt>
      <trkpt lat="48.35657" lon="2.72521">
        <ele>109.40000152588</ele>
        <time>2021-09-30T13:22:25Z</time>
      </trkpt>
      <trkpt lat="48.35656" lon="2.72513">
        <ele>110</ele>
        <time>2021-09-30T13:22:30Z</time>
      </trkpt>
      <trkpt lat="48.35654" lon="2.72507">
        <ele>110.40000152588</ele>
        <time>2021-09-30T13:22:35Z</time>
      </trkpt>
      <trkpt lat="48.35654" lon="2.725">
        <ele>110.80000305176</ele>
        <time>2021-09-30T13:22:40Z</time>
      </trkpt>
      <trkpt lat="48.35653" lon="2.72493">
        <ele>111.19999694824</ele>
        <time>2021-09-30T13:22:45Z</time>
      </trkpt>
      <trkpt lat="48.3565" lon="2.72487">
        <ele>111.59999847412</ele>
        <time>2021-09-30T13:22:50Z</time>
      </trkpt>
      <trkpt lat="48.35647" lon="2.72484">
        <ele>112.19999694824</ele>
        <time>2021-09-30T13:22:55Z</time>
      </trkpt>
      <trkpt lat="48.35643" lon="2.72479">
        <ele>112.40000152588</ele>
        <time>2021-09-30T13:23:00Z</time>
      </trkpt>
      <trkpt lat="48.3564" lon="2.72478">
        <ele>112.80000305176</ele>
        <time>2021-09-30T13:23:05Z</time>
      </trkpt>
      <trkpt lat="48.35634" lon="2.72479">
        <ele>113</ele>
        <time>2021-09-30T13:23:10Z</time>
      </trkpt>
      <trkpt lat="48.35627" lon="2.72481">
        <ele>113.40000152588</ele>
        <time>2021-09-30T13:23:15Z</time>
      </trkpt>
      <trkpt lat="48.35622" lon="2.72482">
        <ele>113.59999847412</ele>
        <time>2021-09-30T13:23:20Z</time>
      </trkpt>
      <trkpt lat="48.35617" lon="2.72483">
        <ele>113.40000152588</ele>
        <time>2021-09-30T13:23:25Z</time>
      </trkpt>
      <trkpt lat="48.35612" lon="2.72481">
        <ele>113.40000152588</ele>
        <time>2021-09-30T13:23:30Z</time>
      </trkpt>
      <trkpt lat="48.35605" lon="2.72479">
        <ele>113.40000152588</ele>
        <time>2021-09-30T13:23:35Z</time>
      </trkpt>
      <trkpt lat="48.35601" lon="2.72477">
        <ele>113</ele>
        <time>2021-09-30T13:23:40Z</time>
      </trkpt>
      <trkpt lat="48.35596" lon="2.72475">
        <ele>112.59999847412</ele>
        <time>2021-09-30T13:23:45Z</time>
      </trkpt>
      <trkpt lat="48.35591" lon="2.72471">
        <ele>112.19999694824</ele>
        <time>2021-09-30T13:23:50Z</time>
      </trkpt>
      <trkpt lat="48.35588" lon="2.72463">
        <ele>111.80000305176</ele>
        <time>2021-09-30T13:23:55Z</time>
      </trkpt>
      <trkpt lat="48.35585" lon="2.72455">
        <ele>111.40000152588</ele>
        <time>2021-09-30T13:24:00Z</time>
      </trkpt>
      <trkpt lat="48.35583" lon="2.72447">
        <ele>111.19999694824</ele>
        <time>2021-09-30T13:24:05Z</time>
      </trkpt>
      <trkpt lat="48.35581" lon="2.72439">
        <ele>111</ele>
        <time>2021-09-30T13:24:10Z</time>
      </trkpt>
      <trkpt lat="48.35579" lon="2.72433">
        <ele>110.59999847412</ele>
        <time>2021-09-30T13:24:15Z</time>
      </trkpt>
      <trkpt lat="48.35578" lon="2.72431">
        <ele>110.40000152588</ele>
        <time>2021-09-30T13:24:20Z</time>
      </trkpt>
      <trkpt lat="48.35578" lon="2.72431">
        <ele>110.40000152588</ele>
        <time>2021-09-30T13:24:25Z</time>
      </trkpt>
      <trkpt lat="48.35579" lon="2.7243">
        <ele>110.40000152588</ele>
        <time>2021-09-30T13:24:30Z</time>
      </trkpt>
      <trkpt lat="48.3558" lon="2.72429">
        <ele>110.40000152588</ele>
        <time>2021-09-30T13:24:35Z</time>
      </trkpt>
      <trkpt lat="48.35581" lon="2.7243">
        <ele>110.40000152588</ele>
        <time>2021-09-30T13:24:40Z</time>
      </trkpt>
      <trkpt lat="48.35583" lon="2.72428">
        <ele>110.59999847412</ele>
        <time>2021-09-30T13:24:45Z</time>
      </trkpt>
      <trkpt lat="48.35585" lon="2.72427">
        <ele>110.59999847412</ele>
        <time>2021-09-30T13:24:50Z</time>
      </trkpt>
      <trkpt lat="48.35585" lon="2.72427">
        <ele>110.59999847412</ele>
        <time>2021-09-30T13:24:55Z</time>
      </trkpt>
      <trkpt lat="48.35585" lon="2.72426">
        <ele>110.59999847412</ele>
        <time>2021-09-30T13:25:00Z</time>
      </trkpt>
      <trkpt lat="48.35584" lon="2.72425">
        <ele>110.40000152588</ele>
        <time>2021-09-30T13:25:05Z</time>
      </trkpt>
      <trkpt lat="48.35584" lon="2.72424">
        <ele>110.40000152588</ele>
        <time>2021-09-30T13:25:10Z</time>
      </trkpt>
      <trkpt lat="48.35583" lon="2.72423">
        <ele>110.40000152588</ele>
        <time>2021-09-30T13:25:15Z</time>
      </trkpt>
      <trkpt lat="48.35583" lon="2.72424">
        <ele>110</ele>
        <time>2021-09-30T13:25:20Z</time>
      </trkpt>
      <trkpt lat="48.35584" lon="2.72423">
        <ele>110</ele>
        <time>2021-09-30T13:25:25Z</time>
      </trkpt>
      <trkpt lat="48.35584" lon="2.72423">
        <ele>110</ele>
        <time>2021-09-30T13:25:30Z</time>
      </trkpt>
      <trkpt lat="48.35585" lon="2.72422">
        <ele>110.19999694824</ele>
        <time>2021-09-30T13:25:35Z</time>
      </trkpt>
      <trkpt lat="48.35585" lon="2.72422">
        <ele>110.19999694824</ele>
        <time>2021-09-30T13:25:40Z</time>
      </trkpt>
      <trkpt lat="48.35586" lon="2.72421">
        <ele>110.19999694824</ele>
        <time>2021-09-30T13:25:45Z</time>
      </trkpt>
      <trkpt lat="48.35585" lon="2.72419">
        <ele>110.40000152588</ele>
        <time>2021-09-30T13:25:50Z</time>
      </trkpt>
      <trkpt lat="48.35583" lon="2.72416">
        <ele>110.59999847412</ele>
        <time>2021-09-30T13:25:55Z</time>
      </trkpt>
      <trkpt lat="48.35579" lon="2.72412">
        <ele>110.40000152588</ele>
        <time>2021-09-30T13:26:00Z</time>
      </trkpt>
      <trkpt lat="48.35576" lon="2.72408">
        <ele>110.40000152588</ele>
        <time>2021-09-30T13:26:05Z</time>
      </trkpt>
      <trkpt lat="48.35574" lon="2.72406">
        <ele>110.40000152588</ele>
        <time>2021-09-30T13:26:10Z</time>
      </trkpt>
      <trkpt lat="48.35573" lon="2.72401">
        <ele>110.40000152588</ele>
        <time>2021-09-30T13:26:15Z</time>
      </trkpt>
      <trkpt lat="48.35573" lon="2.72393">
        <ele>110.40000152588</ele>
        <time>2021-09-30T13:26:20Z</time>
      </trkpt>
      <trkpt lat="48.35573" lon="2.72386">
        <ele>110.40000152588</ele>
        <time>2021-09-30T13:26:25Z</time>
      </trkpt>
      <trkpt lat="48.35574" lon="2.72381">
        <ele>109.40000152588</ele>
        <time>2021-09-30T13:26:30Z</time>
      </trkpt>
      <trkpt lat="48.35574" lon="2.72372">
        <ele>109.19999694824</ele>
        <time>2021-09-30T13:26:35Z</time>
      </trkpt>
      <trkpt lat="48.35575" lon="2.72363">
        <ele>109.19999694824</ele>
        <time>2021-09-30T13:26:40Z</time>
      </trkpt>
      <trkpt lat="48.35575" lon="2.72357">
        <ele>109</ele>
        <time>2021-09-30T13:26:45Z</time>
      </trkpt>
      <trkpt lat="48.35577" lon="2.72349">
        <ele>108.80000305176</ele>
        <time>2021-09-30T13:26:50Z</time>
      </trkpt>
      <trkpt lat="48.35576" lon="2.72343">
        <ele>108.59999847412</ele>
        <time>2021-09-30T13:26:55Z</time>
      </trkpt>
      <trkpt lat="48.35575" lon="2.72336">
        <ele>108.59999847412</ele>
        <time>2021-09-30T13:27:00Z</time>
      </trkpt>
      <trkpt lat="48.35575" lon="2.72329">
        <ele>108.59999847412</ele>
        <time>2021-09-30T13:27:05Z</time>
      </trkpt>
      <trkpt lat="48.35575" lon="2.7232">
        <ele>108.59999847412</ele>
        <time>2021-09-30T13:27:10Z</time>
      </trkpt>
      <trkpt lat="48.35576" lon="2.72312">
        <ele>108.59999847412</ele>
        <time>2021-09-30T13:27:15Z</time>
      </trkpt>
      <trkpt lat="48.35576" lon="2.72306">
        <ele>108.59999847412</ele>
        <time>2021-09-30T13:27:20Z</time>
      </trkpt>
      <trkpt lat="48.35575" lon="2.72301">
        <ele>108.40000152588</ele>
        <time>2021-09-30T13:27:25Z</time>
      </trkpt>
      <trkpt lat="48.35574" lon="2.72295">
        <ele>108.40000152588</ele>
        <time>2021-09-30T13:27:30Z</time>
      </trkpt>
      <trkpt lat="48.35574" lon="2.72289">
        <ele>108.40000152588</ele>
        <time>2021-09-30T13:27:35Z</time>
      </trkpt>
      <trkpt lat="48.35573" lon="2.7228">
        <ele>108.40000152588</ele>
        <time>2021-09-30T13:27:40Z</time>
      </trkpt>
      <trkpt lat="48.35571" lon="2.72272">
        <ele>108.19999694824</ele>
        <time>2021-09-30T13:27:45Z</time>
      </trkpt>
      <trkpt lat="48.35568" lon="2.72263">
        <ele>108.19999694824</ele>
        <time>2021-09-30T13:27:50Z</time>
      </trkpt>
      <trkpt lat="48.35566" lon="2.72254">
        <ele>108.19999694824</ele>
        <time>2021-09-30T13:27:55Z</time>
      </trkpt>
      <trkpt lat="48.35564" lon="2.72247">
        <ele>108</ele>
        <time>2021-09-30T13:28:00Z</time>
      </trkpt>
      <trkpt lat="48.35562" lon="2.72241">
        <ele>108</ele>
        <time>2021-09-30T13:28:05Z</time>
      </trkpt>
      <trkpt lat="48.35561" lon="2.72236">
        <ele>108</ele>
        <time>2021-09-30T13:28:10Z</time>
      </trkpt>
      <trkpt lat="48.35559" lon="2.7223">
        <ele>108</ele>
        <time>2021-09-30T13:28:15Z</time>
      </trkpt>
      <trkpt lat="48.35556" lon="2.72223">
        <ele>107.80000305176</ele>
        <time>2021-09-30T13:28:20Z</time>
      </trkpt>
      <trkpt lat="48.35554" lon="2.72214">
        <ele>107.80000305176</ele>
        <time>2021-09-30T13:28:25Z</time>
      </trkpt>
      <trkpt lat="48.35551" lon="2.72206">
        <ele>107.80000305176</ele>
        <time>2021-09-30T13:28:30Z</time>
      </trkpt>
      <trkpt lat="48.35549" lon="2.72197">
        <ele>107.59999847412</ele>
        <time>2021-09-30T13:28:35Z</time>
      </trkpt>
      <trkpt lat="48.35546" lon="2.72191">
        <ele>107.59999847412</ele>
        <time>2021-09-30T13:28:40Z</time>
      </trkpt>
      <trkpt lat="48.35544" lon="2.72186">
        <ele>107.59999847412</ele>
        <time>2021-09-30T13:28:45Z</time>
      </trkpt>
      <trkpt lat="48.35543" lon="2.72177">
        <ele>107.59999847412</ele>
        <time>2021-09-30T13:28:50Z</time>
      </trkpt>
      <trkpt lat="48.35541" lon="2.72169">
        <ele>107.59999847412</ele>
        <time>2021-09-30T13:28:55Z</time>
      </trkpt>
      <trkpt lat="48.35539" lon="2.7216">
        <ele>107.59999847412</ele>
        <time>2021-09-30T13:29:00Z</time>
      </trkpt>
      <trkpt lat="48.35536" lon="2.72154">
        <ele>107.59999847412</ele>
        <time>2021-09-30T13:29:05Z</time>
      </trkpt>
      <trkpt lat="48.35534" lon="2.72147">
        <ele>107.59999847412</ele>
        <time>2021-09-30T13:29:10Z</time>
      </trkpt>
      <trkpt lat="48.35532" lon="2.72141">
        <ele>107.40000152588</ele>
        <time>2021-09-30T13:29:15Z</time>
      </trkpt>
      <trkpt lat="48.35529" lon="2.72133">
        <ele>107.40000152588</ele>
        <time>2021-09-30T13:29:20Z</time>
      </trkpt>
      <trkpt lat="48.35528" lon="2.72126">
        <ele>107.19999694824</ele>
        <time>2021-09-30T13:29:25Z</time>
      </trkpt>
      <trkpt lat="48.35527" lon="2.72117">
        <ele>107.19999694824</ele>
        <time>2021-09-30T13:29:30Z</time>
      </trkpt>
      <trkpt lat="48.35525" lon="2.72108">
        <ele>107.19999694824</ele>
        <time>2021-09-30T13:29:35Z</time>
      </trkpt>
      <trkpt lat="48.35522" lon="2.721">
        <ele>107</ele>
        <time>2021-09-30T13:29:40Z</time>
      </trkpt>
      <trkpt lat="48.35521" lon="2.72092">
        <ele>107</ele>
        <time>2021-09-30T13:29:45Z</time>
      </trkpt>
      <trkpt lat="48.35518" lon="2.72085">
        <ele>106.80000305176</ele>
        <time>2021-09-30T13:29:50Z</time>
      </trkpt>
      <trkpt lat="48.35515" lon="2.72078">
        <ele>106.59999847412</ele>
        <time>2021-09-30T13:29:55Z</time>
      </trkpt>
      <trkpt lat="48.35512" lon="2.72073">
        <ele>106.59999847412</ele>
        <time>2021-09-30T13:30:00Z</time>
      </trkpt>
      <trkpt lat="48.35508" lon="2.72065">
        <ele>106.40000152588</ele>
        <time>2021-09-30T13:30:05Z</time>
      </trkpt>
      <trkpt lat="48.35505" lon="2.7206">
        <ele>106.40000152588</ele>
        <time>2021-09-30T13:30:10Z</time>
      </trkpt>
      <trkpt lat="48.35501" lon="2.72054">
        <ele>106.40000152588</ele>
        <time>2021-09-30T13:30:15Z</time>
      </trkpt>
      <trkpt lat="48.35496" lon="2.72048">
        <ele>106.40000152588</ele>
        <time>2021-09-30T13:30:20Z</time>
      </trkpt>
      <trkpt lat="48.35491" lon="2.72044">
        <ele>106.40000152588</ele>
        <time>2021-09-30T13:30:25Z</time>
      </trkpt>
      <trkpt lat="48.35485" lon="2.72042">
        <ele>106</ele>
        <time>2021-09-30T13:30:30Z</time>
      </trkpt>
      <trkpt lat="48.3548" lon="2.72039">
        <ele>105.80000305176</ele>
        <time>2021-09-30T13:30:35Z</time>
      </trkpt>
      <trkpt lat="48.35475" lon="2.72034">
        <ele>105.80000305176</ele>
        <time>2021-09-30T13:30:40Z</time>
      </trkpt>
      <trkpt lat="48.35471" lon="2.72032">
        <ele>105.80000305176</ele>
        <time>2021-09-30T13:30:45Z</time>
      </trkpt>
      <trkpt lat="48.35466" lon="2.72031">
        <ele>105.80000305176</ele>
        <time>2021-09-30T13:30:50Z</time>
      </trkpt>
      <trkpt lat="48.35462" lon="2.72029">
        <ele>105.80000305176</ele>
        <time>2021-09-30T13:30:55Z</time>
      </trkpt>
      <trkpt lat="48.35456" lon="2.72028">
        <ele>105.40000152588</ele>
        <time>2021-09-30T13:31:00Z</time>
      </trkpt>
      <trkpt lat="48.35451" lon="2.72029">
        <ele>105.19999694824</ele>
        <time>2021-09-30T13:31:05Z</time>
      </trkpt>
      <trkpt lat="48.35444" lon="2.72028">
        <ele>105</ele>
        <time>2021-09-30T13:31:10Z</time>
      </trkpt>
      <trkpt lat="48.35438" lon="2.72028">
        <ele>104.80000305176</ele>
        <time>2021-09-30T13:31:15Z</time>
      </trkpt>
      <trkpt lat="48.35433" lon="2.72026">
        <ele>104.80000305176</ele>
        <time>2021-09-30T13:31:20Z</time>
      </trkpt>
      <trkpt lat="48.35426" lon="2.72025">
        <ele>104.80000305176</ele>
        <time>2021-09-30T13:31:25Z</time>
      </trkpt>
      <trkpt lat="48.35422" lon="2.72023">
        <ele>104.59999847412</ele>
        <time>2021-09-30T13:31:30Z</time>
      </trkpt>
      <trkpt lat="48.35417" lon="2.72022">
        <ele>104.59999847412</ele>
        <time>2021-09-30T13:31:35Z</time>
      </trkpt>
      <trkpt lat="48.35412" lon="2.72021">
        <ele>104.59999847412</ele>
        <time>2021-09-30T13:31:40Z</time>
      </trkpt>
      <trkpt lat="48.35406" lon="2.72021">
        <ele>104.80000305176</ele>
        <time>2021-09-30T13:31:45Z</time>
      </trkpt>
      <trkpt lat="48.35403" lon="2.72021">
        <ele>104.80000305176</ele>
        <time>2021-09-30T13:31:50Z</time>
      </trkpt>
      <trkpt lat="48.35397" lon="2.72022">
        <ele>104.80000305176</ele>
        <time>2021-09-30T13:31:56Z</time>
      </trkpt>
      <trkpt lat="48.35391" lon="2.72022">
        <ele>104.40000152588</ele>
        <time>2021-09-30T13:32:01Z</time>
      </trkpt>
      <trkpt lat="48.35385" lon="2.72023">
        <ele>104.40000152588</ele>
        <time>2021-09-30T13:32:06Z</time>
      </trkpt>
      <trkpt lat="48.35381" lon="2.72024">
        <ele>104.40000152588</ele>
        <time>2021-09-30T13:32:11Z</time>
      </trkpt>
      <trkpt lat="48.35374" lon="2.72026">
        <ele>104</ele>
        <time>2021-09-30T13:32:16Z</time>
      </trkpt>
      <trkpt lat="48.35369" lon="2.72028">
        <ele>103.80000305176</ele>
        <time>2021-09-30T13:32:21Z</time>
      </trkpt>
      <trkpt lat="48.35363" lon="2.72028">
        <ele>103.80000305176</ele>
        <time>2021-09-30T13:32:26Z</time>
      </trkpt>
      <trkpt lat="48.35357" lon="2.72028">
        <ele>103.80000305176</ele>
        <time>2021-09-30T13:32:31Z</time>
      </trkpt>
      <trkpt lat="48.35352" lon="2.72029">
        <ele>103.59999847412</ele>
        <time>2021-09-30T13:32:36Z</time>
      </trkpt>
      <trkpt lat="48.35345" lon="2.72028">
        <ele>103.59999847412</ele>
        <time>2021-09-30T13:32:41Z</time>
      </trkpt>
      <trkpt lat="48.35338" lon="2.72025">
        <ele>103.59999847412</ele>
        <time>2021-09-30T13:32:46Z</time>
      </trkpt>
      <trkpt lat="48.35334" lon="2.72025">
        <ele>103.40000152588</ele>
        <time>2021-09-30T13:32:51Z</time>
      </trkpt>
      <trkpt lat="48.35327" lon="2.72026">
        <ele>103.40000152588</ele>
        <time>2021-09-30T13:32:56Z</time>
      </trkpt>
      <trkpt lat="48.35323" lon="2.72024">
        <ele>103.40000152588</ele>
        <time>2021-09-30T13:33:01Z</time>
      </trkpt>
      <trkpt lat="48.35319" lon="2.72026">
        <ele>103.40000152588</ele>
        <time>2021-09-30T13:33:06Z</time>
      </trkpt>
      <trkpt lat="48.35313" lon="2.72027">
        <ele>103.40000152588</ele>
        <time>2021-09-30T13:33:11Z</time>
      </trkpt>
      <trkpt lat="48.35306" lon="2.72026">
        <ele>103.40000152588</ele>
        <time>2021-09-30T13:33:16Z</time>
      </trkpt>
      <trkpt lat="48.35299" lon="2.72026">
        <ele>103.40000152588</ele>
        <time>2021-09-30T13:33:21Z</time>
      </trkpt>
      <trkpt lat="48.35295" lon="2.72026">
        <ele>103.59999847412</ele>
        <time>2021-09-30T13:33:26Z</time>
      </trkpt>
      <trkpt lat="48.35295" lon="2.72031">
        <ele>103.59999847412</ele>
        <time>2021-09-30T13:33:31Z</time>
      </trkpt>
      <trkpt lat="48.35295" lon="2.72037">
        <ele>103.59999847412</ele>
        <time>2021-09-30T13:33:36Z</time>
      </trkpt>
      <trkpt lat="48.35297" lon="2.72043">
        <ele>104</ele>
        <time>2021-09-30T13:33:41Z</time>
      </trkpt>
      <trkpt lat="48.35296" lon="2.72048">
        <ele>104.19999694824</ele>
        <time>2021-09-30T13:33:46Z</time>
      </trkpt>
      <trkpt lat="48.35296" lon="2.72055">
        <ele>104.59999847412</ele>
        <time>2021-09-30T13:33:51Z</time>
      </trkpt>
      <trkpt lat="48.35295" lon="2.72061">
        <ele>104.59999847412</ele>
        <time>2021-09-30T13:33:56Z</time>
      </trkpt>
      <trkpt lat="48.35291" lon="2.72066">
        <ele>104.80000305176</ele>
        <time>2021-09-30T13:34:01Z</time>
      </trkpt>
      <trkpt lat="48.35289" lon="2.72074">
        <ele>105</ele>
        <time>2021-09-30T13:34:06Z</time>
      </trkpt>
      <trkpt lat="48.35289" lon="2.72083">
        <ele>105</ele>
        <time>2021-09-30T13:34:11Z</time>
      </trkpt>
      <trkpt lat="48.35289" lon="2.72092">
        <ele>105.19999694824</ele>
        <time>2021-09-30T13:34:16Z</time>
      </trkpt>
      <trkpt lat="48.35287" lon="2.721">
        <ele>105.40000152588</ele>
        <time>2021-09-30T13:34:21Z</time>
      </trkpt>
      <trkpt lat="48.35284" lon="2.72107">
        <ele>105.40000152588</ele>
        <time>2021-09-30T13:34:26Z</time>
      </trkpt>
      <trkpt lat="48.35282" lon="2.72115">
        <ele>105.59999847412</ele>
        <time>2021-09-30T13:34:31Z</time>
      </trkpt>
      <trkpt lat="48.35278" lon="2.72122">
        <ele>105.80000305176</ele>
        <time>2021-09-30T13:34:36Z</time>
      </trkpt>
      <trkpt lat="48.35274" lon="2.7213">
        <ele>106.19999694824</ele>
        <time>2021-09-30T13:34:41Z</time>
      </trkpt>
      <trkpt lat="48.35269" lon="2.72136">
        <ele>106.40000152588</ele>
        <time>2021-09-30T13:34:46Z</time>
      </trkpt>
      <trkpt lat="48.35266" lon="2.72142">
        <ele>106.40000152588</ele>
        <time>2021-09-30T13:34:51Z</time>
      </trkpt>
      <trkpt lat="48.35263" lon="2.72148">
        <ele>106.19999694824</ele>
        <time>2021-09-30T13:34:56Z</time>
      </trkpt>
      <trkpt lat="48.3526" lon="2.72152">
        <ele>106.19999694824</ele>
        <time>2021-09-30T13:35:01Z</time>
      </trkpt>
      <trkpt lat="48.35258" lon="2.7216">
        <ele>106.40000152588</ele>
        <time>2021-09-30T13:35:06Z</time>
      </trkpt>
      <trkpt lat="48.35256" lon="2.72167">
        <ele>106.19999694824</ele>
        <time>2021-09-30T13:35:11Z</time>
      </trkpt>
      <trkpt lat="48.35255" lon="2.72173">
        <ele>106</ele>
        <time>2021-09-30T13:35:16Z</time>
      </trkpt>
      <trkpt lat="48.35253" lon="2.72181">
        <ele>105.80000305176</ele>
        <time>2021-09-30T13:35:21Z</time>
      </trkpt>
      <trkpt lat="48.35251" lon="2.72188">
        <ele>105.80000305176</ele>
        <time>2021-09-30T13:35:26Z</time>
      </trkpt>
      <trkpt lat="48.35247" lon="2.72197">
        <ele>105.80000305176</ele>
        <time>2021-09-30T13:35:31Z</time>
      </trkpt>
      <trkpt lat="48.35246" lon="2.72205">
        <ele>106</ele>
        <time>2021-09-30T13:35:36Z</time>
      </trkpt>
      <trkpt lat="48.35245" lon="2.72212">
        <ele>106.40000152588</ele>
        <time>2021-09-30T13:35:41Z</time>
      </trkpt>
      <trkpt lat="48.35244" lon="2.7222">
        <ele>106.59999847412</ele>
        <time>2021-09-30T13:35:46Z</time>
      </trkpt>
      <trkpt lat="48.35241" lon="2.72228">
        <ele>106.40000152588</ele>
        <time>2021-09-30T13:35:51Z</time>
      </trkpt>
      <trkpt lat="48.35237" lon="2.72235">
        <ele>106</ele>
        <time>2021-09-30T13:35:56Z</time>
      </trkpt>
      <trkpt lat="48.35234" lon="2.72241">
        <ele>105.80000305176</ele>
        <time>2021-09-30T13:36:01Z</time>
      </trkpt>
      <trkpt lat="48.35232" lon="2.72247">
        <ele>105.80000305176</ele>
        <time>2021-09-30T13:36:06Z</time>
      </trkpt>
      <trkpt lat="48.35234" lon="2.72256">
        <ele>106</ele>
        <time>2021-09-30T13:36:11Z</time>
      </trkpt>
      <trkpt lat="48.35235" lon="2.72267">
        <ele>106</ele>
        <time>2021-09-30T13:36:16Z</time>
      </trkpt>
      <trkpt lat="48.35238" lon="2.72277">
        <ele>106.19999694824</ele>
        <time>2021-09-30T13:36:21Z</time>
      </trkpt>
      <trkpt lat="48.3524" lon="2.72287">
        <ele>106.40000152588</ele>
        <time>2021-09-30T13:36:26Z</time>
      </trkpt>
      <trkpt lat="48.35241" lon="2.72296">
        <ele>106.40000152588</ele>
        <time>2021-09-30T13:36:31Z</time>
      </trkpt>
      <trkpt lat="48.35241" lon="2.72303">
        <ele>106.40000152588</ele>
        <time>2021-09-30T13:36:36Z</time>
      </trkpt>
      <trkpt lat="48.35244" lon="2.7231">
        <ele>106.59999847412</ele>
        <time>2021-09-30T13:36:41Z</time>
      </trkpt>
      <trkpt lat="48.35246" lon="2.72317">
        <ele>106.40000152588</ele>
        <time>2021-09-30T13:36:46Z</time>
      </trkpt>
      <trkpt lat="48.35249" lon="2.72324">
        <ele>106.40000152588</ele>
        <time>2021-09-30T13:36:51Z</time>
      </trkpt>
      <trkpt lat="48.3525" lon="2.72332">
        <ele>106.59999847412</ele>
        <time>2021-09-30T13:36:56Z</time>
      </trkpt>
      <trkpt lat="48.35255" lon="2.7234">
        <ele>106.59999847412</ele>
        <time>2021-09-30T13:37:01Z</time>
      </trkpt>
      <trkpt lat="48.35258" lon="2.72349">
        <ele>106.59999847412</ele>
        <time>2021-09-30T13:37:06Z</time>
      </trkpt>
      <trkpt lat="48.35262" lon="2.72357">
        <ele>106.80000305176</ele>
        <time>2021-09-30T13:37:11Z</time>
      </trkpt>
      <trkpt lat="48.35266" lon="2.72363">
        <ele>106.80000305176</ele>
        <time>2021-09-30T13:37:16Z</time>
      </trkpt>
      <trkpt lat="48.35268" lon="2.72369">
        <ele>106.80000305176</ele>
        <time>2021-09-30T13:37:21Z</time>
      </trkpt>
      <trkpt lat="48.35268" lon="2.72376">
        <ele>106.80000305176</ele>
        <time>2021-09-30T13:37:26Z</time>
      </trkpt>
      <trkpt lat="48.35271" lon="2.72383">
        <ele>106.80000305176</ele>
        <time>2021-09-30T13:37:31Z</time>
      </trkpt>
      <trkpt lat="48.35273" lon="2.72391">
        <ele>107</ele>
        <time>2021-09-30T13:37:36Z</time>
      </trkpt>
      <trkpt lat="48.35276" lon="2.72398">
        <ele>107.19999694824</ele>
        <time>2021-09-30T13:37:41Z</time>
      </trkpt>
      <trkpt lat="48.35279" lon="2.72403">
        <ele>107.19999694824</ele>
        <time>2021-09-30T13:37:46Z</time>
      </trkpt>
      <trkpt lat="48.35281" lon="2.72411">
        <ele>107.19999694824</ele>
        <time>2021-09-30T13:37:51Z</time>
      </trkpt>
      <trkpt lat="48.35282" lon="2.72418">
        <ele>107.19999694824</ele>
        <time>2021-09-30T13:37:56Z</time>
      </trkpt>
      <trkpt lat="48.35285" lon="2.72426">
        <ele>107.19999694824</ele>
        <time>2021-09-30T13:38:01Z</time>
      </trkpt>
      <trkpt lat="48.35289" lon="2.72432">
        <ele>107.19999694824</ele>
        <time>2021-09-30T13:38:06Z</time>
      </trkpt>
      <trkpt lat="48.35293" lon="2.72437">
        <ele>107.40000152588</ele>
        <time>2021-09-30T13:38:11Z</time>
      </trkpt>
      <trkpt lat="48.35296" lon="2.72445">
        <ele>107.40000152588</ele>
        <time>2021-09-30T13:38:16Z</time>
      </trkpt>
      <trkpt lat="48.35299" lon="2.72453">
        <ele>107.40000152588</ele>
        <time>2021-09-30T13:38:21Z</time>
      </trkpt>
      <trkpt lat="48.35301" lon="2.72461">
        <ele>107.59999847412</ele>
        <time>2021-09-30T13:38:26Z</time>
      </trkpt>
      <trkpt lat="48.35302" lon="2.72471">
        <ele>107.59999847412</ele>
        <time>2021-09-30T13:38:31Z</time>
      </trkpt>
      <trkpt lat="48.35306" lon="2.72478">
        <ele>107.59999847412</ele>
        <time>2021-09-30T13:38:36Z</time>
      </trkpt>
      <trkpt lat="48.35308" lon="2.72485">
        <ele>107.59999847412</ele>
        <time>2021-09-30T13:38:41Z</time>
      </trkpt>
      <trkpt lat="48.35309" lon="2.72491">
        <ele>107.80000305176</ele>
        <time>2021-09-30T13:38:46Z</time>
      </trkpt>
      <trkpt lat="48.3531" lon="2.72497">
        <ele>107.80000305176</ele>
        <time>2021-09-30T13:38:51Z</time>
      </trkpt>
      <trkpt lat="48.35312" lon="2.72504">
        <ele>107.80000305176</ele>
        <time>2021-09-30T13:38:56Z</time>
      </trkpt>
      <trkpt lat="48.35317" lon="2.72509">
        <ele>107.80000305176</ele>
        <time>2021-09-30T13:39:01Z</time>
      </trkpt>
      <trkpt lat="48.35319" lon="2.72516">
        <ele>107.80000305176</ele>
        <time>2021-09-30T13:39:06Z</time>
      </trkpt>
      <trkpt lat="48.35323" lon="2.72524">
        <ele>107.80000305176</ele>
        <time>2021-09-30T13:39:11Z</time>
      </trkpt>
      <trkpt lat="48.35327" lon="2.7253">
        <ele>107.59999847412</ele>
        <time>2021-09-30T13:39:16Z</time>
      </trkpt>
      <trkpt lat="48.35331" lon="2.72537">
        <ele>107.59999847412</ele>
        <time>2021-09-30T13:39:21Z</time>
      </trkpt>
      <trkpt lat="48.35333" lon="2.72545">
        <ele>107.40000152588</ele>
        <time>2021-09-30T13:39:26Z</time>
      </trkpt>
      <trkpt lat="48.35336" lon="2.72551">
        <ele>107.40000152588</ele>
        <time>2021-09-30T13:39:31Z</time>
      </trkpt>
      <trkpt lat="48.35339" lon="2.72558">
        <ele>107.40000152588</ele>
        <time>2021-09-30T13:39:36Z</time>
      </trkpt>
      <trkpt lat="48.35343" lon="2.72565">
        <ele>107.40000152588</ele>
        <time>2021-09-30T13:39:41Z</time>
      </trkpt>
      <trkpt lat="48.35344" lon="2.72572">
        <ele>107.40000152588</ele>
        <time>2021-09-30T13:39:46Z</time>
      </trkpt>
      <trkpt lat="48.35348" lon="2.72579">
        <ele>107.40000152588</ele>
        <time>2021-09-30T13:39:51Z</time>
      </trkpt>
      <trkpt lat="48.35351" lon="2.72585">
        <ele>107.59999847412</ele>
        <time>2021-09-30T13:39:56Z</time>
      </trkpt>
      <trkpt lat="48.35354" lon="2.72591">
        <ele>107.59999847412</ele>
        <time>2021-09-30T13:40:01Z</time>
      </trkpt>
      <trkpt lat="48.35358" lon="2.72598">
        <ele>107.40000152588</ele>
        <time>2021-09-30T13:40:06Z</time>
      </trkpt>
      <trkpt lat="48.35361" lon="2.72607">
        <ele>107.40000152588</ele>
        <time>2021-09-30T13:40:11Z</time>
      </trkpt>
      <trkpt lat="48.35363" lon="2.72614">
        <ele>107.19999694824</ele>
        <time>2021-09-30T13:40:16Z</time>
      </trkpt>
      <trkpt lat="48.35367" lon="2.72623">
        <ele>107.19999694824</ele>
        <time>2021-09-30T13:40:21Z</time>
      </trkpt>
      <trkpt lat="48.35368" lon="2.7263">
        <ele>107.19999694824</ele>
        <time>2021-09-30T13:40:26Z</time>
      </trkpt>
      <trkpt lat="48.3537" lon="2.72639">
        <ele>107.19999694824</ele>
        <time>2021-09-30T13:40:31Z</time>
      </trkpt>
      <trkpt lat="48.35373" lon="2.72645">
        <ele>107.19999694824</ele>
        <time>2021-09-30T13:40:36Z</time>
      </trkpt>
      <trkpt lat="48.35378" lon="2.72652">
        <ele>107.40000152588</ele>
        <time>2021-09-30T13:40:41Z</time>
      </trkpt>
      <trkpt lat="48.3538" lon="2.72659">
        <ele>107.59999847412</ele>
        <time>2021-09-30T13:40:46Z</time>
      </trkpt>
      <trkpt lat="48.35383" lon="2.72666">
        <ele>107.59999847412</ele>
        <time>2021-09-30T13:40:51Z</time>
      </trkpt>
      <trkpt lat="48.35385" lon="2.72672">
        <ele>107.59999847412</ele>
        <time>2021-09-30T13:40:56Z</time>
      </trkpt>
      <trkpt lat="48.35388" lon="2.72678">
        <ele>107.80000305176</ele>
        <time>2021-09-30T13:41:01Z</time>
      </trkpt>
      <trkpt lat="48.3539" lon="2.72685">
        <ele>107.80000305176</ele>
        <time>2021-09-30T13:41:06Z</time>
      </trkpt>
      <trkpt lat="48.35392" lon="2.7269">
        <ele>107.80000305176</ele>
        <time>2021-09-30T13:41:11Z</time>
      </trkpt>
      <trkpt lat="48.35394" lon="2.72698">
        <ele>108</ele>
        <time>2021-09-30T13:41:16Z</time>
      </trkpt>
      <trkpt lat="48.35395" lon="2.72706">
        <ele>108.40000152588</ele>
        <time>2021-09-30T13:41:21Z</time>
      </trkpt>
      <trkpt lat="48.35397" lon="2.72713">
        <ele>108.59999847412</ele>
        <time>2021-09-30T13:41:26Z</time>
      </trkpt>
      <trkpt lat="48.35402" lon="2.72721">
        <ele>108.19999694824</ele>
        <time>2021-09-30T13:41:31Z</time>
      </trkpt>
      <trkpt lat="48.35406" lon="2.72728">
        <ele>108.19999694824</ele>
        <time>2021-09-30T13:41:36Z</time>
      </trkpt>
      <trkpt lat="48.35411" lon="2.72735">
        <ele>108.40000152588</ele>
        <time>2021-09-30T13:41:41Z</time>
      </trkpt>
      <trkpt lat="48.35415" lon="2.72742">
        <ele>108.40000152588</ele>
        <time>2021-09-30T13:41:46Z</time>
      </trkpt>
      <trkpt lat="48.35418" lon="2.72748">
        <ele>108.40000152588</ele>
        <time>2021-09-30T13:41:51Z</time>
      </trkpt>
      <trkpt lat="48.3542" lon="2.72757">
        <ele>108.40000152588</ele>
        <time>2021-09-30T13:41:56Z</time>
      </trkpt>
      <trkpt lat="48.35422" lon="2.72762">
        <ele>108.59999847412</ele>
        <time>2021-09-30T13:42:01Z</time>
      </trkpt>
      <trkpt lat="48.35426" lon="2.72767">
        <ele>108.59999847412</ele>
        <time>2021-09-30T13:42:06Z</time>
      </trkpt>
      <trkpt lat="48.35429" lon="2.72773">
        <ele>108.59999847412</ele>
        <time>2021-09-30T13:42:11Z</time>
      </trkpt>
      <trkpt lat="48.35433" lon="2.72778">
        <ele>108.59999847412</ele>
        <time>2021-09-30T13:42:16Z</time>
      </trkpt>
      <trkpt lat="48.35435" lon="2.72783">
        <ele>108.59999847412</ele>
        <time>2021-09-30T13:42:21Z</time>
      </trkpt>
      <trkpt lat="48.3544" lon="2.72786">
        <ele>108.80000305176</ele>
        <time>2021-09-30T13:42:26Z</time>
      </trkpt>
      <trkpt lat="48.35443" lon="2.72791">
        <ele>108.80000305176</ele>
        <time>2021-09-30T13:42:31Z</time>
      </trkpt>
      <trkpt lat="48.35445" lon="2.72798">
        <ele>108.80000305176</ele>
        <time>2021-09-30T13:42:36Z</time>
      </trkpt>
      <trkpt lat="48.35448" lon="2.72805">
        <ele>108.59999847412</ele>
        <time>2021-09-30T13:42:41Z</time>
      </trkpt>
      <trkpt lat="48.35452" lon="2.72811">
        <ele>108.59999847412</ele>
        <time>2021-09-30T13:42:46Z</time>
      </trkpt>
      <trkpt lat="48.35454" lon="2.72818">
        <ele>108.59999847412</ele>
        <time>2021-09-30T13:42:51Z</time>
      </trkpt>
      <trkpt lat="48.35458" lon="2.72826">
        <ele>108.59999847412</ele>
        <time>2021-09-30T13:42:56Z</time>
      </trkpt>
      <trkpt lat="48.35463" lon="2.72834">
        <ele>108.40000152588</ele>
        <time>2021-09-30T13:43:01Z</time>
      </trkpt>
      <trkpt lat="48.35465" lon="2.7284">
        <ele>108.40000152588</ele>
        <time>2021-09-30T13:43:06Z</time>
      </trkpt>
      <trkpt lat="48.35468" lon="2.72845">
        <ele>108.40000152588</ele>
        <time>2021-09-30T13:43:11Z</time>
      </trkpt>
      <trkpt lat="48.35473" lon="2.7285">
        <ele>108.40000152588</ele>
        <time>2021-09-30T13:43:16Z</time>
      </trkpt>
      <trkpt lat="48.35478" lon="2.72855">
        <ele>108.40000152588</ele>
        <time>2021-09-30T13:43:21Z</time>
      </trkpt>
      <trkpt lat="48.35481" lon="2.72862">
        <ele>108.59999847412</ele>
        <time>2021-09-30T13:43:26Z</time>
      </trkpt>
      <trkpt lat="48.35485" lon="2.7287">
        <ele>108.80000305176</ele>
        <time>2021-09-30T13:43:31Z</time>
      </trkpt>
      <trkpt lat="48.35489" lon="2.72878">
        <ele>109</ele>
        <time>2021-09-30T13:43:36Z</time>
      </trkpt>
      <trkpt lat="48.35492" lon="2.72884">
        <ele>109.19999694824</ele>
        <time>2021-09-30T13:43:41Z</time>
      </trkpt>
      <trkpt lat="48.35495" lon="2.72889">
        <ele>109.59999847412</ele>
        <time>2021-09-30T13:43:46Z</time>
      </trkpt>
      <trkpt lat="48.35497" lon="2.72895">
        <ele>110</ele>
        <time>2021-09-30T13:43:51Z</time>
      </trkpt>
      <trkpt lat="48.35499" lon="2.72903">
        <ele>110</ele>
        <time>2021-09-30T13:43:56Z</time>
      </trkpt>
      <trkpt lat="48.35502" lon="2.72911">
        <ele>110.19999694824</ele>
        <time>2021-09-30T13:44:01Z</time>
      </trkpt>
      <trkpt lat="48.35506" lon="2.72917">
        <ele>110.19999694824</ele>
        <time>2021-09-30T13:44:06Z</time>
      </trkpt>
      <trkpt lat="48.35512" lon="2.72922">
        <ele>110.59999847412</ele>
        <time>2021-09-30T13:44:11Z</time>
      </trkpt>
      <trkpt lat="48.35518" lon="2.72926">
        <ele>110.80000305176</ele>
        <time>2021-09-30T13:44:16Z</time>
      </trkpt>
      <trkpt lat="48.35522" lon="2.72929">
        <ele>111.19999694824</ele>
        <time>2021-09-30T13:44:21Z</time>
      </trkpt>
      <trkpt lat="48.35527" lon="2.72933">
        <ele>111.40000152588</ele>
        <time>2021-09-30T13:44:26Z</time>
      </trkpt>
      <trkpt lat="48.35529" lon="2.72938">
        <ele>111.59999847412</ele>
        <time>2021-09-30T13:44:31Z</time>
      </trkpt>
      <trkpt lat="48.35532" lon="2.7294">
        <ele>112.19999694824</ele>
        <time>2021-09-30T13:44:36Z</time>
      </trkpt>
      <trkpt lat="48.35534" lon="2.72943">
        <ele>113</ele>
        <time>2021-09-30T13:44:41Z</time>
      </trkpt>
      <trkpt lat="48.35537" lon="2.72947">
        <ele>113.80000305176</ele>
        <time>2021-09-30T13:44:46Z</time>
      </trkpt>
      <trkpt lat="48.35542" lon="2.7295">
        <ele>114.40000152588</ele>
        <time>2021-09-30T13:44:51Z</time>
      </trkpt>
      <trkpt lat="48.35545" lon="2.72953">
        <ele>114.80000305176</ele>
        <time>2021-09-30T13:44:56Z</time>
      </trkpt>
      <trkpt lat="48.3555" lon="2.72956">
        <ele>115</ele>
        <time>2021-09-30T13:45:01Z</time>
      </trkpt>
      <trkpt lat="48.35553" lon="2.72961">
        <ele>115.19999694824</ele>
        <time>2021-09-30T13:45:06Z</time>
      </trkpt>
      <trkpt lat="48.35556" lon="2.72965">
        <ele>116.19999694824</ele>
        <time>2021-09-30T13:45:11Z</time>
      </trkpt>
      <trkpt lat="48.3556" lon="2.72967">
        <ele>116.80000305176</ele>
        <time>2021-09-30T13:45:16Z</time>
      </trkpt>
      <trkpt lat="48.35566" lon="2.72965">
        <ele>117.19999694824</ele>
        <time>2021-09-30T13:45:21Z</time>
      </trkpt>
      <trkpt lat="48.3557" lon="2.72964">
        <ele>118</ele>
        <time>2021-09-30T13:45:26Z</time>
      </trkpt>
      <trkpt lat="48.35574" lon="2.72966">
        <ele>118.59999847412</ele>
        <time>2021-09-30T13:45:31Z</time>
      </trkpt>
      <trkpt lat="48.35578" lon="2.72968">
        <ele>118.80000305176</ele>
        <time>2021-09-30T13:45:36Z</time>
      </trkpt>
      <trkpt lat="48.35583" lon="2.72972">
        <ele>119</ele>
        <time>2021-09-30T13:45:41Z</time>
      </trkpt>
      <trkpt lat="48.35587" lon="2.72973">
        <ele>119.19999694824</ele>
        <time>2021-09-30T13:45:46Z</time>
      </trkpt>
      <trkpt lat="48.3559" lon="2.72971">
        <ele>119.59999847412</ele>
        <time>2021-09-30T13:45:51Z</time>
      </trkpt>
      <trkpt lat="48.35594" lon="2.72974">
        <ele>120.59999847412</ele>
        <time>2021-09-30T13:45:56Z</time>
      </trkpt>
      <trkpt lat="48.35597" lon="2.72973">
        <ele>121.40000152588</ele>
        <time>2021-09-30T13:46:01Z</time>
      </trkpt>
      <trkpt lat="48.356" lon="2.72973">
        <ele>122.40000152588</ele>
        <time>2021-09-30T13:46:06Z</time>
      </trkpt>
      <trkpt lat="48.35602" lon="2.72973">
        <ele>123</ele>
        <time>2021-09-30T13:46:11Z</time>
      </trkpt>
      <trkpt lat="48.35604" lon="2.72973">
        <ele>123.80000305176</ele>
        <time>2021-09-30T13:46:16Z</time>
      </trkpt>
      <trkpt lat="48.35608" lon="2.72972">
        <ele>124.40000152588</ele>
        <time>2021-09-30T13:46:21Z</time>
      </trkpt>
      <trkpt lat="48.35611" lon="2.72972">
        <ele>124.59999847412</ele>
        <time>2021-09-30T13:46:26Z</time>
      </trkpt>
      <trkpt lat="48.35612" lon="2.72971">
        <ele>124.80000305176</ele>
        <time>2021-09-30T13:46:31Z</time>
      </trkpt>
      <trkpt lat="48.35615" lon="2.72971">
        <ele>125.80000305176</ele>
        <time>2021-09-30T13:46:36Z</time>
      </trkpt>
      <trkpt lat="48.35618" lon="2.72972">
        <ele>126.19999694824</ele>
        <time>2021-09-30T13:46:41Z</time>
      </trkpt>
      <trkpt lat="48.3562" lon="2.72973">
        <ele>127.19999694824</ele>
        <time>2021-09-30T13:46:46Z</time>
      </trkpt>
      <trkpt lat="48.35622" lon="2.72976">
        <ele>127.59999847412</ele>
        <time>2021-09-30T13:46:51Z</time>
      </trkpt>
      <trkpt lat="48.35623" lon="2.72976">
        <ele>128.60000610352</ele>
        <time>2021-09-30T13:46:56Z</time>
      </trkpt>
      <trkpt lat="48.35624" lon="2.72976">
        <ele>129.19999694824</ele>
        <time>2021-09-30T13:47:01Z</time>
      </trkpt>
      <trkpt lat="48.35625" lon="2.72976">
        <ele>130</ele>
        <time>2021-09-30T13:47:06Z</time>
      </trkpt>
      <trkpt lat="48.35627" lon="2.72975">
        <ele>130.80000305176</ele>
        <time>2021-09-30T13:47:11Z</time>
      </trkpt>
      <trkpt lat="48.35628" lon="2.72976">
        <ele>131.39999389648</ele>
        <time>2021-09-30T13:47:16Z</time>
      </trkpt>
      <trkpt lat="48.35629" lon="2.72978">
        <ele>132.19999694824</ele>
        <time>2021-09-30T13:47:21Z</time>
      </trkpt>
      <trkpt lat="48.35632" lon="2.72978">
        <ele>132.80000305176</ele>
        <time>2021-09-30T13:47:26Z</time>
      </trkpt>
      <trkpt lat="48.35634" lon="2.72979">
        <ele>133.80000305176</ele>
        <time>2021-09-30T13:47:31Z</time>
      </trkpt>
      <trkpt lat="48.3564" lon="2.72984">
        <ele>135</ele>
        <time>2021-09-30T13:47:36Z</time>
      </trkpt>
      <trkpt lat="48.35642" lon="2.72986">
        <ele>135.80000305176</ele>
        <time>2021-09-30T13:47:41Z</time>
      </trkpt>
      <trkpt lat="48.35644" lon="2.72986">
        <ele>136.60000610352</ele>
        <time>2021-09-30T13:47:46Z</time>
      </trkpt>
      <trkpt lat="48.35648" lon="2.72987">
        <ele>137.19999694824</ele>
        <time>2021-09-30T13:47:51Z</time>
      </trkpt>
      <trkpt lat="48.35651" lon="2.7299">
        <ele>137.80000305176</ele>
        <time>2021-09-30T13:47:56Z</time>
      </trkpt>
      <trkpt lat="48.35652" lon="2.72995">
        <ele>138.39999389648</ele>
        <time>2021-09-30T13:48:01Z</time>
      </trkpt>
      <trkpt lat="48.35654" lon="2.72996">
        <ele>138.80000305176</ele>
        <time>2021-09-30T13:48:06Z</time>
      </trkpt>
      <trkpt lat="48.35656" lon="2.72998">
        <ele>139.80000305176</ele>
        <time>2021-09-30T13:48:11Z</time>
      </trkpt>
      <trkpt lat="48.35657" lon="2.72999">
        <ele>140.60000610352</ele>
        <time>2021-09-30T13:48:16Z</time>
      </trkpt>
      <trkpt lat="48.35661" lon="2.73002">
        <ele>141.60000610352</ele>
        <time>2021-09-30T13:48:21Z</time>
      </trkpt>
      <trkpt lat="48.35661" lon="2.73002">
        <ele>142.39999389648</ele>
        <time>2021-09-30T13:48:26Z</time>
      </trkpt>
      <trkpt lat="48.35661" lon="2.73004">
        <ele>142.80000305176</ele>
        <time>2021-09-30T13:48:31Z</time>
      </trkpt>
      <trkpt lat="48.35663" lon="2.73006">
        <ele>143.19999694824</ele>
        <time>2021-09-30T13:48:36Z</time>
      </trkpt>
      <trkpt lat="48.35665" lon="2.73009">
        <ele>143.80000305176</ele>
        <time>2021-09-30T13:48:41Z</time>
      </trkpt>
      <trkpt lat="48.35668" lon="2.73012">
        <ele>145.19999694824</ele>
        <time>2021-09-30T13:48:46Z</time>
      </trkpt>
      <trkpt lat="48.35672" lon="2.73014">
        <ele>146.39999389648</ele>
        <time>2021-09-30T13:48:51Z</time>
      </trkpt>
      <trkpt lat="48.35675" lon="2.73017">
        <ele>147.19999694824</ele>
        <time>2021-09-30T13:48:56Z</time>
      </trkpt>
      <trkpt lat="48.35677" lon="2.73019">
        <ele>147.80000305176</ele>
        <time>2021-09-30T13:49:01Z</time>
      </trkpt>
      <trkpt lat="48.35679" lon="2.73022">
        <ele>148.80000305176</ele>
        <time>2021-09-30T13:49:06Z</time>
      </trkpt>
      <trkpt lat="48.35682" lon="2.73023">
        <ele>149.60000610352</ele>
        <time>2021-09-30T13:49:11Z</time>
      </trkpt>
      <trkpt lat="48.35683" lon="2.73026">
        <ele>150.19999694824</ele>
        <time>2021-09-30T13:49:16Z</time>
      </trkpt>
      <trkpt lat="48.35685" lon="2.73031">
        <ele>151.19999694824</ele>
        <time>2021-09-30T13:49:21Z</time>
      </trkpt>
      <trkpt lat="48.35688" lon="2.73035">
        <ele>151.60000610352</ele>
        <time>2021-09-30T13:49:26Z</time>
      </trkpt>
      <trkpt lat="48.35689" lon="2.7304">
        <ele>152.60000610352</ele>
        <time>2021-09-30T13:49:31Z</time>
      </trkpt>
      <trkpt lat="48.3569" lon="2.73044">
        <ele>153.60000610352</ele>
        <time>2021-09-30T13:49:36Z</time>
      </trkpt>
      <trkpt lat="48.35691" lon="2.73045">
        <ele>154</ele>
        <time>2021-09-30T13:49:41Z</time>
      </trkpt>
      <trkpt lat="48.3569" lon="2.73045">
        <ele>154</ele>
        <time>2021-09-30T13:49:46Z</time>
      </trkpt>
      <trkpt lat="48.35691" lon="2.73044">
        <ele>154</ele>
        <time>2021-09-30T13:49:51Z</time>
      </trkpt>
      <trkpt lat="48.3569" lon="2.73041">
        <ele>154</ele>
        <time>2021-09-30T13:49:56Z</time>
      </trkpt>
      <trkpt lat="48.35688" lon="2.73037">
        <ele>153.19999694824</ele>
        <time>2021-09-30T13:50:01Z</time>
      </trkpt>
      <trkpt lat="48.35687" lon="2.73037">
        <ele>152.80000305176</ele>
        <time>2021-09-30T13:50:06Z</time>
      </trkpt>
      <trkpt lat="48.35687" lon="2.73036">
        <ele>152.80000305176</ele>
        <time>2021-09-30T13:50:11Z</time>
      </trkpt>
      <trkpt lat="48.35687" lon="2.73036">
        <ele>152.80000305176</ele>
        <time>2021-09-30T13:50:16Z</time>
      </trkpt>
      <trkpt lat="48.35688" lon="2.73035">
        <ele>152.80000305176</ele>
        <time>2021-09-30T13:50:21Z</time>
      </trkpt>
      <trkpt lat="48.35688" lon="2.73035">
        <ele>152.80000305176</ele>
        <time>2021-09-30T13:50:26Z</time>
      </trkpt>
      <trkpt lat="48.35687" lon="2.73035">
        <ele>152.80000305176</ele>
        <time>2021-09-30T13:50:31Z</time>
      </trkpt>
      <trkpt lat="48.35685" lon="2.73042">
        <ele>152.80000305176</ele>
        <time>2021-09-30T13:50:36Z</time>
      </trkpt>
      <trkpt lat="48.35687" lon="2.73046">
        <ele>152.80000305176</ele>
        <time>2021-09-30T13:50:41Z</time>
      </trkpt>
      <trkpt lat="48.35689" lon="2.73048">
        <ele>153.60000610352</ele>
        <time>2021-09-30T13:50:46Z</time>
      </trkpt>
      <trkpt lat="48.35689" lon="2.73048">
        <ele>153.80000305176</ele>
        <time>2021-09-30T13:50:51Z</time>
      </trkpt>
      <trkpt lat="48.35688" lon="2.73046">
        <ele>153.80000305176</ele>
        <time>2021-09-30T13:50:56Z</time>
      </trkpt>
      <trkpt lat="48.35689" lon="2.73045">
        <ele>153.80000305176</ele>
        <time>2021-09-30T13:51:01Z</time>
      </trkpt>
      <trkpt lat="48.35689" lon="2.73045">
        <ele>154</ele>
        <time>2021-09-30T13:51:06Z</time>
      </trkpt>
      <trkpt lat="48.3569" lon="2.73045">
        <ele>154.19999694824</ele>
        <time>2021-09-30T13:51:11Z</time>
      </trkpt>
      <trkpt lat="48.35692" lon="2.73044">
        <ele>154</ele>
        <time>2021-09-30T13:51:16Z</time>
      </trkpt>
      <trkpt lat="48.35693" lon="2.73044">
        <ele>154</ele>
        <time>2021-09-30T13:51:21Z</time>
      </trkpt>
      <trkpt lat="48.35694" lon="2.73044">
        <ele>154</ele>
        <time>2021-09-30T13:51:26Z</time>
      </trkpt>
      <trkpt lat="48.35694" lon="2.73044">
        <ele>154</ele>
        <time>2021-09-30T13:51:31Z</time>
      </trkpt>
      <trkpt lat="48.35694" lon="2.73044">
        <ele>153.80000305176</ele>
        <time>2021-09-30T13:51:36Z</time>
      </trkpt>
      <trkpt lat="48.35693" lon="2.73043">
        <ele>153.80000305176</ele>
        <time>2021-09-30T13:51:41Z</time>
      </trkpt>
      <trkpt lat="48.35693" lon="2.73043">
        <ele>154</ele>
        <time>2021-09-30T13:51:46Z</time>
      </trkpt>
      <trkpt lat="48.35693" lon="2.73043">
        <ele>154</ele>
        <time>2021-09-30T13:51:51Z</time>
      </trkpt>
      <trkpt lat="48.35692" lon="2.73045">
        <ele>154</ele>
        <time>2021-09-30T13:51:56Z</time>
      </trkpt>
      <trkpt lat="48.35691" lon="2.73044">
        <ele>153.80000305176</ele>
        <time>2021-09-30T13:52:01Z</time>
      </trkpt>
      <trkpt lat="48.35692" lon="2.73044">
        <ele>153.80000305176</ele>
        <time>2021-09-30T13:52:06Z</time>
      </trkpt>
      <trkpt lat="48.35691" lon="2.73044">
        <ele>154</ele>
        <time>2021-09-30T13:52:11Z</time>
      </trkpt>
      <trkpt lat="48.3569" lon="2.73044">
        <ele>154</ele>
        <time>2021-09-30T13:52:16Z</time>
      </trkpt>
      <trkpt lat="48.35692" lon="2.73043">
        <ele>154.19999694824</ele>
        <time>2021-09-30T13:52:21Z</time>
      </trkpt>
      <trkpt lat="48.35693" lon="2.73042">
        <ele>154.19999694824</ele>
        <time>2021-09-30T13:52:26Z</time>
      </trkpt>
      <trkpt lat="48.35693" lon="2.73041">
        <ele>154.19999694824</ele>
        <time>2021-09-30T13:52:31Z</time>
      </trkpt>
      <trkpt lat="48.35692" lon="2.73041">
        <ele>154.19999694824</ele>
        <time>2021-09-30T13:52:36Z</time>
      </trkpt>
      <trkpt lat="48.35693" lon="2.73042">
        <ele>154.19999694824</ele>
        <time>2021-09-30T13:52:41Z</time>
      </trkpt>
      <trkpt lat="48.35693" lon="2.73043">
        <ele>154.19999694824</ele>
        <time>2021-09-30T13:52:46Z</time>
      </trkpt>
      <trkpt lat="48.35692" lon="2.73044">
        <ele>154.19999694824</ele>
        <time>2021-09-30T13:52:51Z</time>
      </trkpt>
      <trkpt lat="48.35692" lon="2.73043">
        <ele>154.19999694824</ele>
        <time>2021-09-30T13:52:56Z</time>
      </trkpt>
      <trkpt lat="48.35693" lon="2.73043">
        <ele>154.19999694824</ele>
        <time>2021-09-30T13:53:01Z</time>
      </trkpt>
      <trkpt lat="48.35693" lon="2.73043">
        <ele>154.19999694824</ele>
        <time>2021-09-30T13:53:06Z</time>
      </trkpt>
      <trkpt lat="48.35693" lon="2.73043">
        <ele>154.19999694824</ele>
        <time>2021-09-30T13:53:11Z</time>
      </trkpt>
      <trkpt lat="48.35692" lon="2.73043">
        <ele>154.19999694824</ele>
        <time>2021-09-30T13:53:16Z</time>
      </trkpt>
      <trkpt lat="48.35692" lon="2.73044">
        <ele>154.19999694824</ele>
        <time>2021-09-30T13:53:21Z</time>
      </trkpt>
      <trkpt lat="48.35692" lon="2.73044">
        <ele>154.19999694824</ele>
        <time>2021-09-30T13:53:26Z</time>
      </trkpt>
      <trkpt lat="48.35691" lon="2.73045">
        <ele>154.19999694824</ele>
        <time>2021-09-30T13:53:31Z</time>
      </trkpt>
      <trkpt lat="48.3569" lon="2.73045">
        <ele>154.19999694824</ele>
        <time>2021-09-30T13:53:36Z</time>
      </trkpt>
      <trkpt lat="48.3569" lon="2.73044">
        <ele>154.19999694824</ele>
        <time>2021-09-30T13:53:41Z</time>
      </trkpt>
      <trkpt lat="48.3569" lon="2.73044">
        <ele>154.19999694824</ele>
        <time>2021-09-30T13:53:46Z</time>
      </trkpt>
      <trkpt lat="48.3569" lon="2.73045">
        <ele>154.19999694824</ele>
        <time>2021-09-30T13:53:51Z</time>
      </trkpt>
      <trkpt lat="48.3569" lon="2.73045">
        <ele>154.19999694824</ele>
        <time>2021-09-30T13:53:56Z</time>
      </trkpt>
      <trkpt lat="48.3569" lon="2.73045">
        <ele>154.19999694824</ele>
        <time>2021-09-30T13:54:01Z</time>
      </trkpt>
      <trkpt lat="48.35691" lon="2.73045">
        <ele>154.19999694824</ele>
        <time>2021-09-30T13:54:06Z</time>
      </trkpt>
      <trkpt lat="48.3569" lon="2.73045">
        <ele>154.19999694824</ele>
        <time>2021-09-30T13:54:11Z</time>
      </trkpt>
      <trkpt lat="48.35691" lon="2.73045">
        <ele>154.19999694824</ele>
        <time>2021-09-30T13:54:16Z</time>
      </trkpt>
      <trkpt lat="48.35691" lon="2.73046">
        <ele>154.19999694824</ele>
        <time>2021-09-30T13:54:21Z</time>
      </trkpt>
      <trkpt lat="48.3569" lon="2.73046">
        <ele>154.19999694824</ele>
        <time>2021-09-30T13:54:26Z</time>
      </trkpt>
      <trkpt lat="48.35689" lon="2.73046">
        <ele>154.19999694824</ele>
        <time>2021-09-30T13:54:31Z</time>
      </trkpt>
      <trkpt lat="48.35688" lon="2.73046">
        <ele>154.19999694824</ele>
        <time>2021-09-30T13:54:36Z</time>
      </trkpt>
      <trkpt lat="48.35687" lon="2.73046">
        <ele>154.19999694824</ele>
        <time>2021-09-30T13:54:41Z</time>
      </trkpt>
      <trkpt lat="48.35687" lon="2.73046">
        <ele>154.19999694824</ele>
        <time>2021-09-30T13:54:46Z</time>
      </trkpt>
      <trkpt lat="48.35689" lon="2.73047">
        <ele>154.19999694824</ele>
        <time>2021-09-30T13:54:51Z</time>
      </trkpt>
      <trkpt lat="48.35692" lon="2.73049">
        <ele>154.19999694824</ele>
        <time>2021-09-30T13:54:56Z</time>
      </trkpt>
      <trkpt lat="48.35693" lon="2.7305">
        <ele>154.19999694824</ele>
        <time>2021-09-30T13:55:01Z</time>
      </trkpt>
      <trkpt lat="48.35694" lon="2.73053">
        <ele>154.19999694824</ele>
        <time>2021-09-30T13:55:06Z</time>
      </trkpt>
      <trkpt lat="48.35698" lon="2.73058">
        <ele>154.19999694824</ele>
        <time>2021-09-30T13:55:11Z</time>
      </trkpt>
      <trkpt lat="48.35702" lon="2.73061">
        <ele>154</ele>
        <time>2021-09-30T13:55:16Z</time>
      </trkpt>
      <trkpt lat="48.35704" lon="2.73062">
        <ele>154.19999694824</ele>
        <time>2021-09-30T13:55:21Z</time>
      </trkpt>
      <trkpt lat="48.35707" lon="2.73065">
        <ele>154.19999694824</ele>
        <time>2021-09-30T13:55:26Z</time>
      </trkpt>
      <trkpt lat="48.35707" lon="2.73066">
        <ele>154.19999694824</ele>
        <time>2021-09-30T13:55:31Z</time>
      </trkpt>
      <trkpt lat="48.35707" lon="2.73066">
        <ele>154.39999389648</ele>
        <time>2021-09-30T13:55:36Z</time>
      </trkpt>
      <trkpt lat="48.35708" lon="2.73066">
        <ele>154.39999389648</ele>
        <time>2021-09-30T13:55:41Z</time>
      </trkpt>
      <trkpt lat="48.35709" lon="2.73065">
        <ele>154.39999389648</ele>
        <time>2021-09-30T13:55:46Z</time>
      </trkpt>
      <trkpt lat="48.35709" lon="2.73064">
        <ele>154.39999389648</ele>
        <time>2021-09-30T13:55:51Z</time>
      </trkpt>
      <trkpt lat="48.35711" lon="2.73064">
        <ele>154.39999389648</ele>
        <time>2021-09-30T13:55:56Z</time>
      </trkpt>
      <trkpt lat="48.3571" lon="2.73063">
        <ele>154.39999389648</ele>
        <time>2021-09-30T13:56:01Z</time>
      </trkpt>
      <trkpt lat="48.35711" lon="2.73062">
        <ele>154.39999389648</ele>
        <time>2021-09-30T13:56:06Z</time>
      </trkpt>
      <trkpt lat="48.3571" lon="2.73061">
        <ele>154.60000610352</ele>
        <time>2021-09-30T13:56:11Z</time>
      </trkpt>
      <trkpt lat="48.35712" lon="2.73061">
        <ele>154.39999389648</ele>
        <time>2021-09-30T13:56:16Z</time>
      </trkpt>
      <trkpt lat="48.35712" lon="2.73061">
        <ele>154.39999389648</ele>
        <time>2021-09-30T13:56:21Z</time>
      </trkpt>
      <trkpt lat="48.35712" lon="2.73062">
        <ele>154.39999389648</ele>
        <time>2021-09-30T13:56:26Z</time>
      </trkpt>
      <trkpt lat="48.35711" lon="2.73064">
        <ele>154.60000610352</ele>
        <time>2021-09-30T13:56:31Z</time>
      </trkpt>
      <trkpt lat="48.35707" lon="2.73064">
        <ele>154.39999389648</ele>
        <time>2021-09-30T13:56:36Z</time>
      </trkpt>
      <trkpt lat="48.35703" lon="2.73069">
        <ele>154.39999389648</ele>
        <time>2021-09-30T13:56:41Z</time>
      </trkpt>
      <trkpt lat="48.357" lon="2.73073">
        <ele>154.39999389648</ele>
        <time>2021-09-30T13:56:46Z</time>
      </trkpt>
      <trkpt lat="48.35697" lon="2.73074">
        <ele>154.60000610352</ele>
        <time>2021-09-30T13:56:51Z</time>
      </trkpt>
      <trkpt lat="48.35692" lon="2.73078">
        <ele>154.19999694824</ele>
        <time>2021-09-30T13:56:56Z</time>
      </trkpt>
      <trkpt lat="48.35689" lon="2.73082">
        <ele>154</ele>
        <time>2021-09-30T13:57:01Z</time>
      </trkpt>
      <trkpt lat="48.35688" lon="2.73084">
        <ele>153.80000305176</ele>
        <time>2021-09-30T13:57:06Z</time>
      </trkpt>
      <trkpt lat="48.35688" lon="2.73085">
        <ele>153.60000610352</ele>
        <time>2021-09-30T13:57:11Z</time>
      </trkpt>
      <trkpt lat="48.35689" lon="2.73088">
        <ele>152.80000305176</ele>
        <time>2021-09-30T13:57:16Z</time>
      </trkpt>
      <trkpt lat="48.3569" lon="2.7309">
        <ele>152.19999694824</ele>
        <time>2021-09-30T13:57:21Z</time>
      </trkpt>
      <trkpt lat="48.3569" lon="2.73091">
        <ele>151.39999389648</ele>
        <time>2021-09-30T13:57:26Z</time>
      </trkpt>
      <trkpt lat="48.35691" lon="2.73093">
        <ele>150.39999389648</ele>
        <time>2021-09-30T13:57:31Z</time>
      </trkpt>
      <trkpt lat="48.35691" lon="2.73097">
        <ele>150</ele>
        <time>2021-09-30T13:57:36Z</time>
      </trkpt>
      <trkpt lat="48.35693" lon="2.731">
        <ele>150</ele>
        <time>2021-09-30T13:57:41Z</time>
      </trkpt>
      <trkpt lat="48.35692" lon="2.73101">
        <ele>150</ele>
        <time>2021-09-30T13:57:46Z</time>
      </trkpt>
      <trkpt lat="48.3569" lon="2.73102">
        <ele>150</ele>
        <time>2021-09-30T13:57:51Z</time>
      </trkpt>
      <trkpt lat="48.35691" lon="2.73102">
        <ele>150</ele>
        <time>2021-09-30T13:57:56Z</time>
      </trkpt>
      <trkpt lat="48.35693" lon="2.73099">
        <ele>150.19999694824</ele>
        <time>2021-09-30T13:58:01Z</time>
      </trkpt>
      <trkpt lat="48.35693" lon="2.73096">
        <ele>150.19999694824</ele>
        <time>2021-09-30T13:58:06Z</time>
      </trkpt>
      <trkpt lat="48.35693" lon="2.73094">
        <ele>150.39999389648</ele>
        <time>2021-09-30T13:58:11Z</time>
      </trkpt>
      <trkpt lat="48.35693" lon="2.73094">
        <ele>150.80000305176</ele>
        <time>2021-09-30T13:58:16Z</time>
      </trkpt>
      <trkpt lat="48.35693" lon="2.73093">
        <ele>150.60000610352</ele>
        <time>2021-09-30T13:58:21Z</time>
      </trkpt>
      <trkpt lat="48.35692" lon="2.73092">
        <ele>150.39999389648</ele>
        <time>2021-09-30T13:58:26Z</time>
      </trkpt>
      <trkpt lat="48.35691" lon="2.73093">
        <ele>150.60000610352</ele>
        <time>2021-09-30T13:58:31Z</time>
      </trkpt>
      <trkpt lat="48.3569" lon="2.73093">
        <ele>150.60000610352</ele>
        <time>2021-09-30T13:58:36Z</time>
      </trkpt>
      <trkpt lat="48.35691" lon="2.73093">
        <ele>150.60000610352</ele>
        <time>2021-09-30T13:58:41Z</time>
      </trkpt>
      <trkpt lat="48.35692" lon="2.73092">
        <ele>150.39999389648</ele>
        <time>2021-09-30T13:58:46Z</time>
      </trkpt>
      <trkpt lat="48.35692" lon="2.73092">
        <ele>150.39999389648</ele>
        <time>2021-09-30T13:58:51Z</time>
      </trkpt>
      <trkpt lat="48.35691" lon="2.73092">
        <ele>150.60000610352</ele>
        <time>2021-09-30T13:58:56Z</time>
      </trkpt>
      <trkpt lat="48.35691" lon="2.73092">
        <ele>150.60000610352</ele>
        <time>2021-09-30T13:59:01Z</time>
      </trkpt>
      <trkpt lat="48.3569" lon="2.73092">
        <ele>150.60000610352</ele>
        <time>2021-09-30T13:59:06Z</time>
      </trkpt>
      <trkpt lat="48.3569" lon="2.73092">
        <ele>150.60000610352</ele>
        <time>2021-09-30T13:59:11Z</time>
      </trkpt>
      <trkpt lat="48.35693" lon="2.73092">
        <ele>150.60000610352</ele>
        <time>2021-09-30T13:59:16Z</time>
      </trkpt>
      <trkpt lat="48.35697" lon="2.73092">
        <ele>150.60000610352</ele>
        <time>2021-09-30T13:59:21Z</time>
      </trkpt>
      <trkpt lat="48.357" lon="2.73092">
        <ele>150.60000610352</ele>
        <time>2021-09-30T13:59:26Z</time>
      </trkpt>
      <trkpt lat="48.35701" lon="2.73093">
        <ele>150.60000610352</ele>
        <time>2021-09-30T13:59:31Z</time>
      </trkpt>
      <trkpt lat="48.35705" lon="2.73093">
        <ele>150.60000610352</ele>
        <time>2021-09-30T13:59:36Z</time>
      </trkpt>
      <trkpt lat="48.35707" lon="2.73097">
        <ele>150.60000610352</ele>
        <time>2021-09-30T13:59:41Z</time>
      </trkpt>
      <trkpt lat="48.3571" lon="2.73101">
        <ele>150.60000610352</ele>
        <time>2021-09-30T13:59:46Z</time>
      </trkpt>
      <trkpt lat="48.35713" lon="2.73104">
        <ele>150.60000610352</ele>
        <time>2021-09-30T13:59:51Z</time>
      </trkpt>
      <trkpt lat="48.35716" lon="2.73109">
        <ele>150.60000610352</ele>
        <time>2021-09-30T13:59:56Z</time>
      </trkpt>
      <trkpt lat="48.35719" lon="2.73116">
        <ele>150.19999694824</ele>
        <time>2021-09-30T14:00:01Z</time>
      </trkpt>
      <trkpt lat="48.3572" lon="2.73122">
        <ele>147</ele>
        <time>2021-09-30T14:00:06Z</time>
      </trkpt>
      <trkpt lat="48.35719" lon="2.73126">
        <ele>147</ele>
        <time>2021-09-30T14:00:11Z</time>
      </trkpt>
      <trkpt lat="48.35718" lon="2.73132">
        <ele>147.39999389648</ele>
        <time>2021-09-30T14:00:16Z</time>
      </trkpt>
      <trkpt lat="48.35717" lon="2.73136">
        <ele>147.60000610352</ele>
        <time>2021-09-30T14:00:21Z</time>
      </trkpt>
      <trkpt lat="48.35717" lon="2.73138">
        <ele>147.39999389648</ele>
        <time>2021-09-30T14:00:26Z</time>
      </trkpt>
      <trkpt lat="48.35718" lon="2.73141">
        <ele>147</ele>
        <time>2021-09-30T14:00:31Z</time>
      </trkpt>
      <trkpt lat="48.35718" lon="2.73144">
        <ele>146.39999389648</ele>
        <time>2021-09-30T14:00:36Z</time>
      </trkpt>
      <trkpt lat="48.35718" lon="2.7315">
        <ele>146</ele>
        <time>2021-09-30T14:00:41Z</time>
      </trkpt>
      <trkpt lat="48.35719" lon="2.73155">
        <ele>145.60000610352</ele>
        <time>2021-09-30T14:00:46Z</time>
      </trkpt>
      <trkpt lat="48.3572" lon="2.73158">
        <ele>145</ele>
        <time>2021-09-30T14:00:51Z</time>
      </trkpt>
      <trkpt lat="48.35722" lon="2.73163">
        <ele>144.39999389648</ele>
        <time>2021-09-30T14:00:56Z</time>
      </trkpt>
      <trkpt lat="48.35724" lon="2.73167">
        <ele>143.60000610352</ele>
        <time>2021-09-30T14:01:01Z</time>
      </trkpt>
      <trkpt lat="48.35726" lon="2.7317">
        <ele>142.80000305176</ele>
        <time>2021-09-30T14:01:06Z</time>
      </trkpt>
      <trkpt lat="48.35726" lon="2.73174">
        <ele>142.19999694824</ele>
        <time>2021-09-30T14:01:11Z</time>
      </trkpt>
      <trkpt lat="48.35728" lon="2.73173">
        <ele>141.39999389648</ele>
        <time>2021-09-30T14:01:16Z</time>
      </trkpt>
      <trkpt lat="48.3573" lon="2.73176">
        <ele>140.80000305176</ele>
        <time>2021-09-30T14:01:21Z</time>
      </trkpt>
      <trkpt lat="48.35733" lon="2.73178">
        <ele>140.60000610352</ele>
        <time>2021-09-30T14:01:26Z</time>
      </trkpt>
      <trkpt lat="48.35734" lon="2.73178">
        <ele>140.19999694824</ele>
        <time>2021-09-30T14:01:31Z</time>
      </trkpt>
      <trkpt lat="48.35735" lon="2.73177">
        <ele>139.60000610352</ele>
        <time>2021-09-30T14:01:36Z</time>
      </trkpt>
      <trkpt lat="48.35737" lon="2.7318">
        <ele>138.80000305176</ele>
        <time>2021-09-30T14:01:41Z</time>
      </trkpt>
      <trkpt lat="48.35737" lon="2.73183">
        <ele>138</ele>
        <time>2021-09-30T14:01:46Z</time>
      </trkpt>
      <trkpt lat="48.35739" lon="2.73185">
        <ele>136.80000305176</ele>
        <time>2021-09-30T14:01:51Z</time>
      </trkpt>
      <trkpt lat="48.3574" lon="2.73187">
        <ele>135.60000610352</ele>
        <time>2021-09-30T14:01:56Z</time>
      </trkpt>
      <trkpt lat="48.35742" lon="2.73191">
        <ele>135</ele>
        <time>2021-09-30T14:02:01Z</time>
      </trkpt>
      <trkpt lat="48.35741" lon="2.73194">
        <ele>134.39999389648</ele>
        <time>2021-09-30T14:02:06Z</time>
      </trkpt>
      <trkpt lat="48.3574" lon="2.73197">
        <ele>134.19999694824</ele>
        <time>2021-09-30T14:02:11Z</time>
      </trkpt>
      <trkpt lat="48.35742" lon="2.73203">
        <ele>133.39999389648</ele>
        <time>2021-09-30T14:02:16Z</time>
      </trkpt>
      <trkpt lat="48.35743" lon="2.73208">
        <ele>132.80000305176</ele>
        <time>2021-09-30T14:02:21Z</time>
      </trkpt>
      <trkpt lat="48.35744" lon="2.73212">
        <ele>132</ele>
        <time>2021-09-30T14:02:26Z</time>
      </trkpt>
      <trkpt lat="48.35745" lon="2.73214">
        <ele>131.80000305176</ele>
        <time>2021-09-30T14:02:31Z</time>
      </trkpt>
      <trkpt lat="48.35747" lon="2.73215">
        <ele>131.39999389648</ele>
        <time>2021-09-30T14:02:36Z</time>
      </trkpt>
      <trkpt lat="48.35748" lon="2.73219">
        <ele>131</ele>
        <time>2021-09-30T14:02:41Z</time>
      </trkpt>
      <trkpt lat="48.35749" lon="2.73223">
        <ele>130.80000305176</ele>
        <time>2021-09-30T14:02:46Z</time>
      </trkpt>
      <trkpt lat="48.35751" lon="2.73226">
        <ele>131</ele>
        <time>2021-09-30T14:02:51Z</time>
      </trkpt>
      <trkpt lat="48.35753" lon="2.73228">
        <ele>131</ele>
        <time>2021-09-30T14:02:56Z</time>
      </trkpt>
      <trkpt lat="48.35754" lon="2.73228">
        <ele>131</ele>
        <time>2021-09-30T14:03:01Z</time>
      </trkpt>
      <trkpt lat="48.35757" lon="2.73228">
        <ele>131.19999694824</ele>
        <time>2021-09-30T14:03:06Z</time>
      </trkpt>
      <trkpt lat="48.35762" lon="2.73229">
        <ele>131.19999694824</ele>
        <time>2021-09-30T14:03:11Z</time>
      </trkpt>
      <trkpt lat="48.35764" lon="2.73229">
        <ele>131.60000610352</ele>
        <time>2021-09-30T14:03:16Z</time>
      </trkpt>
      <trkpt lat="48.35765" lon="2.73228">
        <ele>131.60000610352</ele>
        <time>2021-09-30T14:03:21Z</time>
      </trkpt>
      <trkpt lat="48.35764" lon="2.73227">
        <ele>131.60000610352</ele>
        <time>2021-09-30T14:03:26Z</time>
      </trkpt>
      <trkpt lat="48.35764" lon="2.73226">
        <ele>131.80000305176</ele>
        <time>2021-09-30T14:03:31Z</time>
      </trkpt>
      <trkpt lat="48.35764" lon="2.73227">
        <ele>131.80000305176</ele>
        <time>2021-09-30T14:03:36Z</time>
      </trkpt>
      <trkpt lat="48.35764" lon="2.73228">
        <ele>131.80000305176</ele>
        <time>2021-09-30T14:03:41Z</time>
      </trkpt>
      <trkpt lat="48.35764" lon="2.73228">
        <ele>131.80000305176</ele>
        <time>2021-09-30T14:03:46Z</time>
      </trkpt>
      <trkpt lat="48.35763" lon="2.73228">
        <ele>131.80000305176</ele>
        <time>2021-09-30T14:03:51Z</time>
      </trkpt>
      <trkpt lat="48.35763" lon="2.73229">
        <ele>131.80000305176</ele>
        <time>2021-09-30T14:03:56Z</time>
      </trkpt>
      <trkpt lat="48.35763" lon="2.73229">
        <ele>131.80000305176</ele>
        <time>2021-09-30T14:04:01Z</time>
      </trkpt>
      <trkpt lat="48.35763" lon="2.73229">
        <ele>131.80000305176</ele>
        <time>2021-09-30T14:04:06Z</time>
      </trkpt>
      <trkpt lat="48.35763" lon="2.73229">
        <ele>131.80000305176</ele>
        <time>2021-09-30T14:04:11Z</time>
      </trkpt>
      <trkpt lat="48.35763" lon="2.73231">
        <ele>131.80000305176</ele>
        <time>2021-09-30T14:04:16Z</time>
      </trkpt>
      <trkpt lat="48.35762" lon="2.73231">
        <ele>131.80000305176</ele>
        <time>2021-09-30T14:04:21Z</time>
      </trkpt>
      <trkpt lat="48.35762" lon="2.73231">
        <ele>131.80000305176</ele>
        <time>2021-09-30T14:04:26Z</time>
      </trkpt>
      <trkpt lat="48.35761" lon="2.73232">
        <ele>131.80000305176</ele>
        <time>2021-09-30T14:04:31Z</time>
      </trkpt>
      <trkpt lat="48.35761" lon="2.73232">
        <ele>131.80000305176</ele>
        <time>2021-09-30T14:04:36Z</time>
      </trkpt>
      <trkpt lat="48.3576" lon="2.73232">
        <ele>131.80000305176</ele>
        <time>2021-09-30T14:04:41Z</time>
      </trkpt>
      <trkpt lat="48.3576" lon="2.73234">
        <ele>131.80000305176</ele>
        <time>2021-09-30T14:04:46Z</time>
      </trkpt>
      <trkpt lat="48.35761" lon="2.73234">
        <ele>131.80000305176</ele>
        <time>2021-09-30T14:04:51Z</time>
      </trkpt>
      <trkpt lat="48.35761" lon="2.73233">
        <ele>131.80000305176</ele>
        <time>2021-09-30T14:04:56Z</time>
      </trkpt>
      <trkpt lat="48.35761" lon="2.73233">
        <ele>131.80000305176</ele>
        <time>2021-09-30T14:05:01Z</time>
      </trkpt>
      <trkpt lat="48.35761" lon="2.73233">
        <ele>131.80000305176</ele>
        <time>2021-09-30T14:05:06Z</time>
      </trkpt>
      <trkpt lat="48.35762" lon="2.73232">
        <ele>131.80000305176</ele>
        <time>2021-09-30T14:05:11Z</time>
      </trkpt>
      <trkpt lat="48.35766" lon="2.73228">
        <ele>131.80000305176</ele>
        <time>2021-09-30T14:05:16Z</time>
      </trkpt>
      <trkpt lat="48.35769" lon="2.73227">
        <ele>131.80000305176</ele>
        <time>2021-09-30T14:05:21Z</time>
      </trkpt>
      <trkpt lat="48.35773" lon="2.73227">
        <ele>131.80000305176</ele>
        <time>2021-09-30T14:05:26Z</time>
      </trkpt>
      <trkpt lat="48.35776" lon="2.73228">
        <ele>128.60000610352</ele>
        <time>2021-09-30T14:05:31Z</time>
      </trkpt>
      <trkpt lat="48.35779" lon="2.73231">
        <ele>128.60000610352</ele>
        <time>2021-09-30T14:05:36Z</time>
      </trkpt>
      <trkpt lat="48.35782" lon="2.73234">
        <ele>128.39999389648</ele>
        <time>2021-09-30T14:05:41Z</time>
      </trkpt>
      <trkpt lat="48.35785" lon="2.73238">
        <ele>128.19999694824</ele>
        <time>2021-09-30T14:05:46Z</time>
      </trkpt>
      <trkpt lat="48.35788" lon="2.73239">
        <ele>127.80000305176</ele>
        <time>2021-09-30T14:05:51Z</time>
      </trkpt>
      <trkpt lat="48.3579" lon="2.73239">
        <ele>127.19999694824</ele>
        <time>2021-09-30T14:05:56Z</time>
      </trkpt>
      <trkpt lat="48.35793" lon="2.73241">
        <ele>126.19999694824</ele>
        <time>2021-09-30T14:06:01Z</time>
      </trkpt>
      <trkpt lat="48.35797" lon="2.73245">
        <ele>126.19999694824</ele>
        <time>2021-09-30T14:06:06Z</time>
      </trkpt>
      <trkpt lat="48.35799" lon="2.73251">
        <ele>126.40000152588</ele>
        <time>2021-09-30T14:06:11Z</time>
      </trkpt>
      <trkpt lat="48.358" lon="2.73255">
        <ele>127</ele>
        <time>2021-09-30T14:06:16Z</time>
      </trkpt>
      <trkpt lat="48.35801" lon="2.73257">
        <ele>127</ele>
        <time>2021-09-30T14:06:21Z</time>
      </trkpt>
      <trkpt lat="48.35803" lon="2.73261">
        <ele>127</ele>
        <time>2021-09-30T14:06:26Z</time>
      </trkpt>
      <trkpt lat="48.35804" lon="2.73262">
        <ele>126.80000305176</ele>
        <time>2021-09-30T14:06:31Z</time>
      </trkpt>
      <trkpt lat="48.35804" lon="2.73266">
        <ele>126.19999694824</ele>
        <time>2021-09-30T14:06:36Z</time>
      </trkpt>
      <trkpt lat="48.35802" lon="2.73267">
        <ele>125.59999847412</ele>
        <time>2021-09-30T14:06:41Z</time>
      </trkpt>
      <trkpt lat="48.35803" lon="2.73269">
        <ele>125.19999694824</ele>
        <time>2021-09-30T14:06:46Z</time>
      </trkpt>
      <trkpt lat="48.35803" lon="2.73275">
        <ele>124.59999847412</ele>
        <time>2021-09-30T14:06:51Z</time>
      </trkpt>
      <trkpt lat="48.35806" lon="2.73278">
        <ele>123.80000305176</ele>
        <time>2021-09-30T14:06:56Z</time>
      </trkpt>
      <trkpt lat="48.35811" lon="2.73279">
        <ele>123.19999694824</ele>
        <time>2021-09-30T14:07:01Z</time>
      </trkpt>
      <trkpt lat="48.35812" lon="2.73282">
        <ele>122.59999847412</ele>
        <time>2021-09-30T14:07:06Z</time>
      </trkpt>
      <trkpt lat="48.3581" lon="2.73286">
        <ele>122.19999694824</ele>
        <time>2021-09-30T14:07:11Z</time>
      </trkpt>
      <trkpt lat="48.3581" lon="2.73289">
        <ele>121.80000305176</ele>
        <time>2021-09-30T14:07:16Z</time>
      </trkpt>
      <trkpt lat="48.35809" lon="2.73291">
        <ele>121.19999694824</ele>
        <time>2021-09-30T14:07:21Z</time>
      </trkpt>
      <trkpt lat="48.35808" lon="2.73294">
        <ele>120.40000152588</ele>
        <time>2021-09-30T14:07:26Z</time>
      </trkpt>
      <trkpt lat="48.35809" lon="2.73296">
        <ele>120</ele>
        <time>2021-09-30T14:07:31Z</time>
      </trkpt>
      <trkpt lat="48.35807" lon="2.73301">
        <ele>119</ele>
        <time>2021-09-30T14:07:36Z</time>
      </trkpt>
      <trkpt lat="48.35805" lon="2.73306">
        <ele>118.19999694824</ele>
        <time>2021-09-30T14:07:41Z</time>
      </trkpt>
      <trkpt lat="48.35804" lon="2.73309">
        <ele>117.40000152588</ele>
        <time>2021-09-30T14:07:46Z</time>
      </trkpt>
      <trkpt lat="48.35805" lon="2.73312">
        <ele>117</ele>
        <time>2021-09-30T14:07:51Z</time>
      </trkpt>
      <trkpt lat="48.35807" lon="2.73317">
        <ele>116.59999847412</ele>
        <time>2021-09-30T14:07:56Z</time>
      </trkpt>
      <trkpt lat="48.35806" lon="2.73322">
        <ele>116.19999694824</ele>
        <time>2021-09-30T14:08:01Z</time>
      </trkpt>
      <trkpt lat="48.35804" lon="2.73328">
        <ele>116</ele>
        <time>2021-09-30T14:08:06Z</time>
      </trkpt>
      <trkpt lat="48.35803" lon="2.73331">
        <ele>116</ele>
        <time>2021-09-30T14:08:11Z</time>
      </trkpt>
      <trkpt lat="48.35802" lon="2.73336">
        <ele>116</ele>
        <time>2021-09-30T14:08:16Z</time>
      </trkpt>
      <trkpt lat="48.35802" lon="2.73339">
        <ele>116.40000152588</ele>
        <time>2021-09-30T14:08:21Z</time>
      </trkpt>
      <trkpt lat="48.358" lon="2.73343">
        <ele>116.19999694824</ele>
        <time>2021-09-30T14:08:26Z</time>
      </trkpt>
      <trkpt lat="48.358" lon="2.73347">
        <ele>115.59999847412</ele>
        <time>2021-09-30T14:08:31Z</time>
      </trkpt>
      <trkpt lat="48.35802" lon="2.73348">
        <ele>114.80000305176</ele>
        <time>2021-09-30T14:08:36Z</time>
      </trkpt>
      <trkpt lat="48.35804" lon="2.73349">
        <ele>114.40000152588</ele>
        <time>2021-09-30T14:08:41Z</time>
      </trkpt>
      <trkpt lat="48.35806" lon="2.73353">
        <ele>114.19999694824</ele>
        <time>2021-09-30T14:08:46Z</time>
      </trkpt>
      <trkpt lat="48.3581" lon="2.73356">
        <ele>114.19999694824</ele>
        <time>2021-09-30T14:08:51Z</time>
      </trkpt>
      <trkpt lat="48.35812" lon="2.73361">
        <ele>113.80000305176</ele>
        <time>2021-09-30T14:08:56Z</time>
      </trkpt>
      <trkpt lat="48.35813" lon="2.73368">
        <ele>113.59999847412</ele>
        <time>2021-09-30T14:09:01Z</time>
      </trkpt>
      <trkpt lat="48.35812" lon="2.73373">
        <ele>113.59999847412</ele>
        <time>2021-09-30T14:09:06Z</time>
      </trkpt>
      <trkpt lat="48.35813" lon="2.73379">
        <ele>113.59999847412</ele>
        <time>2021-09-30T14:09:11Z</time>
      </trkpt>
      <trkpt lat="48.35816" lon="2.73383">
        <ele>113.40000152588</ele>
        <time>2021-09-30T14:09:16Z</time>
      </trkpt>
      <trkpt lat="48.35819" lon="2.73386">
        <ele>113.40000152588</ele>
        <time>2021-09-30T14:09:21Z</time>
      </trkpt>
      <trkpt lat="48.35821" lon="2.73392">
        <ele>113.80000305176</ele>
        <time>2021-09-30T14:09:26Z</time>
      </trkpt>
      <trkpt lat="48.35822" lon="2.73395">
        <ele>114.40000152588</ele>
        <time>2021-09-30T14:09:31Z</time>
      </trkpt>
      <trkpt lat="48.35824" lon="2.73398">
        <ele>115.19999694824</ele>
        <time>2021-09-30T14:09:36Z</time>
      </trkpt>
      <trkpt lat="48.35825" lon="2.734">
        <ele>115.80000305176</ele>
        <time>2021-09-30T14:09:41Z</time>
      </trkpt>
      <trkpt lat="48.35825" lon="2.73403">
        <ele>115.80000305176</ele>
        <time>2021-09-30T14:09:46Z</time>
      </trkpt>
      <trkpt lat="48.35827" lon="2.73408">
        <ele>116.19999694824</ele>
        <time>2021-09-30T14:09:51Z</time>
      </trkpt>
      <trkpt lat="48.35825" lon="2.73412">
        <ele>116.59999847412</ele>
        <time>2021-09-30T14:09:56Z</time>
      </trkpt>
      <trkpt lat="48.35826" lon="2.73417">
        <ele>117</ele>
        <time>2021-09-30T14:10:01Z</time>
      </trkpt>
      <trkpt lat="48.35824" lon="2.73421">
        <ele>117.40000152588</ele>
        <time>2021-09-30T14:10:06Z</time>
      </trkpt>
      <trkpt lat="48.3582" lon="2.73424">
        <ele>118</ele>
        <time>2021-09-30T14:10:11Z</time>
      </trkpt>
      <trkpt lat="48.35818" lon="2.73424">
        <ele>118.40000152588</ele>
        <time>2021-09-30T14:10:16Z</time>
      </trkpt>
      <trkpt lat="48.35815" lon="2.73423">
        <ele>119.19999694824</ele>
        <time>2021-09-30T14:10:21Z</time>
      </trkpt>
      <trkpt lat="48.35812" lon="2.73421">
        <ele>120</ele>
        <time>2021-09-30T14:10:26Z</time>
      </trkpt>
      <trkpt lat="48.3581" lon="2.7342">
        <ele>121</ele>
        <time>2021-09-30T14:10:31Z</time>
      </trkpt>
      <trkpt lat="48.3581" lon="2.73419">
        <ele>121.40000152588</ele>
        <time>2021-09-30T14:10:36Z</time>
      </trkpt>
      <trkpt lat="48.35806" lon="2.73416">
        <ele>122.19999694824</ele>
        <time>2021-09-30T14:10:41Z</time>
      </trkpt>
      <trkpt lat="48.35802" lon="2.73414">
        <ele>122.59999847412</ele>
        <time>2021-09-30T14:10:46Z</time>
      </trkpt>
      <trkpt lat="48.35798" lon="2.73414">
        <ele>123.19999694824</ele>
        <time>2021-09-30T14:10:51Z</time>
      </trkpt>
      <trkpt lat="48.35794" lon="2.73415">
        <ele>124</ele>
        <time>2021-09-30T14:10:56Z</time>
      </trkpt>
      <trkpt lat="48.35793" lon="2.73418">
        <ele>124.59999847412</ele>
        <time>2021-09-30T14:11:01Z</time>
      </trkpt>
      <trkpt lat="48.35792" lon="2.7342">
        <ele>125.40000152588</ele>
        <time>2021-09-30T14:11:06Z</time>
      </trkpt>
      <trkpt lat="48.3579" lon="2.73421">
        <ele>126.19999694824</ele>
        <time>2021-09-30T14:11:11Z</time>
      </trkpt>
      <trkpt lat="48.3579" lon="2.73425">
        <ele>127.19999694824</ele>
        <time>2021-09-30T14:11:16Z</time>
      </trkpt>
      <trkpt lat="48.35791" lon="2.7343">
        <ele>128</ele>
        <time>2021-09-30T14:11:21Z</time>
      </trkpt>
      <trkpt lat="48.35792" lon="2.73434">
        <ele>128.39999389648</ele>
        <time>2021-09-30T14:11:26Z</time>
      </trkpt>
      <trkpt lat="48.35792" lon="2.73436">
        <ele>129</ele>
        <time>2021-09-30T14:11:31Z</time>
      </trkpt>
      <trkpt lat="48.35793" lon="2.73442">
        <ele>129.39999389648</ele>
        <time>2021-09-30T14:11:36Z</time>
      </trkpt>
      <trkpt lat="48.35794" lon="2.73447">
        <ele>129.39999389648</ele>
        <time>2021-09-30T14:11:41Z</time>
      </trkpt>
      <trkpt lat="48.35793" lon="2.73453">
        <ele>129.39999389648</ele>
        <time>2021-09-30T14:11:46Z</time>
      </trkpt>
      <trkpt lat="48.35792" lon="2.73457">
        <ele>129.60000610352</ele>
        <time>2021-09-30T14:11:51Z</time>
      </trkpt>
      <trkpt lat="48.35791" lon="2.73463">
        <ele>129.60000610352</ele>
        <time>2021-09-30T14:11:56Z</time>
      </trkpt>
      <trkpt lat="48.35789" lon="2.73469">
        <ele>129.60000610352</ele>
        <time>2021-09-30T14:12:01Z</time>
      </trkpt>
      <trkpt lat="48.35787" lon="2.73472">
        <ele>129.60000610352</ele>
        <time>2021-09-30T14:12:06Z</time>
      </trkpt>
      <trkpt lat="48.35786" lon="2.73475">
        <ele>129.80000305176</ele>
        <time>2021-09-30T14:12:11Z</time>
      </trkpt>
      <trkpt lat="48.35785" lon="2.73477">
        <ele>130.19999694824</ele>
        <time>2021-09-30T14:12:16Z</time>
      </trkpt>
      <trkpt lat="48.35786" lon="2.73481">
        <ele>131.19999694824</ele>
        <time>2021-09-30T14:12:21Z</time>
      </trkpt>
      <trkpt lat="48.35784" lon="2.73487">
        <ele>131.39999389648</ele>
        <time>2021-09-30T14:12:26Z</time>
      </trkpt>
      <trkpt lat="48.35782" lon="2.73492">
        <ele>131.60000610352</ele>
        <time>2021-09-30T14:12:31Z</time>
      </trkpt>
      <trkpt lat="48.3578" lon="2.73494">
        <ele>132</ele>
        <time>2021-09-30T14:12:36Z</time>
      </trkpt>
      <trkpt lat="48.3578" lon="2.73499">
        <ele>132.39999389648</ele>
        <time>2021-09-30T14:12:41Z</time>
      </trkpt>
      <trkpt lat="48.35782" lon="2.73506">
        <ele>132.80000305176</ele>
        <time>2021-09-30T14:12:46Z</time>
      </trkpt>
      <trkpt lat="48.35781" lon="2.73511">
        <ele>133</ele>
        <time>2021-09-30T14:12:51Z</time>
      </trkpt>
      <trkpt lat="48.35779" lon="2.73513">
        <ele>133.60000610352</ele>
        <time>2021-09-30T14:12:56Z</time>
      </trkpt>
      <trkpt lat="48.35778" lon="2.73512">
        <ele>134.39999389648</ele>
        <time>2021-09-30T14:13:01Z</time>
      </trkpt>
      <trkpt lat="48.35776" lon="2.73511">
        <ele>135</ele>
        <time>2021-09-30T14:13:06Z</time>
      </trkpt>
      <trkpt lat="48.35774" lon="2.73508">
        <ele>135.60000610352</ele>
        <time>2021-09-30T14:13:11Z</time>
      </trkpt>
      <trkpt lat="48.35772" lon="2.73505">
        <ele>135.80000305176</ele>
        <time>2021-09-30T14:13:16Z</time>
      </trkpt>
      <trkpt lat="48.35771" lon="2.735">
        <ele>136</ele>
        <time>2021-09-30T14:13:21Z</time>
      </trkpt>
      <trkpt lat="48.35771" lon="2.73496">
        <ele>136.39999389648</ele>
        <time>2021-09-30T14:13:26Z</time>
      </trkpt>
      <trkpt lat="48.35772" lon="2.7349">
        <ele>136.19999694824</ele>
        <time>2021-09-30T14:13:31Z</time>
      </trkpt>
      <trkpt lat="48.35772" lon="2.73487">
        <ele>136</ele>
        <time>2021-09-30T14:13:36Z</time>
      </trkpt>
      <trkpt lat="48.35775" lon="2.73481">
        <ele>136</ele>
        <time>2021-09-30T14:13:41Z</time>
      </trkpt>
      <trkpt lat="48.35775" lon="2.73476">
        <ele>136.19999694824</ele>
        <time>2021-09-30T14:13:46Z</time>
      </trkpt>
      <trkpt lat="48.35774" lon="2.73471">
        <ele>137</ele>
        <time>2021-09-30T14:13:51Z</time>
      </trkpt>
      <trkpt lat="48.35773" lon="2.73467">
        <ele>137.60000610352</ele>
        <time>2021-09-30T14:13:56Z</time>
      </trkpt>
      <trkpt lat="48.35773" lon="2.73463">
        <ele>138.19999694824</ele>
        <time>2021-09-30T14:14:01Z</time>
      </trkpt>
      <trkpt lat="48.35771" lon="2.7346">
        <ele>138.60000610352</ele>
        <time>2021-09-30T14:14:06Z</time>
      </trkpt>
      <trkpt lat="48.35771" lon="2.73461">
        <ele>139.19999694824</ele>
        <time>2021-09-30T14:14:11Z</time>
      </trkpt>
      <trkpt lat="48.3577" lon="2.73464">
        <ele>140.19999694824</ele>
        <time>2021-09-30T14:14:16Z</time>
      </trkpt>
      <trkpt lat="48.35768" lon="2.73466">
        <ele>140.60000610352</ele>
        <time>2021-09-30T14:14:21Z</time>
      </trkpt>
      <trkpt lat="48.35767" lon="2.73468">
        <ele>141.19999694824</ele>
        <time>2021-09-30T14:14:26Z</time>
      </trkpt>
      <trkpt lat="48.35766" lon="2.7347">
        <ele>141.60000610352</ele>
        <time>2021-09-30T14:14:31Z</time>
      </trkpt>
      <trkpt lat="48.35765" lon="2.73472">
        <ele>142.80000305176</ele>
        <time>2021-09-30T14:14:36Z</time>
      </trkpt>
      <trkpt lat="48.35762" lon="2.73474">
        <ele>143.19999694824</ele>
        <time>2021-09-30T14:14:41Z</time>
      </trkpt>
      <trkpt lat="48.3576" lon="2.73477">
        <ele>144</ele>
        <time>2021-09-30T14:14:46Z</time>
      </trkpt>
      <trkpt lat="48.35757" lon="2.73478">
        <ele>144.60000610352</ele>
        <time>2021-09-30T14:14:51Z</time>
      </trkpt>
      <trkpt lat="48.35754" lon="2.73481">
        <ele>145.39999389648</ele>
        <time>2021-09-30T14:14:56Z</time>
      </trkpt>
      <trkpt lat="48.35753" lon="2.73485">
        <ele>146.39999389648</ele>
        <time>2021-09-30T14:15:01Z</time>
      </trkpt>
      <trkpt lat="48.35752" lon="2.73487">
        <ele>147.19999694824</ele>
        <time>2021-09-30T14:15:06Z</time>
      </trkpt>
      <trkpt lat="48.35751" lon="2.73487">
        <ele>148</ele>
        <time>2021-09-30T14:15:11Z</time>
      </trkpt>
      <trkpt lat="48.3575" lon="2.73487">
        <ele>149.19999694824</ele>
        <time>2021-09-30T14:15:16Z</time>
      </trkpt>
      <trkpt lat="48.35744" lon="2.73486">
        <ele>149.80000305176</ele>
        <time>2021-09-30T14:15:21Z</time>
      </trkpt>
      <trkpt lat="48.35742" lon="2.73489">
        <ele>150</ele>
        <time>2021-09-30T14:15:26Z</time>
      </trkpt>
      <trkpt lat="48.35742" lon="2.73494">
        <ele>150.39999389648</ele>
        <time>2021-09-30T14:15:31Z</time>
      </trkpt>
      <trkpt lat="48.35742" lon="2.735">
        <ele>151.19999694824</ele>
        <time>2021-09-30T14:15:36Z</time>
      </trkpt>
      <trkpt lat="48.35741" lon="2.73503">
        <ele>152.60000610352</ele>
        <time>2021-09-30T14:15:41Z</time>
      </trkpt>
      <trkpt lat="48.35741" lon="2.73504">
        <ele>153.60000610352</ele>
        <time>2021-09-30T14:15:46Z</time>
      </trkpt>
      <trkpt lat="48.35741" lon="2.73506">
        <ele>153.39999389648</ele>
        <time>2021-09-30T14:15:51Z</time>
      </trkpt>
      <trkpt lat="48.35747" lon="2.73519">
        <ele>149.39999389648</ele>
        <time>2021-09-30T14:16:29Z</time>
      </trkpt>
      <trkpt lat="48.35748" lon="2.73526">
        <ele>150.60000610352</ele>
        <time>2021-09-30T14:16:34Z</time>
      </trkpt>
      <trkpt lat="48.35747" lon="2.73533">
        <ele>151</ele>
        <time>2021-09-30T14:16:39Z</time>
      </trkpt>
      <trkpt lat="48.35746" lon="2.73539">
        <ele>150.80000305176</ele>
        <time>2021-09-30T14:16:44Z</time>
      </trkpt>
      <trkpt lat="48.35744" lon="2.73543">
        <ele>150.39999389648</ele>
        <time>2021-09-30T14:16:49Z</time>
      </trkpt>
      <trkpt lat="48.35741" lon="2.73549">
        <ele>150</ele>
        <time>2021-09-30T14:16:54Z</time>
      </trkpt>
      <trkpt lat="48.35739" lon="2.73557">
        <ele>150</ele>
        <time>2021-09-30T14:16:59Z</time>
      </trkpt>
      <trkpt lat="48.35739" lon="2.73563">
        <ele>150.39999389648</ele>
        <time>2021-09-30T14:17:04Z</time>
      </trkpt>
      <trkpt lat="48.35737" lon="2.73569">
        <ele>150.80000305176</ele>
        <time>2021-09-30T14:17:09Z</time>
      </trkpt>
      <trkpt lat="48.35735" lon="2.73577">
        <ele>151.60000610352</ele>
        <time>2021-09-30T14:17:14Z</time>
      </trkpt>
      <trkpt lat="48.35735" lon="2.73583">
        <ele>152.19999694824</ele>
        <time>2021-09-30T14:17:19Z</time>
      </trkpt>
      <trkpt lat="48.35736" lon="2.73589">
        <ele>152.80000305176</ele>
        <time>2021-09-30T14:17:24Z</time>
      </trkpt>
      <trkpt lat="48.35739" lon="2.73593">
        <ele>152.39999389648</ele>
        <time>2021-09-30T14:17:29Z</time>
      </trkpt>
      <trkpt lat="48.35739" lon="2.73597">
        <ele>151.60000610352</ele>
        <time>2021-09-30T14:17:34Z</time>
      </trkpt>
      <trkpt lat="48.3574" lon="2.73601">
        <ele>151</ele>
        <time>2021-09-30T14:17:39Z</time>
      </trkpt>
      <trkpt lat="48.3574" lon="2.73606">
        <ele>150.60000610352</ele>
        <time>2021-09-30T14:17:44Z</time>
      </trkpt>
      <trkpt lat="48.35741" lon="2.73613">
        <ele>150.19999694824</ele>
        <time>2021-09-30T14:17:49Z</time>
      </trkpt>
      <trkpt lat="48.3574" lon="2.7362">
        <ele>150</ele>
        <time>2021-09-30T14:17:54Z</time>
      </trkpt>
      <trkpt lat="48.3574" lon="2.73627">
        <ele>150</ele>
        <time>2021-09-30T14:17:59Z</time>
      </trkpt>
      <trkpt lat="48.3574" lon="2.73631">
        <ele>150</ele>
        <time>2021-09-30T14:18:04Z</time>
      </trkpt>
      <trkpt lat="48.3574" lon="2.73637">
        <ele>150.19999694824</ele>
        <time>2021-09-30T14:18:09Z</time>
      </trkpt>
      <trkpt lat="48.35739" lon="2.73645">
        <ele>150.19999694824</ele>
        <time>2021-09-30T14:18:14Z</time>
      </trkpt>
      <trkpt lat="48.35737" lon="2.73653">
        <ele>150.19999694824</ele>
        <time>2021-09-30T14:18:19Z</time>
      </trkpt>
      <trkpt lat="48.35736" lon="2.7366">
        <ele>150.39999389648</ele>
        <time>2021-09-30T14:18:24Z</time>
      </trkpt>
      <trkpt lat="48.35735" lon="2.73668">
        <ele>151</ele>
        <time>2021-09-30T14:18:29Z</time>
      </trkpt>
      <trkpt lat="48.35733" lon="2.73673">
        <ele>151.60000610352</ele>
        <time>2021-09-30T14:18:34Z</time>
      </trkpt>
      <trkpt lat="48.35732" lon="2.73678">
        <ele>152.19999694824</ele>
        <time>2021-09-30T14:18:39Z</time>
      </trkpt>
      <trkpt lat="48.35731" lon="2.73684">
        <ele>152.60000610352</ele>
        <time>2021-09-30T14:18:44Z</time>
      </trkpt>
      <trkpt lat="48.35731" lon="2.73689">
        <ele>152.60000610352</ele>
        <time>2021-09-30T14:18:49Z</time>
      </trkpt>
      <trkpt lat="48.35729" lon="2.73696">
        <ele>152.19999694824</ele>
        <time>2021-09-30T14:18:54Z</time>
      </trkpt>
      <trkpt lat="48.35731" lon="2.737">
        <ele>152</ele>
        <time>2021-09-30T14:18:59Z</time>
      </trkpt>
      <trkpt lat="48.35732" lon="2.73704">
        <ele>151.19999694824</ele>
        <time>2021-09-30T14:19:04Z</time>
      </trkpt>
      <trkpt lat="48.35732" lon="2.73708">
        <ele>150.80000305176</ele>
        <time>2021-09-30T14:19:09Z</time>
      </trkpt>
      <trkpt lat="48.35732" lon="2.73709">
        <ele>150.19999694824</ele>
        <time>2021-09-30T14:19:14Z</time>
      </trkpt>
      <trkpt lat="48.35731" lon="2.73717">
        <ele>150.19999694824</ele>
        <time>2021-09-30T14:19:19Z</time>
      </trkpt>
      <trkpt lat="48.35732" lon="2.73724">
        <ele>150.19999694824</ele>
        <time>2021-09-30T14:19:24Z</time>
      </trkpt>
      <trkpt lat="48.35733" lon="2.73729">
        <ele>150.19999694824</ele>
        <time>2021-09-30T14:19:29Z</time>
      </trkpt>
      <trkpt lat="48.35733" lon="2.73732">
        <ele>150.19999694824</ele>
        <time>2021-09-30T14:19:34Z</time>
      </trkpt>
      <trkpt lat="48.35731" lon="2.73737">
        <ele>150.19999694824</ele>
        <time>2021-09-30T14:19:39Z</time>
      </trkpt>
      <trkpt lat="48.35729" lon="2.7374">
        <ele>150.19999694824</ele>
        <time>2021-09-30T14:19:44Z</time>
      </trkpt>
      <trkpt lat="48.35728" lon="2.73744">
        <ele>150.19999694824</ele>
        <time>2021-09-30T14:19:49Z</time>
      </trkpt>
      <trkpt lat="48.35727" lon="2.73747">
        <ele>150.19999694824</ele>
        <time>2021-09-30T14:19:54Z</time>
      </trkpt>
      <trkpt lat="48.35726" lon="2.7375">
        <ele>150.19999694824</ele>
        <time>2021-09-30T14:19:59Z</time>
      </trkpt>
      <trkpt lat="48.35726" lon="2.73753">
        <ele>150.19999694824</ele>
        <time>2021-09-30T14:20:04Z</time>
      </trkpt>
      <trkpt lat="48.35725" lon="2.73756">
        <ele>150.19999694824</ele>
        <time>2021-09-30T14:20:09Z</time>
      </trkpt>
      <trkpt lat="48.35724" lon="2.73758">
        <ele>150.19999694824</ele>
        <time>2021-09-30T14:20:14Z</time>
      </trkpt>
      <trkpt lat="48.35723" lon="2.73759">
        <ele>150.19999694824</ele>
        <time>2021-09-30T14:20:19Z</time>
      </trkpt>
      <trkpt lat="48.3572" lon="2.73763">
        <ele>150.19999694824</ele>
        <time>2021-09-30T14:20:24Z</time>
      </trkpt>
      <trkpt lat="48.35717" lon="2.7377">
        <ele>150.19999694824</ele>
        <time>2021-09-30T14:20:29Z</time>
      </trkpt>
      <trkpt lat="48.35715" lon="2.73774">
        <ele>150.19999694824</ele>
        <time>2021-09-30T14:20:34Z</time>
      </trkpt>
      <trkpt lat="48.35712" lon="2.73775">
        <ele>150.19999694824</ele>
        <time>2021-09-30T14:20:39Z</time>
      </trkpt>
      <trkpt lat="48.35707" lon="2.73773">
        <ele>150.19999694824</ele>
        <time>2021-09-30T14:20:44Z</time>
      </trkpt>
      <trkpt lat="48.35704" lon="2.7377">
        <ele>150.19999694824</ele>
        <time>2021-09-30T14:20:49Z</time>
      </trkpt>
      <trkpt lat="48.35701" lon="2.73771">
        <ele>150.19999694824</ele>
        <time>2021-09-30T14:20:54Z</time>
      </trkpt>
      <trkpt lat="48.357" lon="2.73773">
        <ele>150.19999694824</ele>
        <time>2021-09-30T14:20:59Z</time>
      </trkpt>
      <trkpt lat="48.35698" lon="2.73777">
        <ele>150.19999694824</ele>
        <time>2021-09-30T14:21:04Z</time>
      </trkpt>
      <trkpt lat="48.35699" lon="2.7378">
        <ele>150.19999694824</ele>
        <time>2021-09-30T14:21:09Z</time>
      </trkpt>
      <trkpt lat="48.357" lon="2.7378">
        <ele>150.19999694824</ele>
        <time>2021-09-30T14:21:14Z</time>
      </trkpt>
      <trkpt lat="48.357" lon="2.7378">
        <ele>150.19999694824</ele>
        <time>2021-09-30T14:21:19Z</time>
      </trkpt>
      <trkpt lat="48.35702" lon="2.73781">
        <ele>150.19999694824</ele>
        <time>2021-09-30T14:21:24Z</time>
      </trkpt>
      <trkpt lat="48.35704" lon="2.73781">
        <ele>150.19999694824</ele>
        <time>2021-09-30T14:21:29Z</time>
      </trkpt>
      <trkpt lat="48.35704" lon="2.73781">
        <ele>150.19999694824</ele>
        <time>2021-09-30T14:21:34Z</time>
      </trkpt>
      <trkpt lat="48.35706" lon="2.7378">
        <ele>150.19999694824</ele>
        <time>2021-09-30T14:21:39Z</time>
      </trkpt>
      <trkpt lat="48.35706" lon="2.73783">
        <ele>150.19999694824</ele>
        <time>2021-09-30T14:21:44Z</time>
      </trkpt>
      <trkpt lat="48.35706" lon="2.73789">
        <ele>150.19999694824</ele>
        <time>2021-09-30T14:21:49Z</time>
      </trkpt>
      <trkpt lat="48.35707" lon="2.73794">
        <ele>150.19999694824</ele>
        <time>2021-09-30T14:21:54Z</time>
      </trkpt>
      <trkpt lat="48.35705" lon="2.73799">
        <ele>150.19999694824</ele>
        <time>2021-09-30T14:21:59Z</time>
      </trkpt>
      <trkpt lat="48.35703" lon="2.73802">
        <ele>150.19999694824</ele>
        <time>2021-09-30T14:22:04Z</time>
      </trkpt>
      <trkpt lat="48.35702" lon="2.73805">
        <ele>150.19999694824</ele>
        <time>2021-09-30T14:22:09Z</time>
      </trkpt>
      <trkpt lat="48.357" lon="2.73809">
        <ele>150.19999694824</ele>
        <time>2021-09-30T14:22:14Z</time>
      </trkpt>
      <trkpt lat="48.35698" lon="2.73815">
        <ele>150.19999694824</ele>
        <time>2021-09-30T14:22:19Z</time>
      </trkpt>
      <trkpt lat="48.35697" lon="2.73821">
        <ele>150.19999694824</ele>
        <time>2021-09-30T14:22:24Z</time>
      </trkpt>
      <trkpt lat="48.35695" lon="2.73827">
        <ele>150</ele>
        <time>2021-09-30T14:22:29Z</time>
      </trkpt>
      <trkpt lat="48.35695" lon="2.73833">
        <ele>149</ele>
        <time>2021-09-30T14:22:34Z</time>
      </trkpt>
      <trkpt lat="48.35692" lon="2.73838">
        <ele>148.80000305176</ele>
        <time>2021-09-30T14:22:39Z</time>
      </trkpt>
      <trkpt lat="48.35686" lon="2.7384">
        <ele>148.19999694824</ele>
        <time>2021-09-30T14:22:44Z</time>
      </trkpt>
      <trkpt lat="48.35682" lon="2.73841">
        <ele>147.80000305176</ele>
        <time>2021-09-30T14:22:49Z</time>
      </trkpt>
      <trkpt lat="48.35678" lon="2.73843">
        <ele>148.39999389648</ele>
        <time>2021-09-30T14:22:54Z</time>
      </trkpt>
      <trkpt lat="48.35673" lon="2.73846">
        <ele>148.80000305176</ele>
        <time>2021-09-30T14:22:59Z</time>
      </trkpt>
      <trkpt lat="48.35671" lon="2.73847">
        <ele>149.19999694824</ele>
        <time>2021-09-30T14:23:04Z</time>
      </trkpt>
      <trkpt lat="48.35667" lon="2.73847">
        <ele>150</ele>
        <time>2021-09-30T14:23:09Z</time>
      </trkpt>
      <trkpt lat="48.35665" lon="2.7385">
        <ele>150</ele>
        <time>2021-09-30T14:23:14Z</time>
      </trkpt>
      <trkpt lat="48.35664" lon="2.73855">
        <ele>149.80000305176</ele>
        <time>2021-09-30T14:23:19Z</time>
      </trkpt>
      <trkpt lat="48.35664" lon="2.73862">
        <ele>150</ele>
        <time>2021-09-30T14:23:24Z</time>
      </trkpt>
      <trkpt lat="48.35661" lon="2.73864">
        <ele>150.39999389648</ele>
        <time>2021-09-30T14:23:29Z</time>
      </trkpt>
      <trkpt lat="48.35657" lon="2.73862">
        <ele>150.80000305176</ele>
        <time>2021-09-30T14:23:34Z</time>
      </trkpt>
      <trkpt lat="48.35653" lon="2.73862">
        <ele>151.39999389648</ele>
        <time>2021-09-30T14:23:39Z</time>
      </trkpt>
      <trkpt lat="48.35649" lon="2.73863">
        <ele>152.19999694824</ele>
        <time>2021-09-30T14:23:44Z</time>
      </trkpt>
      <trkpt lat="48.35646" lon="2.73862">
        <ele>152.80000305176</ele>
        <time>2021-09-30T14:23:49Z</time>
      </trkpt>
      <trkpt lat="48.35641" lon="2.73861">
        <ele>153.39999389648</ele>
        <time>2021-09-30T14:23:54Z</time>
      </trkpt>
      <trkpt lat="48.35637" lon="2.73859">
        <ele>153.60000610352</ele>
        <time>2021-09-30T14:23:59Z</time>
      </trkpt>
      <trkpt lat="48.35633" lon="2.73859">
        <ele>153.80000305176</ele>
        <time>2021-09-30T14:24:04Z</time>
      </trkpt>
      <trkpt lat="48.35628" lon="2.73862">
        <ele>153.60000610352</ele>
        <time>2021-09-30T14:24:09Z</time>
      </trkpt>
      <trkpt lat="48.35624" lon="2.73865">
        <ele>153.60000610352</ele>
        <time>2021-09-30T14:24:14Z</time>
      </trkpt>
      <trkpt lat="48.3562" lon="2.7387">
        <ele>153.60000610352</ele>
        <time>2021-09-30T14:24:19Z</time>
      </trkpt>
      <trkpt lat="48.35615" lon="2.73875">
        <ele>153.39999389648</ele>
        <time>2021-09-30T14:24:24Z</time>
      </trkpt>
      <trkpt lat="48.35611" lon="2.73877">
        <ele>153.19999694824</ele>
        <time>2021-09-30T14:24:29Z</time>
      </trkpt>
      <trkpt lat="48.35607" lon="2.7388">
        <ele>153.19999694824</ele>
        <time>2021-09-30T14:24:34Z</time>
      </trkpt>
      <trkpt lat="48.35604" lon="2.73884">
        <ele>153.19999694824</ele>
        <time>2021-09-30T14:24:39Z</time>
      </trkpt>
      <trkpt lat="48.35602" lon="2.73887">
        <ele>153.39999389648</ele>
        <time>2021-09-30T14:24:44Z</time>
      </trkpt>
      <trkpt lat="48.356" lon="2.73891">
        <ele>153.60000610352</ele>
        <time>2021-09-30T14:24:49Z</time>
      </trkpt>
      <trkpt lat="48.356" lon="2.73895">
        <ele>153.60000610352</ele>
        <time>2021-09-30T14:24:54Z</time>
      </trkpt>
      <trkpt lat="48.356" lon="2.73902">
        <ele>153.60000610352</ele>
        <time>2021-09-30T14:24:59Z</time>
      </trkpt>
      <trkpt lat="48.35598" lon="2.73907">
        <ele>153.80000305176</ele>
        <time>2021-09-30T14:25:04Z</time>
      </trkpt>
      <trkpt lat="48.35595" lon="2.73913">
        <ele>153.60000610352</ele>
        <time>2021-09-30T14:25:09Z</time>
      </trkpt>
      <trkpt lat="48.35592" lon="2.73918">
        <ele>153.60000610352</ele>
        <time>2021-09-30T14:25:14Z</time>
      </trkpt>
      <trkpt lat="48.35591" lon="2.73922">
        <ele>153.80000305176</ele>
        <time>2021-09-30T14:25:19Z</time>
      </trkpt>
      <trkpt lat="48.35591" lon="2.73926">
        <ele>153.80000305176</ele>
        <time>2021-09-30T14:25:24Z</time>
      </trkpt>
      <trkpt lat="48.35588" lon="2.73934">
        <ele>153.80000305176</ele>
        <time>2021-09-30T14:25:29Z</time>
      </trkpt>
      <trkpt lat="48.35586" lon="2.73942">
        <ele>153.80000305176</ele>
        <time>2021-09-30T14:25:34Z</time>
      </trkpt>
      <trkpt lat="48.35584" lon="2.73947">
        <ele>153.80000305176</ele>
        <time>2021-09-30T14:25:39Z</time>
      </trkpt>
      <trkpt lat="48.35583" lon="2.73955">
        <ele>154</ele>
        <time>2021-09-30T14:25:44Z</time>
      </trkpt>
      <trkpt lat="48.35584" lon="2.73963">
        <ele>153.80000305176</ele>
        <time>2021-09-30T14:25:49Z</time>
      </trkpt>
      <trkpt lat="48.35584" lon="2.73974">
        <ele>153.80000305176</ele>
        <time>2021-09-30T14:25:54Z</time>
      </trkpt>
      <trkpt lat="48.35584" lon="2.73982">
        <ele>154</ele>
        <time>2021-09-30T14:25:59Z</time>
      </trkpt>
      <trkpt lat="48.35586" lon="2.73991">
        <ele>154.19999694824</ele>
        <time>2021-09-30T14:26:04Z</time>
      </trkpt>
      <trkpt lat="48.35588" lon="2.73999">
        <ele>154.19999694824</ele>
        <time>2021-09-30T14:26:09Z</time>
      </trkpt>
      <trkpt lat="48.35587" lon="2.74006">
        <ele>154.19999694824</ele>
        <time>2021-09-30T14:26:14Z</time>
      </trkpt>
      <trkpt lat="48.35587" lon="2.74013">
        <ele>154.39999389648</ele>
        <time>2021-09-30T14:26:19Z</time>
      </trkpt>
      <trkpt lat="48.35586" lon="2.74019">
        <ele>154.39999389648</ele>
        <time>2021-09-30T14:26:24Z</time>
      </trkpt>
      <trkpt lat="48.35585" lon="2.74025">
        <ele>154.39999389648</ele>
        <time>2021-09-30T14:26:29Z</time>
      </trkpt>
      <trkpt lat="48.35582" lon="2.7403">
        <ele>154.39999389648</ele>
        <time>2021-09-30T14:26:34Z</time>
      </trkpt>
      <trkpt lat="48.3558" lon="2.74035">
        <ele>154.39999389648</ele>
        <time>2021-09-30T14:26:39Z</time>
      </trkpt>
      <trkpt lat="48.35578" lon="2.74039">
        <ele>154.39999389648</ele>
        <time>2021-09-30T14:26:44Z</time>
      </trkpt>
      <trkpt lat="48.35576" lon="2.74045">
        <ele>154.39999389648</ele>
        <time>2021-09-30T14:26:49Z</time>
      </trkpt>
      <trkpt lat="48.35573" lon="2.74053">
        <ele>154.19999694824</ele>
        <time>2021-09-30T14:26:54Z</time>
      </trkpt>
      <trkpt lat="48.35574" lon="2.74059">
        <ele>154.19999694824</ele>
        <time>2021-09-30T14:26:59Z</time>
      </trkpt>
      <trkpt lat="48.35571" lon="2.74065">
        <ele>154.19999694824</ele>
        <time>2021-09-30T14:27:04Z</time>
      </trkpt>
      <trkpt lat="48.35569" lon="2.74073">
        <ele>154.19999694824</ele>
        <time>2021-09-30T14:27:09Z</time>
      </trkpt>
      <trkpt lat="48.35566" lon="2.74081">
        <ele>154.19999694824</ele>
        <time>2021-09-30T14:27:14Z</time>
      </trkpt>
      <trkpt lat="48.35563" lon="2.74089">
        <ele>154</ele>
        <time>2021-09-30T14:27:19Z</time>
      </trkpt>
      <trkpt lat="48.3556" lon="2.74098">
        <ele>154.19999694824</ele>
        <time>2021-09-30T14:27:24Z</time>
      </trkpt>
      <trkpt lat="48.35558" lon="2.74104">
        <ele>154.39999389648</ele>
        <time>2021-09-30T14:27:29Z</time>
      </trkpt>
      <trkpt lat="48.35552" lon="2.7411">
        <ele>154.39999389648</ele>
        <time>2021-09-30T14:27:34Z</time>
      </trkpt>
      <trkpt lat="48.35548" lon="2.74119">
        <ele>154.19999694824</ele>
        <time>2021-09-30T14:27:39Z</time>
      </trkpt>
      <trkpt lat="48.35545" lon="2.74125">
        <ele>154</ele>
        <time>2021-09-30T14:27:44Z</time>
      </trkpt>
      <trkpt lat="48.35541" lon="2.74129">
        <ele>154</ele>
        <time>2021-09-30T14:27:49Z</time>
      </trkpt>
      <trkpt lat="48.35538" lon="2.74136">
        <ele>154</ele>
        <time>2021-09-30T14:27:54Z</time>
      </trkpt>
      <trkpt lat="48.35535" lon="2.74142">
        <ele>154</ele>
        <time>2021-09-30T14:27:59Z</time>
      </trkpt>
      <trkpt lat="48.35531" lon="2.74148">
        <ele>154</ele>
        <time>2021-09-30T14:28:04Z</time>
      </trkpt>
      <trkpt lat="48.35526" lon="2.74153">
        <ele>154</ele>
        <time>2021-09-30T14:28:09Z</time>
      </trkpt>
      <trkpt lat="48.35521" lon="2.74158">
        <ele>154</ele>
        <time>2021-09-30T14:28:14Z</time>
      </trkpt>
      <trkpt lat="48.35518" lon="2.74162">
        <ele>154.19999694824</ele>
        <time>2021-09-30T14:28:19Z</time>
      </trkpt>
      <trkpt lat="48.35516" lon="2.74166">
        <ele>154.19999694824</ele>
        <time>2021-09-30T14:28:24Z</time>
      </trkpt>
      <trkpt lat="48.35513" lon="2.74171">
        <ele>154.19999694824</ele>
        <time>2021-09-30T14:28:29Z</time>
      </trkpt>
      <trkpt lat="48.35509" lon="2.74175">
        <ele>154</ele>
        <time>2021-09-30T14:28:34Z</time>
      </trkpt>
      <trkpt lat="48.35505" lon="2.7418">
        <ele>154</ele>
        <time>2021-09-30T14:28:39Z</time>
      </trkpt>
      <trkpt lat="48.35502" lon="2.74184">
        <ele>153.80000305176</ele>
        <time>2021-09-30T14:28:44Z</time>
      </trkpt>
      <trkpt lat="48.35498" lon="2.74188">
        <ele>153.80000305176</ele>
        <time>2021-09-30T14:28:49Z</time>
      </trkpt>
      <trkpt lat="48.35494" lon="2.74193">
        <ele>153.60000610352</ele>
        <time>2021-09-30T14:28:54Z</time>
      </trkpt>
      <trkpt lat="48.35489" lon="2.74196">
        <ele>153.80000305176</ele>
        <time>2021-09-30T14:28:59Z</time>
      </trkpt>
      <trkpt lat="48.35487" lon="2.74196">
        <ele>153.60000610352</ele>
        <time>2021-09-30T14:29:04Z</time>
      </trkpt>
      <trkpt lat="48.3548" lon="2.74197">
        <ele>153.60000610352</ele>
        <time>2021-09-30T14:29:09Z</time>
      </trkpt>
      <trkpt lat="48.35474" lon="2.74198">
        <ele>153.19999694824</ele>
        <time>2021-09-30T14:29:14Z</time>
      </trkpt>
      <trkpt lat="48.35469" lon="2.74197">
        <ele>152.80000305176</ele>
        <time>2021-09-30T14:29:19Z</time>
      </trkpt>
      <trkpt lat="48.35464" lon="2.74195">
        <ele>152.39999389648</ele>
        <time>2021-09-30T14:29:24Z</time>
      </trkpt>
      <trkpt lat="48.35458" lon="2.74195">
        <ele>151.80000305176</ele>
        <time>2021-09-30T14:29:29Z</time>
      </trkpt>
      <trkpt lat="48.35455" lon="2.74193">
        <ele>151.60000610352</ele>
        <time>2021-09-30T14:29:34Z</time>
      </trkpt>
      <trkpt lat="48.35451" lon="2.74192">
        <ele>151.19999694824</ele>
        <time>2021-09-30T14:29:39Z</time>
      </trkpt>
      <trkpt lat="48.35446" lon="2.74191">
        <ele>151</ele>
        <time>2021-09-30T14:29:44Z</time>
      </trkpt>
      <trkpt lat="48.3544" lon="2.74191">
        <ele>150.39999389648</ele>
        <time>2021-09-30T14:29:49Z</time>
      </trkpt>
      <trkpt lat="48.35436" lon="2.74189">
        <ele>150.19999694824</ele>
        <time>2021-09-30T14:29:54Z</time>
      </trkpt>
      <trkpt lat="48.35432" lon="2.74189">
        <ele>149.60000610352</ele>
        <time>2021-09-30T14:29:59Z</time>
      </trkpt>
      <trkpt lat="48.35427" lon="2.74193">
        <ele>149.19999694824</ele>
        <time>2021-09-30T14:30:04Z</time>
      </trkpt>
      <trkpt lat="48.35425" lon="2.74195">
        <ele>148.80000305176</ele>
        <time>2021-09-30T14:30:09Z</time>
      </trkpt>
      <trkpt lat="48.3542" lon="2.742">
        <ele>148.19999694824</ele>
        <time>2021-09-30T14:30:14Z</time>
      </trkpt>
      <trkpt lat="48.35413" lon="2.74203">
        <ele>147.80000305176</ele>
        <time>2021-09-30T14:30:19Z</time>
      </trkpt>
      <trkpt lat="48.35407" lon="2.74208">
        <ele>147</ele>
        <time>2021-09-30T14:30:24Z</time>
      </trkpt>
      <trkpt lat="48.35402" lon="2.74213">
        <ele>146.80000305176</ele>
        <time>2021-09-30T14:30:29Z</time>
      </trkpt>
      <trkpt lat="48.35399" lon="2.74223">
        <ele>146.39999389648</ele>
        <time>2021-09-30T14:30:34Z</time>
      </trkpt>
      <trkpt lat="48.35397" lon="2.74231">
        <ele>146.19999694824</ele>
        <time>2021-09-30T14:30:39Z</time>
      </trkpt>
      <trkpt lat="48.35397" lon="2.74237">
        <ele>145.80000305176</ele>
        <time>2021-09-30T14:30:44Z</time>
      </trkpt>
      <trkpt lat="48.35395" lon="2.74245">
        <ele>145.60000610352</ele>
        <time>2021-09-30T14:30:49Z</time>
      </trkpt>
      <trkpt lat="48.35395" lon="2.74254">
        <ele>145.60000610352</ele>
        <time>2021-09-30T14:30:54Z</time>
      </trkpt>
      <trkpt lat="48.35394" lon="2.74262">
        <ele>145.39999389648</ele>
        <time>2021-09-30T14:30:59Z</time>
      </trkpt>
      <trkpt lat="48.35396" lon="2.74268">
        <ele>145.19999694824</ele>
        <time>2021-09-30T14:31:04Z</time>
      </trkpt>
      <trkpt lat="48.35395" lon="2.74275">
        <ele>145.19999694824</ele>
        <time>2021-09-30T14:31:09Z</time>
      </trkpt>
      <trkpt lat="48.35396" lon="2.74283">
        <ele>145.19999694824</ele>
        <time>2021-09-30T14:31:14Z</time>
      </trkpt>
      <trkpt lat="48.35393" lon="2.74289">
        <ele>145</ele>
        <time>2021-09-30T14:31:19Z</time>
      </trkpt>
      <trkpt lat="48.35391" lon="2.74299">
        <ele>145</ele>
        <time>2021-09-30T14:31:24Z</time>
      </trkpt>
      <trkpt lat="48.35391" lon="2.74306">
        <ele>144.80000305176</ele>
        <time>2021-09-30T14:31:29Z</time>
      </trkpt>
      <trkpt lat="48.3539" lon="2.74312">
        <ele>144.80000305176</ele>
        <time>2021-09-30T14:31:34Z</time>
      </trkpt>
      <trkpt lat="48.35389" lon="2.74317">
        <ele>144.80000305176</ele>
        <time>2021-09-30T14:31:39Z</time>
      </trkpt>
      <trkpt lat="48.35388" lon="2.74324">
        <ele>144.80000305176</ele>
        <time>2021-09-30T14:31:44Z</time>
      </trkpt>
      <trkpt lat="48.35385" lon="2.74333">
        <ele>144.80000305176</ele>
        <time>2021-09-30T14:31:49Z</time>
      </trkpt>
      <trkpt lat="48.35383" lon="2.74339">
        <ele>144.39999389648</ele>
        <time>2021-09-30T14:31:54Z</time>
      </trkpt>
      <trkpt lat="48.35381" lon="2.74345">
        <ele>144.39999389648</ele>
        <time>2021-09-30T14:31:59Z</time>
      </trkpt>
      <trkpt lat="48.35378" lon="2.74351">
        <ele>144.19999694824</ele>
        <time>2021-09-30T14:32:04Z</time>
      </trkpt>
      <trkpt lat="48.35377" lon="2.74357">
        <ele>144</ele>
        <time>2021-09-30T14:32:09Z</time>
      </trkpt>
      <trkpt lat="48.35377" lon="2.74364">
        <ele>143.80000305176</ele>
        <time>2021-09-30T14:32:14Z</time>
      </trkpt>
      <trkpt lat="48.35375" lon="2.74371">
        <ele>143.80000305176</ele>
        <time>2021-09-30T14:32:19Z</time>
      </trkpt>
      <trkpt lat="48.35371" lon="2.7438">
        <ele>143.80000305176</ele>
        <time>2021-09-30T14:32:24Z</time>
      </trkpt>
      <trkpt lat="48.35369" lon="2.74387">
        <ele>143.60000610352</ele>
        <time>2021-09-30T14:32:29Z</time>
      </trkpt>
      <trkpt lat="48.35369" lon="2.74397">
        <ele>143.39999389648</ele>
        <time>2021-09-30T14:32:34Z</time>
      </trkpt>
      <trkpt lat="48.35369" lon="2.74405">
        <ele>143.39999389648</ele>
        <time>2021-09-30T14:32:39Z</time>
      </trkpt>
      <trkpt lat="48.35369" lon="2.74412">
        <ele>143</ele>
        <time>2021-09-30T14:32:44Z</time>
      </trkpt>
      <trkpt lat="48.35369" lon="2.74418">
        <ele>143</ele>
        <time>2021-09-30T14:32:49Z</time>
      </trkpt>
      <trkpt lat="48.35369" lon="2.74425">
        <ele>143</ele>
        <time>2021-09-30T14:32:54Z</time>
      </trkpt>
      <trkpt lat="48.35368" lon="2.74431">
        <ele>143</ele>
        <time>2021-09-30T14:32:59Z</time>
      </trkpt>
      <trkpt lat="48.35369" lon="2.74439">
        <ele>142.80000305176</ele>
        <time>2021-09-30T14:33:04Z</time>
      </trkpt>
      <trkpt lat="48.35368" lon="2.74446">
        <ele>142.60000610352</ele>
        <time>2021-09-30T14:33:09Z</time>
      </trkpt>
      <trkpt lat="48.35368" lon="2.74454">
        <ele>142.60000610352</ele>
        <time>2021-09-30T14:33:14Z</time>
      </trkpt>
      <trkpt lat="48.35369" lon="2.74462">
        <ele>142.60000610352</ele>
        <time>2021-09-30T14:33:19Z</time>
      </trkpt>
      <trkpt lat="48.35369" lon="2.74469">
        <ele>142.60000610352</ele>
        <time>2021-09-30T14:33:24Z</time>
      </trkpt>
      <trkpt lat="48.3537" lon="2.74477">
        <ele>142.39999389648</ele>
        <time>2021-09-30T14:33:29Z</time>
      </trkpt>
      <trkpt lat="48.35368" lon="2.74487">
        <ele>142.19999694824</ele>
        <time>2021-09-30T14:33:34Z</time>
      </trkpt>
      <trkpt lat="48.35368" lon="2.74499">
        <ele>142.19999694824</ele>
        <time>2021-09-30T14:33:39Z</time>
      </trkpt>
      <trkpt lat="48.35367" lon="2.74507">
        <ele>142.19999694824</ele>
        <time>2021-09-30T14:33:44Z</time>
      </trkpt>
      <trkpt lat="48.35369" lon="2.74516">
        <ele>142.19999694824</ele>
        <time>2021-09-30T14:33:49Z</time>
      </trkpt>
      <trkpt lat="48.35369" lon="2.74524">
        <ele>142.19999694824</ele>
        <time>2021-09-30T14:33:54Z</time>
      </trkpt>
      <trkpt lat="48.3537" lon="2.74532">
        <ele>142.19999694824</ele>
        <time>2021-09-30T14:33:59Z</time>
      </trkpt>
      <trkpt lat="48.35371" lon="2.7454">
        <ele>142.39999389648</ele>
        <time>2021-09-30T14:34:04Z</time>
      </trkpt>
      <trkpt lat="48.3537" lon="2.74547">
        <ele>142.19999694824</ele>
        <time>2021-09-30T14:34:09Z</time>
      </trkpt>
      <trkpt lat="48.3537" lon="2.74556">
        <ele>142.19999694824</ele>
        <time>2021-09-30T14:34:14Z</time>
      </trkpt>
      <trkpt lat="48.35372" lon="2.74563">
        <ele>142.19999694824</ele>
        <time>2021-09-30T14:34:19Z</time>
      </trkpt>
      <trkpt lat="48.35373" lon="2.74571">
        <ele>142.19999694824</ele>
        <time>2021-09-30T14:34:24Z</time>
      </trkpt>
      <trkpt lat="48.35372" lon="2.74581">
        <ele>142.19999694824</ele>
        <time>2021-09-30T14:34:29Z</time>
      </trkpt>
      <trkpt lat="48.35369" lon="2.74587">
        <ele>142</ele>
        <time>2021-09-30T14:34:34Z</time>
      </trkpt>
      <trkpt lat="48.35368" lon="2.74596">
        <ele>141.80000305176</ele>
        <time>2021-09-30T14:34:39Z</time>
      </trkpt>
      <trkpt lat="48.35369" lon="2.74602">
        <ele>141.80000305176</ele>
        <time>2021-09-30T14:34:44Z</time>
      </trkpt>
      <trkpt lat="48.35369" lon="2.7461">
        <ele>141.60000610352</ele>
        <time>2021-09-30T14:34:49Z</time>
      </trkpt>
      <trkpt lat="48.35367" lon="2.74618">
        <ele>141.60000610352</ele>
        <time>2021-09-30T14:34:54Z</time>
      </trkpt>
      <trkpt lat="48.35364" lon="2.74625">
        <ele>141.39999389648</ele>
        <time>2021-09-30T14:34:59Z</time>
      </trkpt>
      <trkpt lat="48.35363" lon="2.74635">
        <ele>141.39999389648</ele>
        <time>2021-09-30T14:35:04Z</time>
      </trkpt>
      <trkpt lat="48.35362" lon="2.74644">
        <ele>141.39999389648</ele>
        <time>2021-09-30T14:35:09Z</time>
      </trkpt>
      <trkpt lat="48.35363" lon="2.74652">
        <ele>141.39999389648</ele>
        <time>2021-09-30T14:35:14Z</time>
      </trkpt>
      <trkpt lat="48.35363" lon="2.74658">
        <ele>141.39999389648</ele>
        <time>2021-09-30T14:35:19Z</time>
      </trkpt>
      <trkpt lat="48.35363" lon="2.74666">
        <ele>141.39999389648</ele>
        <time>2021-09-30T14:35:24Z</time>
      </trkpt>
      <trkpt lat="48.35363" lon="2.74673">
        <ele>141.39999389648</ele>
        <time>2021-09-30T14:35:29Z</time>
      </trkpt>
      <trkpt lat="48.35363" lon="2.7468">
        <ele>141.60000610352</ele>
        <time>2021-09-30T14:35:34Z</time>
      </trkpt>
      <trkpt lat="48.35364" lon="2.74689">
        <ele>141.60000610352</ele>
        <time>2021-09-30T14:35:39Z</time>
      </trkpt>
      <trkpt lat="48.35366" lon="2.74696">
        <ele>141.60000610352</ele>
        <time>2021-09-30T14:35:44Z</time>
      </trkpt>
      <trkpt lat="48.35366" lon="2.74703">
        <ele>141.80000305176</ele>
        <time>2021-09-30T14:35:49Z</time>
      </trkpt>
      <trkpt lat="48.35366" lon="2.74712">
        <ele>142</ele>
        <time>2021-09-30T14:35:54Z</time>
      </trkpt>
      <trkpt lat="48.35368" lon="2.7472">
        <ele>142.19999694824</ele>
        <time>2021-09-30T14:35:59Z</time>
      </trkpt>
      <trkpt lat="48.35368" lon="2.74728">
        <ele>142.39999389648</ele>
        <time>2021-09-30T14:36:04Z</time>
      </trkpt>
      <trkpt lat="48.35369" lon="2.74736">
        <ele>142.60000610352</ele>
        <time>2021-09-30T14:36:09Z</time>
      </trkpt>
      <trkpt lat="48.3537" lon="2.74743">
        <ele>142.60000610352</ele>
        <time>2021-09-30T14:36:14Z</time>
      </trkpt>
      <trkpt lat="48.35372" lon="2.7475">
        <ele>142.80000305176</ele>
        <time>2021-09-30T14:36:19Z</time>
      </trkpt>
      <trkpt lat="48.35372" lon="2.74758">
        <ele>143</ele>
        <time>2021-09-30T14:36:24Z</time>
      </trkpt>
      <trkpt lat="48.35372" lon="2.74767">
        <ele>143.19999694824</ele>
        <time>2021-09-30T14:36:29Z</time>
      </trkpt>
      <trkpt lat="48.35374" lon="2.74774">
        <ele>143.19999694824</ele>
        <time>2021-09-30T14:36:34Z</time>
      </trkpt>
      <trkpt lat="48.35376" lon="2.74782">
        <ele>143.60000610352</ele>
        <time>2021-09-30T14:36:39Z</time>
      </trkpt>
      <trkpt lat="48.35378" lon="2.74789">
        <ele>143.80000305176</ele>
        <time>2021-09-30T14:36:44Z</time>
      </trkpt>
      <trkpt lat="48.35378" lon="2.74797">
        <ele>144.39999389648</ele>
        <time>2021-09-30T14:36:49Z</time>
      </trkpt>
      <trkpt lat="48.35378" lon="2.74805">
        <ele>144.60000610352</ele>
        <time>2021-09-30T14:36:54Z</time>
      </trkpt>
      <trkpt lat="48.35381" lon="2.74811">
        <ele>144.80000305176</ele>
        <time>2021-09-30T14:36:59Z</time>
      </trkpt>
      <trkpt lat="48.35383" lon="2.74817">
        <ele>144.39999389648</ele>
        <time>2021-09-30T14:37:04Z</time>
      </trkpt>
      <trkpt lat="48.35385" lon="2.74822">
        <ele>144.39999389648</ele>
        <time>2021-09-30T14:37:09Z</time>
      </trkpt>
      <trkpt lat="48.35386" lon="2.74829">
        <ele>144.39999389648</ele>
        <time>2021-09-30T14:37:14Z</time>
      </trkpt>
      <trkpt lat="48.35389" lon="2.74836">
        <ele>144.19999694824</ele>
        <time>2021-09-30T14:37:19Z</time>
      </trkpt>
      <trkpt lat="48.35391" lon="2.74839">
        <ele>144</ele>
        <time>2021-09-30T14:37:24Z</time>
      </trkpt>
      <trkpt lat="48.35396" lon="2.74848">
        <ele>143.80000305176</ele>
        <time>2021-09-30T14:37:29Z</time>
      </trkpt>
      <trkpt lat="48.354" lon="2.74855">
        <ele>143.39999389648</ele>
        <time>2021-09-30T14:37:34Z</time>
      </trkpt>
      <trkpt lat="48.35402" lon="2.7486">
        <ele>143.19999694824</ele>
        <time>2021-09-30T14:37:39Z</time>
      </trkpt>
      <trkpt lat="48.35406" lon="2.74868">
        <ele>142.80000305176</ele>
        <time>2021-09-30T14:37:44Z</time>
      </trkpt>
      <trkpt lat="48.35409" lon="2.74874">
        <ele>142.39999389648</ele>
        <time>2021-09-30T14:37:49Z</time>
      </trkpt>
      <trkpt lat="48.35414" lon="2.74881">
        <ele>142.19999694824</ele>
        <time>2021-09-30T14:37:54Z</time>
      </trkpt>
      <trkpt lat="48.35416" lon="2.7489">
        <ele>141.80000305176</ele>
        <time>2021-09-30T14:37:59Z</time>
      </trkpt>
      <trkpt lat="48.35421" lon="2.74898">
        <ele>141.39999389648</ele>
        <time>2021-09-30T14:38:04Z</time>
      </trkpt>
      <trkpt lat="48.35424" lon="2.74901">
        <ele>141.19999694824</ele>
        <time>2021-09-30T14:38:09Z</time>
      </trkpt>
      <trkpt lat="48.35423" lon="2.74909">
        <ele>140.80000305176</ele>
        <time>2021-09-30T14:38:14Z</time>
      </trkpt>
      <trkpt lat="48.35426" lon="2.74916">
        <ele>140.39999389648</ele>
        <time>2021-09-30T14:38:19Z</time>
      </trkpt>
      <trkpt lat="48.35428" lon="2.74922">
        <ele>139.80000305176</ele>
        <time>2021-09-30T14:38:24Z</time>
      </trkpt>
      <trkpt lat="48.35432" lon="2.74926">
        <ele>139.39999389648</ele>
        <time>2021-09-30T14:38:29Z</time>
      </trkpt>
      <trkpt lat="48.35436" lon="2.74927">
        <ele>139.19999694824</ele>
        <time>2021-09-30T14:38:34Z</time>
      </trkpt>
      <trkpt lat="48.35442" lon="2.74931">
        <ele>138.80000305176</ele>
        <time>2021-09-30T14:38:39Z</time>
      </trkpt>
      <trkpt lat="48.35445" lon="2.74939">
        <ele>138.60000610352</ele>
        <time>2021-09-30T14:38:44Z</time>
      </trkpt>
      <trkpt lat="48.35446" lon="2.74947">
        <ele>138.19999694824</ele>
        <time>2021-09-30T14:38:49Z</time>
      </trkpt>
      <trkpt lat="48.35451" lon="2.74952">
        <ele>137.60000610352</ele>
        <time>2021-09-30T14:38:54Z</time>
      </trkpt>
      <trkpt lat="48.35454" lon="2.74956">
        <ele>137.19999694824</ele>
        <time>2021-09-30T14:38:59Z</time>
      </trkpt>
      <trkpt lat="48.3546" lon="2.74963">
        <ele>137</ele>
        <time>2021-09-30T14:39:04Z</time>
      </trkpt>
      <trkpt lat="48.35463" lon="2.74968">
        <ele>136.80000305176</ele>
        <time>2021-09-30T14:39:09Z</time>
      </trkpt>
      <trkpt lat="48.35462" lon="2.74976">
        <ele>136.60000610352</ele>
        <time>2021-09-30T14:39:14Z</time>
      </trkpt>
      <trkpt lat="48.35462" lon="2.74978">
        <ele>136.60000610352</ele>
        <time>2021-09-30T14:39:19Z</time>
      </trkpt>
      <trkpt lat="48.35464" lon="2.74981">
        <ele>136.60000610352</ele>
        <time>2021-09-30T14:39:24Z</time>
      </trkpt>
      <trkpt lat="48.35467" lon="2.74986">
        <ele>136.39999389648</ele>
        <time>2021-09-30T14:39:29Z</time>
      </trkpt>
      <trkpt lat="48.35471" lon="2.74991">
        <ele>135.80000305176</ele>
        <time>2021-09-30T14:39:34Z</time>
      </trkpt>
      <trkpt lat="48.35476" lon="2.74997">
        <ele>135.60000610352</ele>
        <time>2021-09-30T14:39:39Z</time>
      </trkpt>
      <trkpt lat="48.35479" lon="2.75003">
        <ele>135.39999389648</ele>
        <time>2021-09-30T14:39:44Z</time>
      </trkpt>
      <trkpt lat="48.35485" lon="2.75005">
        <ele>135.19999694824</ele>
        <time>2021-09-30T14:39:49Z</time>
      </trkpt>
      <trkpt lat="48.35491" lon="2.75007">
        <ele>135.19999694824</ele>
        <time>2021-09-30T14:39:54Z</time>
      </trkpt>
      <trkpt lat="48.35493" lon="2.75011">
        <ele>134.80000305176</ele>
        <time>2021-09-30T14:39:59Z</time>
      </trkpt>
      <trkpt lat="48.35496" lon="2.75015">
        <ele>134.19999694824</ele>
        <time>2021-09-30T14:40:04Z</time>
      </trkpt>
      <trkpt lat="48.35499" lon="2.75021">
        <ele>133.39999389648</ele>
        <time>2021-09-30T14:40:09Z</time>
      </trkpt>
      <trkpt lat="48.35505" lon="2.75026">
        <ele>132.39999389648</ele>
        <time>2021-09-30T14:40:14Z</time>
      </trkpt>
      <trkpt lat="48.35509" lon="2.75031">
        <ele>131.19999694824</ele>
        <time>2021-09-30T14:40:19Z</time>
      </trkpt>
      <trkpt lat="48.35511" lon="2.75037">
        <ele>130</ele>
        <time>2021-09-30T14:40:24Z</time>
      </trkpt>
      <trkpt lat="48.35513" lon="2.75043">
        <ele>129</ele>
        <time>2021-09-30T14:40:29Z</time>
      </trkpt>
      <trkpt lat="48.35514" lon="2.75047">
        <ele>128.19999694824</ele>
        <time>2021-09-30T14:40:34Z</time>
      </trkpt>
      <trkpt lat="48.35517" lon="2.75053">
        <ele>127.40000152588</ele>
        <time>2021-09-30T14:40:39Z</time>
      </trkpt>
      <trkpt lat="48.35519" lon="2.7506">
        <ele>126.59999847412</ele>
        <time>2021-09-30T14:40:44Z</time>
      </trkpt>
      <trkpt lat="48.3552" lon="2.75065">
        <ele>125.59999847412</ele>
        <time>2021-09-30T14:40:49Z</time>
      </trkpt>
      <trkpt lat="48.35524" lon="2.75072">
        <ele>124.59999847412</ele>
        <time>2021-09-30T14:40:54Z</time>
      </trkpt>
      <trkpt lat="48.35526" lon="2.75079">
        <ele>123.80000305176</ele>
        <time>2021-09-30T14:40:59Z</time>
      </trkpt>
      <trkpt lat="48.3553" lon="2.75086">
        <ele>122.80000305176</ele>
        <time>2021-09-30T14:41:04Z</time>
      </trkpt>
      <trkpt lat="48.35533" lon="2.75092">
        <ele>122.40000152588</ele>
        <time>2021-09-30T14:41:09Z</time>
      </trkpt>
      <trkpt lat="48.35537" lon="2.75096">
        <ele>121.59999847412</ele>
        <time>2021-09-30T14:41:14Z</time>
      </trkpt>
      <trkpt lat="48.35541" lon="2.75103">
        <ele>120.80000305176</ele>
        <time>2021-09-30T14:41:19Z</time>
      </trkpt>
      <trkpt lat="48.35545" lon="2.75108">
        <ele>120.19999694824</ele>
        <time>2021-09-30T14:41:24Z</time>
      </trkpt>
      <trkpt lat="48.35549" lon="2.75111">
        <ele>119.59999847412</ele>
        <time>2021-09-30T14:41:29Z</time>
      </trkpt>
      <trkpt lat="48.35552" lon="2.75115">
        <ele>119</ele>
        <time>2021-09-30T14:41:34Z</time>
      </trkpt>
      <trkpt lat="48.35556" lon="2.7512">
        <ele>118.59999847412</ele>
        <time>2021-09-30T14:41:39Z</time>
      </trkpt>
      <trkpt lat="48.35563" lon="2.75124">
        <ele>118</ele>
        <time>2021-09-30T14:41:44Z</time>
      </trkpt>
      <trkpt lat="48.35568" lon="2.75129">
        <ele>117.40000152588</ele>
        <time>2021-09-30T14:41:49Z</time>
      </trkpt>
      <trkpt lat="48.35573" lon="2.75131">
        <ele>116.59999847412</ele>
        <time>2021-09-30T14:41:54Z</time>
      </trkpt>
      <trkpt lat="48.35577" lon="2.75136">
        <ele>116</ele>
        <time>2021-09-30T14:41:59Z</time>
      </trkpt>
      <trkpt lat="48.35584" lon="2.75139">
        <ele>115.19999694824</ele>
        <time>2021-09-30T14:42:04Z</time>
      </trkpt>
      <trkpt lat="48.35591" lon="2.75144">
        <ele>114.40000152588</ele>
        <time>2021-09-30T14:42:09Z</time>
      </trkpt>
      <trkpt lat="48.35597" lon="2.75147">
        <ele>113.80000305176</ele>
        <time>2021-09-30T14:42:14Z</time>
      </trkpt>
      <trkpt lat="48.356" lon="2.7515">
        <ele>113.40000152588</ele>
        <time>2021-09-30T14:42:19Z</time>
      </trkpt>
      <trkpt lat="48.35605" lon="2.75152">
        <ele>112.80000305176</ele>
        <time>2021-09-30T14:42:24Z</time>
      </trkpt>
      <trkpt lat="48.35613" lon="2.75155">
        <ele>112.19999694824</ele>
        <time>2021-09-30T14:42:29Z</time>
      </trkpt>
      <trkpt lat="48.35618" lon="2.75156">
        <ele>111.80000305176</ele>
        <time>2021-09-30T14:42:34Z</time>
      </trkpt>
      <trkpt lat="48.35623" lon="2.75159">
        <ele>111.19999694824</ele>
        <time>2021-09-30T14:42:39Z</time>
      </trkpt>
      <trkpt lat="48.35628" lon="2.75163">
        <ele>110.80000305176</ele>
        <time>2021-09-30T14:42:44Z</time>
      </trkpt>
      <trkpt lat="48.35634" lon="2.75167">
        <ele>110.19999694824</ele>
        <time>2021-09-30T14:42:49Z</time>
      </trkpt>
      <trkpt lat="48.35638" lon="2.75169">
        <ele>109.80000305176</ele>
        <time>2021-09-30T14:42:54Z</time>
      </trkpt>
      <trkpt lat="48.35644" lon="2.75172">
        <ele>109.59999847412</ele>
        <time>2021-09-30T14:42:59Z</time>
      </trkpt>
      <trkpt lat="48.35651" lon="2.75176">
        <ele>109.40000152588</ele>
        <time>2021-09-30T14:43:04Z</time>
      </trkpt>
      <trkpt lat="48.35657" lon="2.75181">
        <ele>109.19999694824</ele>
        <time>2021-09-30T14:43:09Z</time>
      </trkpt>
      <trkpt lat="48.35664" lon="2.75185">
        <ele>109</ele>
        <time>2021-09-30T14:43:14Z</time>
      </trkpt>
      <trkpt lat="48.3567" lon="2.75189">
        <ele>108.80000305176</ele>
        <time>2021-09-30T14:43:19Z</time>
      </trkpt>
      <trkpt lat="48.35674" lon="2.75191">
        <ele>108.80000305176</ele>
        <time>2021-09-30T14:43:24Z</time>
      </trkpt>
      <trkpt lat="48.3568" lon="2.75193">
        <ele>108.40000152588</ele>
        <time>2021-09-30T14:43:29Z</time>
      </trkpt>
      <trkpt lat="48.35686" lon="2.75197">
        <ele>108.19999694824</ele>
        <time>2021-09-30T14:43:34Z</time>
      </trkpt>
      <trkpt lat="48.35691" lon="2.75201">
        <ele>108.19999694824</ele>
        <time>2021-09-30T14:43:39Z</time>
      </trkpt>
      <trkpt lat="48.35695" lon="2.75204">
        <ele>108.19999694824</ele>
        <time>2021-09-30T14:43:44Z</time>
      </trkpt>
      <trkpt lat="48.35699" lon="2.75206">
        <ele>108</ele>
        <time>2021-09-30T14:43:49Z</time>
      </trkpt>
      <trkpt lat="48.35701" lon="2.75207">
        <ele>108</ele>
        <time>2021-09-30T14:43:54Z</time>
      </trkpt>
      <trkpt lat="48.35701" lon="2.75207">
        <ele>108</ele>
        <time>2021-09-30T14:43:59Z</time>
      </trkpt>
      <trkpt lat="48.35701" lon="2.75207">
        <ele>107.80000305176</ele>
        <time>2021-09-30T14:44:04Z</time>
      </trkpt>
      <trkpt lat="48.35699" lon="2.75208">
        <ele>107.80000305176</ele>
        <time>2021-09-30T14:44:09Z</time>
      </trkpt>
      <trkpt lat="48.35698" lon="2.7521">
        <ele>107.80000305176</ele>
        <time>2021-09-30T14:44:14Z</time>
      </trkpt>
      <trkpt lat="48.35697" lon="2.75211">
        <ele>107.80000305176</ele>
        <time>2021-09-30T14:44:19Z</time>
      </trkpt>
      <trkpt lat="48.35697" lon="2.75213">
        <ele>107.59999847412</ele>
        <time>2021-09-30T14:44:24Z</time>
      </trkpt>
      <trkpt lat="48.35697" lon="2.75213">
        <ele>107.40000152588</ele>
        <time>2021-09-30T14:44:29Z</time>
      </trkpt>
      <trkpt lat="48.35697" lon="2.75214">
        <ele>107.40000152588</ele>
        <time>2021-09-30T14:44:34Z</time>
      </trkpt>
      <trkpt lat="48.35697" lon="2.75215">
        <ele>107.40000152588</ele>
        <time>2021-09-30T14:44:39Z</time>
      </trkpt>
      <trkpt lat="48.35696" lon="2.75215">
        <ele>107.40000152588</ele>
        <time>2021-09-30T14:44:44Z</time>
      </trkpt>
      <trkpt lat="48.35694" lon="2.75214">
        <ele>107.19999694824</ele>
        <time>2021-09-30T14:44:49Z</time>
      </trkpt>
      <trkpt lat="48.35693" lon="2.75216">
        <ele>107.40000152588</ele>
        <time>2021-09-30T14:44:54Z</time>
      </trkpt>
      <trkpt lat="48.35693" lon="2.75218">
        <ele>107.40000152588</ele>
        <time>2021-09-30T14:44:59Z</time>
      </trkpt>
      <trkpt lat="48.35694" lon="2.7522">
        <ele>107.40000152588</ele>
        <time>2021-09-30T14:45:04Z</time>
      </trkpt>
      <trkpt lat="48.35695" lon="2.75222">
        <ele>107.40000152588</ele>
        <time>2021-09-30T14:45:09Z</time>
      </trkpt>
      <trkpt lat="48.35695" lon="2.75223">
        <ele>107.40000152588</ele>
        <time>2021-09-30T14:45:14Z</time>
      </trkpt>
      <trkpt lat="48.35696" lon="2.75223">
        <ele>107.40000152588</ele>
        <time>2021-09-30T14:45:19Z</time>
      </trkpt>
      <trkpt lat="48.35696" lon="2.75223">
        <ele>107.40000152588</ele>
        <time>2021-09-30T14:45:24Z</time>
      </trkpt>
      <trkpt lat="48.35696" lon="2.75222">
        <ele>107.40000152588</ele>
        <time>2021-09-30T14:45:29Z</time>
      </trkpt>
      <trkpt lat="48.35696" lon="2.75221">
        <ele>107.40000152588</ele>
        <time>2021-09-30T14:45:34Z</time>
      </trkpt>
      <trkpt lat="48.35696" lon="2.75221">
        <ele>107.40000152588</ele>
        <time>2021-09-30T14:45:39Z</time>
      </trkpt>
      <trkpt lat="48.35695" lon="2.75221">
        <ele>107.40000152588</ele>
        <time>2021-09-30T14:45:44Z</time>
      </trkpt>
      <trkpt lat="48.35696" lon="2.7522">
        <ele>107.40000152588</ele>
        <time>2021-09-30T14:45:49Z</time>
      </trkpt>
      <trkpt lat="48.35697" lon="2.7522">
        <ele>107.40000152588</ele>
        <time>2021-09-30T14:45:54Z</time>
      </trkpt>
      <trkpt lat="48.35696" lon="2.75219">
        <ele>107.40000152588</ele>
        <time>2021-09-30T14:45:59Z</time>
      </trkpt>
      <trkpt lat="48.35696" lon="2.75221">
        <ele>107.40000152588</ele>
        <time>2021-09-30T14:46:04Z</time>
      </trkpt>
      <trkpt lat="48.35696" lon="2.75221">
        <ele>107.40000152588</ele>
        <time>2021-09-30T14:46:09Z</time>
      </trkpt>
      <trkpt lat="48.35697" lon="2.75221">
        <ele>107.40000152588</ele>
        <time>2021-09-30T14:46:14Z</time>
      </trkpt>
      <trkpt lat="48.35699" lon="2.7522">
        <ele>107.40000152588</ele>
        <time>2021-09-30T14:46:19Z</time>
      </trkpt>
      <trkpt lat="48.35701" lon="2.75219">
        <ele>107.40000152588</ele>
        <time>2021-09-30T14:46:24Z</time>
      </trkpt>
      <trkpt lat="48.357" lon="2.75219">
        <ele>107.40000152588</ele>
        <time>2021-09-30T14:46:29Z</time>
      </trkpt>
      <trkpt lat="48.35701" lon="2.75219">
        <ele>107.40000152588</ele>
        <time>2021-09-30T14:46:34Z</time>
      </trkpt>
      <trkpt lat="48.35702" lon="2.75218">
        <ele>107.40000152588</ele>
        <time>2021-09-30T14:46:39Z</time>
      </trkpt>
      <trkpt lat="48.35702" lon="2.75218">
        <ele>107.40000152588</ele>
        <time>2021-09-30T14:46:44Z</time>
      </trkpt>
      <trkpt lat="48.35702" lon="2.75218">
        <ele>107.40000152588</ele>
        <time>2021-09-30T14:46:49Z</time>
      </trkpt>
      <trkpt lat="48.35702" lon="2.75217">
        <ele>107.40000152588</ele>
        <time>2021-09-30T14:46:54Z</time>
      </trkpt>
      <trkpt lat="48.35701" lon="2.75216">
        <ele>107.40000152588</ele>
        <time>2021-09-30T14:46:59Z</time>
      </trkpt>
      <trkpt lat="48.35701" lon="2.75215">
        <ele>107.40000152588</ele>
        <time>2021-09-30T14:47:04Z</time>
      </trkpt>
      <trkpt lat="48.35701" lon="2.75215">
        <ele>107.40000152588</ele>
        <time>2021-09-30T14:47:09Z</time>
      </trkpt>
      <trkpt lat="48.35703" lon="2.75216">
        <ele>107.40000152588</ele>
        <time>2021-09-30T14:47:14Z</time>
      </trkpt>
      <trkpt lat="48.35704" lon="2.75216">
        <ele>107.40000152588</ele>
        <time>2021-09-30T14:47:19Z</time>
      </trkpt>
      <trkpt lat="48.35708" lon="2.75216">
        <ele>107.40000152588</ele>
        <time>2021-09-30T14:47:24Z</time>
      </trkpt>
      <trkpt lat="48.35708" lon="2.75221">
        <ele>107.40000152588</ele>
        <time>2021-09-30T14:47:29Z</time>
      </trkpt>
      <trkpt lat="48.35708" lon="2.75226">
        <ele>107.40000152588</ele>
        <time>2021-09-30T14:47:34Z</time>
      </trkpt>
      <trkpt lat="48.35707" lon="2.75232">
        <ele>107.19999694824</ele>
        <time>2021-09-30T14:47:39Z</time>
      </trkpt>
      <trkpt lat="48.35706" lon="2.75238">
        <ele>107.19999694824</ele>
        <time>2021-09-30T14:47:44Z</time>
      </trkpt>
      <trkpt lat="48.35704" lon="2.75245">
        <ele>107.19999694824</ele>
        <time>2021-09-30T14:47:49Z</time>
      </trkpt>
      <trkpt lat="48.35702" lon="2.75252">
        <ele>107.40000152588</ele>
        <time>2021-09-30T14:47:54Z</time>
      </trkpt>
      <trkpt lat="48.357" lon="2.75259">
        <ele>107.40000152588</ele>
        <time>2021-09-30T14:47:59Z</time>
      </trkpt>
      <trkpt lat="48.35703" lon="2.75269">
        <ele>107.19999694824</ele>
        <time>2021-09-30T14:48:04Z</time>
      </trkpt>
      <trkpt lat="48.35702" lon="2.75275">
        <ele>107</ele>
        <time>2021-09-30T14:48:09Z</time>
      </trkpt>
      <trkpt lat="48.357" lon="2.75284">
        <ele>107</ele>
        <time>2021-09-30T14:48:14Z</time>
      </trkpt>
      <trkpt lat="48.35696" lon="2.75294">
        <ele>107</ele>
        <time>2021-09-30T14:48:19Z</time>
      </trkpt>
      <trkpt lat="48.35694" lon="2.75302">
        <ele>106.80000305176</ele>
        <time>2021-09-30T14:48:24Z</time>
      </trkpt>
      <trkpt lat="48.35694" lon="2.75313">
        <ele>106.80000305176</ele>
        <time>2021-09-30T14:48:29Z</time>
      </trkpt>
      <trkpt lat="48.35692" lon="2.7532">
        <ele>106.80000305176</ele>
        <time>2021-09-30T14:48:34Z</time>
      </trkpt>
      <trkpt lat="48.3569" lon="2.75328">
        <ele>106.80000305176</ele>
        <time>2021-09-30T14:48:39Z</time>
      </trkpt>
      <trkpt lat="48.3569" lon="2.75334">
        <ele>106.40000152588</ele>
        <time>2021-09-30T14:48:44Z</time>
      </trkpt>
      <trkpt lat="48.35691" lon="2.7534">
        <ele>106.40000152588</ele>
        <time>2021-09-30T14:48:49Z</time>
      </trkpt>
      <trkpt lat="48.35691" lon="2.75347">
        <ele>106.40000152588</ele>
        <time>2021-09-30T14:48:54Z</time>
      </trkpt>
      <trkpt lat="48.35691" lon="2.75355">
        <ele>106.40000152588</ele>
        <time>2021-09-30T14:48:59Z</time>
      </trkpt>
      <trkpt lat="48.35689" lon="2.75366">
        <ele>106.40000152588</ele>
        <time>2021-09-30T14:49:04Z</time>
      </trkpt>
      <trkpt lat="48.35688" lon="2.75375">
        <ele>106.19999694824</ele>
        <time>2021-09-30T14:49:09Z</time>
      </trkpt>
      <trkpt lat="48.35686" lon="2.75383">
        <ele>106.19999694824</ele>
        <time>2021-09-30T14:49:14Z</time>
      </trkpt>
      <trkpt lat="48.35687" lon="2.75392">
        <ele>106.40000152588</ele>
        <time>2021-09-30T14:49:19Z</time>
      </trkpt>
      <trkpt lat="48.35686" lon="2.754">
        <ele>106.59999847412</ele>
        <time>2021-09-30T14:49:24Z</time>
      </trkpt>
      <trkpt lat="48.35684" lon="2.75408">
        <ele>106.59999847412</ele>
        <time>2021-09-30T14:49:29Z</time>
      </trkpt>
      <trkpt lat="48.35681" lon="2.75415">
        <ele>106.80000305176</ele>
        <time>2021-09-30T14:49:34Z</time>
      </trkpt>
      <trkpt lat="48.35678" lon="2.75422">
        <ele>106.80000305176</ele>
        <time>2021-09-30T14:49:39Z</time>
      </trkpt>
      <trkpt lat="48.35677" lon="2.7543">
        <ele>107</ele>
        <time>2021-09-30T14:49:44Z</time>
      </trkpt>
      <trkpt lat="48.35677" lon="2.7544">
        <ele>107</ele>
        <time>2021-09-30T14:49:49Z</time>
      </trkpt>
      <trkpt lat="48.35676" lon="2.75448">
        <ele>107.19999694824</ele>
        <time>2021-09-30T14:49:54Z</time>
      </trkpt>
      <trkpt lat="48.35673" lon="2.75458">
        <ele>107.19999694824</ele>
        <time>2021-09-30T14:49:59Z</time>
      </trkpt>
      <trkpt lat="48.35671" lon="2.75465">
        <ele>107.19999694824</ele>
        <time>2021-09-30T14:50:04Z</time>
      </trkpt>
      <trkpt lat="48.35671" lon="2.75473">
        <ele>107.19999694824</ele>
        <time>2021-09-30T14:50:09Z</time>
      </trkpt>
      <trkpt lat="48.35671" lon="2.75481">
        <ele>107</ele>
        <time>2021-09-30T14:50:14Z</time>
      </trkpt>
      <trkpt lat="48.3567" lon="2.75491">
        <ele>107.19999694824</ele>
        <time>2021-09-30T14:50:19Z</time>
      </trkpt>
      <trkpt lat="48.35672" lon="2.755">
        <ele>107.19999694824</ele>
        <time>2021-09-30T14:50:24Z</time>
      </trkpt>
      <trkpt lat="48.3567" lon="2.75507">
        <ele>107.19999694824</ele>
        <time>2021-09-30T14:50:29Z</time>
      </trkpt>
      <trkpt lat="48.35668" lon="2.75515">
        <ele>107.19999694824</ele>
        <time>2021-09-30T14:50:34Z</time>
      </trkpt>
      <trkpt lat="48.35668" lon="2.75525">
        <ele>107.19999694824</ele>
        <time>2021-09-30T14:50:39Z</time>
      </trkpt>
      <trkpt lat="48.35666" lon="2.75533">
        <ele>107.40000152588</ele>
        <time>2021-09-30T14:50:44Z</time>
      </trkpt>
      <trkpt lat="48.35664" lon="2.75541">
        <ele>107.40000152588</ele>
        <time>2021-09-30T14:50:49Z</time>
      </trkpt>
      <trkpt lat="48.35661" lon="2.7555">
        <ele>107.40000152588</ele>
        <time>2021-09-30T14:50:54Z</time>
      </trkpt>
      <trkpt lat="48.3566" lon="2.75559">
        <ele>107.59999847412</ele>
        <time>2021-09-30T14:50:59Z</time>
      </trkpt>
      <trkpt lat="48.35658" lon="2.75569">
        <ele>107.59999847412</ele>
        <time>2021-09-30T14:51:04Z</time>
      </trkpt>
      <trkpt lat="48.3566" lon="2.75578">
        <ele>107.59999847412</ele>
        <time>2021-09-30T14:51:09Z</time>
      </trkpt>
      <trkpt lat="48.35661" lon="2.75586">
        <ele>107.40000152588</ele>
        <time>2021-09-30T14:51:14Z</time>
      </trkpt>
      <trkpt lat="48.35659" lon="2.75594">
        <ele>107.19999694824</ele>
        <time>2021-09-30T14:51:19Z</time>
      </trkpt>
      <trkpt lat="48.35659" lon="2.75602">
        <ele>107</ele>
        <time>2021-09-30T14:51:24Z</time>
      </trkpt>
      <trkpt lat="48.35657" lon="2.75611">
        <ele>106.59999847412</ele>
        <time>2021-09-30T14:51:29Z</time>
      </trkpt>
      <trkpt lat="48.35656" lon="2.75621">
        <ele>106.59999847412</ele>
        <time>2021-09-30T14:51:34Z</time>
      </trkpt>
      <trkpt lat="48.35656" lon="2.75631">
        <ele>106.40000152588</ele>
        <time>2021-09-30T14:51:39Z</time>
      </trkpt>
      <trkpt lat="48.35655" lon="2.75637">
        <ele>106.59999847412</ele>
        <time>2021-09-30T14:51:44Z</time>
      </trkpt>
      <trkpt lat="48.35652" lon="2.75646">
        <ele>106.59999847412</ele>
        <time>2021-09-30T14:51:49Z</time>
      </trkpt>
      <trkpt lat="48.35653" lon="2.75655">
        <ele>106.59999847412</ele>
        <time>2021-09-30T14:51:54Z</time>
      </trkpt>
      <trkpt lat="48.35652" lon="2.75663">
        <ele>106.59999847412</ele>
        <time>2021-09-30T14:51:59Z</time>
      </trkpt>
      <trkpt lat="48.35651" lon="2.75672">
        <ele>106.59999847412</ele>
        <time>2021-09-30T14:52:04Z</time>
      </trkpt>
      <trkpt lat="48.35649" lon="2.75679">
        <ele>106.80000305176</ele>
        <time>2021-09-30T14:52:09Z</time>
      </trkpt>
      <trkpt lat="48.35647" lon="2.7569">
        <ele>106.80000305176</ele>
        <time>2021-09-30T14:52:14Z</time>
      </trkpt>
      <trkpt lat="48.35646" lon="2.75698">
        <ele>106.80000305176</ele>
        <time>2021-09-30T14:52:19Z</time>
      </trkpt>
      <trkpt lat="48.35646" lon="2.75705">
        <ele>106.80000305176</ele>
        <time>2021-09-30T14:52:24Z</time>
      </trkpt>
      <trkpt lat="48.35645" lon="2.75714">
        <ele>107</ele>
        <time>2021-09-30T14:52:29Z</time>
      </trkpt>
      <trkpt lat="48.35643" lon="2.75722">
        <ele>107.19999694824</ele>
        <time>2021-09-30T14:52:34Z</time>
      </trkpt>
      <trkpt lat="48.35644" lon="2.7573">
        <ele>107.19999694824</ele>
        <time>2021-09-30T14:52:39Z</time>
      </trkpt>
      <trkpt lat="48.35643" lon="2.75738">
        <ele>107.40000152588</ele>
        <time>2021-09-30T14:52:44Z</time>
      </trkpt>
      <trkpt lat="48.3564" lon="2.75747">
        <ele>107.59999847412</ele>
        <time>2021-09-30T14:52:49Z</time>
      </trkpt>
      <trkpt lat="48.35638" lon="2.75754">
        <ele>107.80000305176</ele>
        <time>2021-09-30T14:52:54Z</time>
      </trkpt>
      <trkpt lat="48.35635" lon="2.75763">
        <ele>107.80000305176</ele>
        <time>2021-09-30T14:52:59Z</time>
      </trkpt>
      <trkpt lat="48.35635" lon="2.75771">
        <ele>108</ele>
        <time>2021-09-30T14:53:04Z</time>
      </trkpt>
      <trkpt lat="48.35635" lon="2.7578">
        <ele>108</ele>
        <time>2021-09-30T14:53:09Z</time>
      </trkpt>
      <trkpt lat="48.35634" lon="2.75789">
        <ele>108</ele>
        <time>2021-09-30T14:53:14Z</time>
      </trkpt>
      <trkpt lat="48.35633" lon="2.75796">
        <ele>108</ele>
        <time>2021-09-30T14:53:19Z</time>
      </trkpt>
      <trkpt lat="48.35631" lon="2.75803">
        <ele>108</ele>
        <time>2021-09-30T14:53:24Z</time>
      </trkpt>
      <trkpt lat="48.3563" lon="2.75812">
        <ele>107.80000305176</ele>
        <time>2021-09-30T14:53:29Z</time>
      </trkpt>
      <trkpt lat="48.35629" lon="2.7582">
        <ele>107.80000305176</ele>
        <time>2021-09-30T14:53:34Z</time>
      </trkpt>
      <trkpt lat="48.35629" lon="2.75827">
        <ele>107.80000305176</ele>
        <time>2021-09-30T14:53:39Z</time>
      </trkpt>
      <trkpt lat="48.3563" lon="2.75836">
        <ele>107.59999847412</ele>
        <time>2021-09-30T14:53:44Z</time>
      </trkpt>
      <trkpt lat="48.35631" lon="2.75845">
        <ele>107.59999847412</ele>
        <time>2021-09-30T14:53:49Z</time>
      </trkpt>
      <trkpt lat="48.35632" lon="2.75853">
        <ele>107.59999847412</ele>
        <time>2021-09-30T14:53:54Z</time>
      </trkpt>
      <trkpt lat="48.35631" lon="2.75861">
        <ele>107.59999847412</ele>
        <time>2021-09-30T14:53:59Z</time>
      </trkpt>
      <trkpt lat="48.3563" lon="2.75869">
        <ele>107.59999847412</ele>
        <time>2021-09-30T14:54:04Z</time>
      </trkpt>
      <trkpt lat="48.35628" lon="2.75879">
        <ele>107.80000305176</ele>
        <time>2021-09-30T14:54:09Z</time>
      </trkpt>
      <trkpt lat="48.35627" lon="2.75888">
        <ele>107.80000305176</ele>
        <time>2021-09-30T14:54:14Z</time>
      </trkpt>
      <trkpt lat="48.35624" lon="2.75897">
        <ele>107.80000305176</ele>
        <time>2021-09-30T14:54:19Z</time>
      </trkpt>
      <trkpt lat="48.35624" lon="2.75904">
        <ele>107.80000305176</ele>
        <time>2021-09-30T14:54:24Z</time>
      </trkpt>
      <trkpt lat="48.35622" lon="2.75912">
        <ele>108</ele>
        <time>2021-09-30T14:54:29Z</time>
      </trkpt>
      <trkpt lat="48.3562" lon="2.75921">
        <ele>107.80000305176</ele>
        <time>2021-09-30T14:54:34Z</time>
      </trkpt>
      <trkpt lat="48.35617" lon="2.75929">
        <ele>107.80000305176</ele>
        <time>2021-09-30T14:54:39Z</time>
      </trkpt>
      <trkpt lat="48.35616" lon="2.75939">
        <ele>107.80000305176</ele>
        <time>2021-09-30T14:54:44Z</time>
      </trkpt>
      <trkpt lat="48.35614" lon="2.75946">
        <ele>108</ele>
        <time>2021-09-30T14:54:49Z</time>
      </trkpt>
      <trkpt lat="48.35613" lon="2.75954">
        <ele>108</ele>
        <time>2021-09-30T14:54:54Z</time>
      </trkpt>
      <trkpt lat="48.35614" lon="2.75963">
        <ele>108</ele>
        <time>2021-09-30T14:54:59Z</time>
      </trkpt>
      <trkpt lat="48.35614" lon="2.7597">
        <ele>108.19999694824</ele>
        <time>2021-09-30T14:55:04Z</time>
      </trkpt>
      <trkpt lat="48.35614" lon="2.75977">
        <ele>108.19999694824</ele>
        <time>2021-09-30T14:55:09Z</time>
      </trkpt>
      <trkpt lat="48.35612" lon="2.75985">
        <ele>108.40000152588</ele>
        <time>2021-09-30T14:55:14Z</time>
      </trkpt>
      <trkpt lat="48.3561" lon="2.75992">
        <ele>108.40000152588</ele>
        <time>2021-09-30T14:55:19Z</time>
      </trkpt>
      <trkpt lat="48.3561" lon="2.76">
        <ele>108.59999847412</ele>
        <time>2021-09-30T14:55:24Z</time>
      </trkpt>
      <trkpt lat="48.35611" lon="2.76008">
        <ele>108.59999847412</ele>
        <time>2021-09-30T14:55:29Z</time>
      </trkpt>
      <trkpt lat="48.35609" lon="2.76019">
        <ele>108.59999847412</ele>
        <time>2021-09-30T14:55:34Z</time>
      </trkpt>
      <trkpt lat="48.35606" lon="2.76026">
        <ele>108.59999847412</ele>
        <time>2021-09-30T14:55:39Z</time>
      </trkpt>
      <trkpt lat="48.35606" lon="2.76035">
        <ele>108.59999847412</ele>
        <time>2021-09-30T14:55:44Z</time>
      </trkpt>
      <trkpt lat="48.35605" lon="2.76042">
        <ele>108.59999847412</ele>
        <time>2021-09-30T14:55:49Z</time>
      </trkpt>
      <trkpt lat="48.35604" lon="2.76051">
        <ele>108.80000305176</ele>
        <time>2021-09-30T14:55:54Z</time>
      </trkpt>
      <trkpt lat="48.35605" lon="2.76059">
        <ele>109</ele>
        <time>2021-09-30T14:55:59Z</time>
      </trkpt>
      <trkpt lat="48.35604" lon="2.76065">
        <ele>109</ele>
        <time>2021-09-30T14:56:04Z</time>
      </trkpt>
      <trkpt lat="48.35605" lon="2.76072">
        <ele>109</ele>
        <time>2021-09-30T14:56:09Z</time>
      </trkpt>
      <trkpt lat="48.35604" lon="2.7608">
        <ele>109</ele>
        <time>2021-09-30T14:56:14Z</time>
      </trkpt>
      <trkpt lat="48.35602" lon="2.76088">
        <ele>108.80000305176</ele>
        <time>2021-09-30T14:56:19Z</time>
      </trkpt>
      <trkpt lat="48.35602" lon="2.76096">
        <ele>108.59999847412</ele>
        <time>2021-09-30T14:56:24Z</time>
      </trkpt>
      <trkpt lat="48.356" lon="2.76104">
        <ele>108.59999847412</ele>
        <time>2021-09-30T14:56:29Z</time>
      </trkpt>
      <trkpt lat="48.35598" lon="2.76111">
        <ele>109</ele>
        <time>2021-09-30T14:56:34Z</time>
      </trkpt>
      <trkpt lat="48.35598" lon="2.76121">
        <ele>109</ele>
        <time>2021-09-30T14:56:39Z</time>
      </trkpt>
      <trkpt lat="48.35597" lon="2.76125">
        <ele>108.80000305176</ele>
        <time>2021-09-30T14:56:44Z</time>
      </trkpt>
      <trkpt lat="48.35596" lon="2.7613">
        <ele>108.80000305176</ele>
        <time>2021-09-30T14:56:49Z</time>
      </trkpt>
    </trkseg>
  </trk>
</gpx>